[[{"header":{"parameterUnit":"m.s-1","parameterCategory":1,"la1":30.6,"la2":28.766,"lo1":-90.7593,"lo2":-88.6598,"dy":0.0162,"dx":0.0183,"nx":116,"ny":114,"refTime":"2023-04-14T12:00:00:Z","depth":0,"parameterNumber":2,"parameterNumberName":"U-component_of_WINDS"},"data":[0.0,0.0,0.0,0.0,0.0,0.0,0.0,0.0,0.0,0.0,0.0,0.0,0.0,0.0,0.0,0.0,0.0,0.0,0.0,0.0,0.0,0.0,0.0,0.0,0.0,0.0,0.0,0.0,0.0,0.0,0.0,0.0,0.0,0.0,0.0,0.0,0.0,0.0,0.0,0.0,0.0,0.0,0.0,0.0,0.0,0.0,0.0,0.0,0.0,0.0,0.0,0.0,0.0,0.0,0.0,0.0,0.0,0.0,0.0,0.0,0.0,0.0,0.0,0.0,0.0,0.0,0.0,0.0,0.0,0.0,0.0,0.0,0.0,0.0,0.0,0.0,0.0,0.0,0.0,0.0,0.0,0.0,0.0,0.0,0.0,0.0,0.0,0.0,0.0,0.0,0.0,0.0,0.0,0.0,0.0,0.0,0.0,0.0,0.0,0.0,0.0,0.0,0.0,0.0,0.0,0.0,0.0,0.0,0.0,0.0,0.0,0.0,0.0,0.0,0.0,0.0,0.0,0.0,0.0,0.0,0.0,0.0,0.0,0.0,0.0,0.0,0.0,0.0,0.0,0.0,0.0,0.0,0.0,0.0,0.0,0.0,0.0,0.0,0.0,0.0,0.0,0.0,0.0,0.0,0.0,0.0,0.0,0.0,0.0,0.0,0.0,0.0,0.0,0.0,0.0,0.0,0.0,0.0,0.0,0.0,0.0,0.0,0.0,0.0,0.0,0.0,0.0,0.0,0.0,0.0,0.0,0.0,0.0,0.0,0.0,0.0,0.0,0.0,0.0,0.0,0.0,0.0,0.0,0.0,0.0,0.0,0.0,0.0,0.0,0.0,0.0,0.0,0.0,0.0,0.0,0.0,0.0,0.0,0.0,0.0,0.0,0.0,0.0,0.0,0.0,0.0,0.0,0.0,0.0,0.0,0.0,0.0,0.0,0.0,0.0,0.0,0.0,0.0,0.0,0.0,0.0,0.0,0.0,0.0,0.0,0.0,0.0,0.0,0.0,0.0,0.0,0.0,0.0,0.0,0.0,0.0,0.0,0.0,0.0,0.0,0.0,0.0,0.0,0.0,0.0,0.0,0.0,0.0,0.0,0.0,0.0,0.0,0.0,0.0,0.0,0.0,0.0,0.0,0.0,0.0,0.0,0.0,0.0,0.0,0.0,0.0,0.0,0.0,0.0,0.0,0.0,0.0,0.0,0.0,0.0,0.0,0.0,0.0,0.0,0.0,0.0,0.0,0.0,0.0,0.0,0.0,0.0,0.0,0.0,0.0,0.0,0.0,0.0,0.0,0.0,0.0,0.0,0.0,0.0,0.0,0.0,0.0,0.0,0.0,0.0,0.0,0.0,0.0,0.0,0.0,0.0,0.0,0.0,0.0,0.0,0.0,0.0,0.0,0.0,0.0,0.0,0.0,0.0,0.0,0.0,0.0,0.0,0.0,0.0,0.0,0.0,0.0,0.0,0.0,0.0,0.0,0.0,0.0,0.0,0.0,0.0,0.0,0.0,0.0,0.0,0.0,0.0,0.0,0.0,0.0,0.0,0.0,0.0,0.0,0.0,0.0,0.0,0.0,0.0,0.0,0.0,0.0,0.0,0.0,0.0,0.0,0.0,0.0,0.0,0.0,0.0,0.0,0.0,0.0,0.0,0.0,0.0,0.0,0.0,0.0,0.0,0.0,0.0,0.0,0.0,0.0,0.0,0.0,0.0,0.0,0.0,0.0,0.0,0.0,0.0,0.0,0.0,0.0,0.0,0.0,0.0,0.0,0.0,0.0,0.0,0.0,0.0,0.0,0.0,0.0,0.0,0.0,0.0,0.0,0.0,0.0,0.0,0.0,0.0,0.0,0.0,0.0,0.0,0.0,0.0,0.0,0.0,0.0,0.0,0.0,0.0,0.0,0.0,0.0,0.0,0.0,0.0,0.0,0.0,0.0,0.0,0.0,0.0,0.0,0.0,0.0,0.0,0.0,0.0,0.0,0.0,0.0,0.0,0.0,0.0,0.0,0.0,0.0,0.0,0.0,0.0,0.0,0.0,0.0,0.0,0.0,0.0,0.0,0.0,0.0,0.0,0.0,0.0,0.0,0.0,0.0,0.0,0.0,0.0,0.0,0.0,0.0,0.0,0.0,0.0,0.0,0.0,0.0,0.0,0.0,0.0,0.0,0.0,0.0,0.0,0.0,0.0,0.0,0.0,0.0,0.0,0.0,0.0,0.0,0.0,0.0,0.0,0.0,0.0,0.0,0.0,0.0,0.0,0.0,0.0,0.0,0.0,0.0,0.0,0.0,0.0,0.0,0.0,0.0,0.0,0.0,0.0,0.0,0.0,0.0,0.0,0.0,0.0,0.0,0.0,0.0,0.0,0.0,0.0,0.0,0.0,0.0,0.0,0.0,0.0,0.0,0.0,0.0,0.0,0.0,0.0,0.0,0.0,0.0,0.0,0.0,0.0,0.0,0.0,0.0,0.0,0.0,0.0,0.0,0.0,0.0,0.0,0.0,0.0,0.0,0.0,0.0,0.0,0.0,0.0,0.0,0.0,0.0,0.0,0.0,0.0,0.0,0.0,0.0,0.0,0.0,0.0,0.0,0.0,0.0,0.0,0.0,0.0,0.0,0.0,0.0,0.0,0.0,0.0,0.0,0.0,0.0,0.0,0.0,0.0,0.0,0.0,0.0,0.0,0.0,0.0,0.0,0.0,0.0,0.0,0.0,0.0,0.0,0.0,0.0,0.0,0.0,0.0,0.0,0.0,0.0,0.0,0.0,0.0,0.0,0.0,0.0,0.0,0.0,0.0,0.0,0.0,0.0,0.0,0.0,0.0,0.0,0.0,0.0,0.0,0.0,0.0,0.0,0.0,0.0,0.0,0.0,0.0,0.0,0.0,0.0,0.0,0.0,0.0,0.0,0.0,0.0,0.0,0.0,0.0,0.0,0.0,0.0,0.0,0.0,0.0,0.0,0.0,0.0,0.0,0.0,0.0,0.0,0.0,0.0,0.0,0.0,0.0,0.0,0.0,0.0,0.0,0.0,0.0,0.0,0.0,0.0,0.0,0.0,0.0,0.0,0.0,0.0,0.0,0.0,0.0,0.0,0.0,0.0,0.0,0.0,0.0,0.0,0.0,0.0,0.0,0.0,0.0,0.0,0.0,0.0,0.0,0.0,0.0,0.0,0.0,0.0,0.0,0.0,0.0,0.0,0.0,0.0,0.0,0.0,0.0,0.0,0.0,0.0,0.0,0.0,0.0,0.0,0.0,0.0,0.0,0.0,0.0,0.0,0.0,0.0,0.0,0.0,0.0,0.0,0.0,0.0,0.0,0.0,0.0,0.0,0.0,0.0,0.0,0.0,0.0,0.0,0.0,0.0,0.0,0.0,0.0,0.0,0.0,0.0,0.0,0.0,0.0,0.0,0.0,0.0,0.0,0.0,0.0,0.0,0.0,0.0,0.0,0.0,0.0,0.0,0.0,0.0,0.0,0.0,0.0,0.0,0.0,0.0,0.0,0.0,0.0,0.0,0.0,0.0,0.0,0.0,0.0,0.0,0.0,0.0,0.0,0.0,0.0,0.0,0.0,0.0,0.0,0.0,0.0,0.0,0.0,0.0,0.0,0.0,0.0,0.0,0.0,0.0,0.0,0.0,0.0,0.0,0.0,0.0,0.0,0.0,0.0,0.0,0.0,0.0,0.0,0.0,0.0,0.0,0.0,0.0,0.0,0.0,0.0,0.0,0.0,0.0,0.0,0.0,0.0,0.0,0.0,0.0,0.0,0.0,0.0,0.0,0.0,0.0,0.0,0.0,0.0,0.0,0.0,0.0,0.0,0.0,0.0,0.0,0.0,0.0,0.0,0.0,0.0,0.0,0.0,0.0,0.0,0.0,0.0,0.0,0.0,0.0,0.0,0.0,0.0,0.0,0.0,0.0,0.0,0.0,0.0,0.0,0.0,0.0,0.0,0.0,0.0,0.0,0.0,0.0,0.0,0.0,0.0,0.0,0.0,0.0,0.0,0.0,0.0,0.0,0.0,0.0,0.0,0.0,0.0,0.0,0.0,0.0,0.0,0.0,0.0,0.0,0.0,0.0,0.0,0.0,0.0,0.0,0.0,0.0,0.0,0.0,0.0,0.0,0.0,0.0,0.0,0.0,0.0,0.0,0.0,0.0,0.0,0.0,0.0,0.0,0.0,0.0,0.0,0.0,0.0,0.0,0.0,0.0,0.0,0.0,0.0,0.0,0.0,0.0,0.0,0.0,0.0,0.0,0.0,0.0,0.0,0.0,0.0,0.0,0.0,0.0,0.0,0.0,0.0,0.0,0.0,0.0,0.0,0.0,0.0,0.0,0.0,0.0,0.0,0.0,0.0,0.0,0.0,0.0,0.0,0.0,0.0,0.0,0.0,0.0,0.0,0.0,0.0,0.0,0.0,0.0,0.0,0.0,0.0,0.0,0.0,0.0,0.0,0.0,0.0,0.0,0.0,0.0,0.0,0.0,0.0,0.0,0.0,0.0,0.0,0.0,0.0,0.0,0.0,0.0,0.0,0.0,0.0,0.0,0.0,0.0,0.0,0.0,0.0,0.0,0.0,0.0,0.0,0.0,0.0,0.0,0.0,0.0,0.0,0.0,0.0,0.0,0.0,0.0,0.0,0.0,0.0,0.0,0.0,0.0,0.0,0.0,0.0,0.0,0.0,0.0,0.0,0.0,0.0,0.0,0.0,0.0,0.0,0.0,0.0,0.0,0.0,0.0,0.0,0.0,0.0,0.0,0.0,0.0,0.0,0.0,0.0,0.0,0.0,0.0,0.0,0.0,0.0,0.0,0.0,0.0,0.0,0.0,0.0,0.0,0.0,0.0,0.0,0.0,0.0,0.0,0.0,0.0,0.0,0.0,0.0,0.0,0.0,0.0,0.0,0.0,0.0,0.0,0.0,0.0,0.0,0.0,0.0,0.0,0.0,0.0,0.0,0.0,0.0,0.0,0.0,0.0,0.0,0.0,0.0,0.0,0.0,0.0,0.0,0.0,0.0,0.0,0.0,0.0,0.0,0.0,0.0,0.0,0.0,0.0,0.0,0.0,0.0,0.0,0.0,0.0,0.0,0.0,0.0,0.0,0.0,0.0,0.0,0.0,0.0,0.0,0.0,0.0,0.0,0.0,0.0,0.0,0.0,0.0,0.0,0.0,0.0,0.0,0.0,0.0,0.0,0.0,0.0,0.0,0.0,0.0,0.0,0.0,0.0,0.0,0.0,0.0,0.0,0.0,0.0,0.0,0.0,0.0,0.0,0.0,0.0,0.0,0.0,0.0,0.0,0.0,0.0,0.0,0.0,0.0,0.0,0.0,0.0,0.0,0.0,0.0,0.0,0.0,0.0,0.0,0.0,0.0,0.0,0.0,0.0,0.0,0.0,0.0,0.0,0.0,0.0,0.0,0.0,0.0,0.0,0.0,0.0,0.0,0.0,0.0,0.0,0.0,0.0,0.0,0.0,0.0,0.0,0.0,0.0,0.0,0.0,0.0,0.0,0.0,0.0,0.0,0.0,0.0,0.0,0.0,0.0,0.0,0.0,0.0,0.0,0.0,0.0,0.0,0.0,0.0,0.0,0.0,0.0,0.0,0.0,0.0,0.0,0.0,0.0,0.0,0.0,0.0,0.0,0.0,0.0,0.0,0.0,0.0,0.0,0.0,0.0,0.0,0.0,0.0,0.0,0.0,0.0,0.0,0.0,0.0,0.0,0.0,0.0,0.0,0.0,0.0,0.0,0.0,0.0,0.0,0.0,0.0,0.0,0.0,0.0,0.0,0.0,0.0,0.0,0.0,0.0,0.0,0.0,0.0,0.0,0.0,0.0,0.0,0.0,0.0,0.0,0.0,0.0,0.0,0.0,0.0,0.0,0.0,0.0,0.0,0.0,0.0,0.0,0.0,0.0,0.0,0.0,0.0,0.0,0.0,0.0,0.0,0.0,0.0,0.0,0.0,0.0,0.0,0.0,0.0,0.0,0.0,0.0,0.0,0.0,0.0,0.0,0.0,0.0,0.0,0.0,0.0,0.0,0.0,0.0,0.0,0.0,0.0,0.0,0.0,0.0,0.0,-0.5482,0.0,0.0,0.0,0.0,0.0,0.0,0.0,0.0,0.0,0.0,0.0,0.0,0.0,0.0,0.0,0.0,0.0,0.0,0.0,0.0,0.0,0.0,0.0,0.0,0.0,0.0,0.0,0.0,0.0,0.0,0.0,0.0,0.0,0.0,0.0,0.0,0.0,0.0,0.0,0.0,0.0,0.0,0.0,0.0,0.0,0.0,0.0,0.0,0.0,0.0,0.0,0.0,0.0,0.0,0.0,0.0,0.0,0.0,0.0,0.0,0.0,0.0,0.0,0.0,0.0,0.0,0.0,0.0,0.0,0.0,0.0,0.0,0.0,0.0,0.0,0.0,0.0,0.0,0.0,0.0,0.0,0.0,0.0,0.0,0.0,0.0,0.0,0.0,0.0,0.0,0.0,0.0,0.0,0.0,0.0,0.0,0.0,0.0,0.0,0.0,0.0,0.0,0.0,0.0,0.0,0.0,0.0,0.0,0.0,0.0,0.0,0.0,0.0,0.0,0.0,0.0,-0.5326,0.0,0.0,0.0,0.0,0.0,0.0,0.0,0.0,0.0,0.0,0.0,0.0,0.0,0.0,0.0,0.0,0.0,0.0,0.0,0.0,0.0,0.0,0.0,0.0,0.0,0.0,0.0,0.0,0.0,0.0,0.0,0.0,0.0,0.0,0.0,0.0,0.0,0.0,0.0,0.0,0.0,0.0,0.0,0.0,0.0,0.0,0.0,0.0,0.0,0.0,0.0,0.0,0.0,0.0,0.0,0.0,0.0,0.0,0.0,0.0,0.0,0.0,0.0,0.0,0.0,0.0,0.0,0.0,0.0,0.0,0.0,0.0,0.0,0.0,0.0,0.0,0.0,0.0,0.0,0.0,0.0,0.0,0.0,0.0,0.0,0.0,0.0,0.0,0.0,0.0,0.0,0.0,0.0,0.0,0.0,0.0,0.0,0.0,0.0,0.0,0.0,0.0,0.0,0.0,0.0,0.0,0.0,0.0,-0.5093,-0.4937,-0.4779,-0.4779,-0.4701,-0.4584,-0.4584,-0.4662,-0.4779,-0.4623,0.0,0.0,0.0,0.0,0.0,0.0,0.0,0.0,0.0,0.0,0.0,0.0,0.0,0.0,0.0,0.0,0.0,0.0,0.0,0.0,0.0,0.0,0.0,0.0,0.0,0.0,0.0,0.0,0.0,0.0,0.0,0.0,0.0,0.0,0.0,0.0,0.0,0.0,-1.2209,-1.2289,-1.2375,-1.246,0.0,0.0,0.0,0.0,0.0,0.0,0.0,0.0,0.0,0.0,0.0,0.0,0.0,0.0,0.0,0.0,0.0,0.0,0.0,0.0,0.0,0.0,0.0,0.0,0.0,0.0,0.0,0.0,0.0,0.0,0.0,0.0,0.0,0.0,0.0,0.0,0.0,0.0,0.0,0.0,0.0,0.0,0.0,0.0,-0.5096,-0.5096,0.0,0.0,0.0,0.0,0.0,0.0,0.0,0.0,0.0,0.0,0.0,0.0,0.0,-0.5096,-0.5096,-0.5057,-0.5054,-0.5054,-0.5018,-0.4621,-0.3949,-0.3949,-0.3558,-0.2817,-0.2817,0.0,-0.391,-0.3129,0.0,0.0,0.0,0.0,0.0,0.0,0.0,0.0,0.0,0.0,0.0,0.0,0.0,0.0,0.0,0.0,0.0,0.0,0.0,0.0,0.0,0.0,0.0,0.0,0.0,0.0,0.0,0.0,0.0,0.0,0.0,0.0,0.0,0.0,0.0,0.0,-1.3033,-1.2155,-1.1607,-1.1607,-1.1607,-1.1607,-1.2026,-1.2155,-1.2,-1.2123,0.0,0.0,0.0,0.0,0.0,0.0,0.0,0.0,0.0,0.0,0.0,0.0,0.0,0.0,0.0,0.0,0.0,0.0,0.0,0.0,0.0,0.0,0.0,0.0,0.0,0.0,0.0,0.0,0.0,0.0,0.0,0.0,0.0,0.0,0.0,0.0,0.0,0.0,0.0,-0.5186,-0.511,-0.511,-0.5132,-0.5132,0.0,0.0,0.0,0.0,0.0,0.0,0.0,0.0,0.0,-0.5018,-0.508,-0.511,-0.511,-0.5181,-0.5216,-0.5216,-0.5216,-0.5049,-0.468,-0.468,-0.4475,-0.411,-0.3622,-0.3622,-0.3897,-0.2887,-0.2503,-0.2503,0.0,0.0,0.0,0.0,-0.0902,-0.0353,0.0,0.0,0.0,0.0,0.0,0.0,0.0,0.0,0.0,0.0,0.0,0.0,0.0,0.0,0.0,-1.6368,0.0,0.0,0.0,0.0,0.0,0.0,0.0,0.0,0.0,0.0,0.0,0.0,-1.1903,-1.1483,-1.1305,-1.1305,-1.1305,-1.1305,-1.1305,-1.1478,-1.1828,-1.1871,-1.2037,0.0,0.0,0.0,0.0,0.0,0.0,0.0,0.0,0.0,0.0,0.0,0.0,0.0,0.0,0.0,0.0,0.0,0.0,0.0,0.0,0.0,0.0,0.0,0.0,0.0,0.0,0.0,0.0,0.0,0.0,0.0,0.0,0.0,0.0,0.0,0.0,0.0,0.0,-0.5309,-0.5233,-0.5233,-0.5132,-0.5072,0.0,0.0,0.0,0.0,0.0,0.0,-0.5108,-0.5108,-0.5108,-0.5108,-0.5189,-0.5233,-0.5154,-0.5242,-0.5288,-0.5204,-0.5204,-0.5118,-0.4907,-0.4907,-0.4782,-0.4532,-0.3606,-0.3228,-0.3178,-0.2708,-0.2351,-0.215,-0.2098,-0.1541,-0.0791,-0.0791,-0.0277,0.0397,0.0,0.0,0.0,0.0,0.0,0.0,0.0,0.0,0.0,0.0,0.0,0.0,0.0,0.0,-1.5257,-1.5472,-1.4307,-1.409,0.0,0.0,0.0,0.0,0.0,0.0,0.0,0.0,0.0,-1.1392,-1.1354,-1.1311,-1.1305,-1.1305,-1.1305,-1.1305,-1.1305,-1.1311,-1.1354,-1.1613,-1.1699,-1.1742,0.0,0.0,0.0,0.0,0.0,0.0,0.0,0.0,0.0,0.0,0.0,0.0,0.0,0.0,0.0,0.0,0.0,0.0,0.0,0.0,0.0,0.0,0.0,0.0,0.0,0.0,0.0,0.0,0.0,0.0,0.0,0.0,0.0,0.0,0.0,0.0,0.0,0.0,0.0,-0.5402,-0.5252,0.0,0.0,0.0,0.0,-0.5383,-0.5394,-0.5394,-0.5394,-0.5394,-0.5394,-0.5394,-0.5399,-0.528,-0.5032,-0.4996,-0.4915,-0.4743,-0.4743,-0.4283,-0.3486,-0.3486,-0.3065,-0.2312,-0.1302,-0.0882,-0.0966,-0.205,-0.1966,-0.117,-0.094,-0.0284,0.0609,0.0609,0.065,0.0693,0.0,0.0,0.0,0.0,0.0,0.0,0.0,0.0,0.0,0.0,0.0,0.0,0.0,-1.4999,-1.4866,-1.495,-1.4006,-1.362,-1.4097,0.0,0.0,0.0,0.0,0.0,0.0,0.0,-1.1289,-1.0857,-1.0857,-1.0992,-1.1305,-1.1305,-1.1305,-1.1305,-1.1305,-1.1305,-1.1311,-1.1392,-1.1527,-1.1699,-1.1785,-1.1952,0.0,0.0,0.0,0.0,0.0,0.0,0.0,0.0,0.0,0.0,0.0,0.0,0.0,0.0,0.0,0.0,0.0,0.0,0.0,0.0,0.0,0.0,0.0,0.0,0.0,0.0,0.0,0.0,0.0,0.0,0.0,0.0,0.0,0.0,0.0,0.0,0.0,-0.5443,-0.5379,0.0,-0.5407,-0.5372,-0.5364,-0.5407,-0.541,-0.541,-0.541,-0.5246,-0.5155,-0.5225,-0.5168,-0.5107,-0.5048,-0.5162,-0.5151,-0.5106,-0.5106,-0.4922,-0.4604,-0.3919,-0.3419,-0.31,-0.205,-0.1594,-0.1639,-0.1868,-0.1193,0.0084,0.0125,0.0374,0.0707,0.0707,0.0791,0.0875,0.0,0.0,0.0,0.0,0.0,0.0,0.0,0.0,0.0,0.0,0.0,-1.509,-1.4957,-1.4741,-1.465,-1.4692,-1.3753,-1.3366,-1.3795,0.0,0.0,0.0,0.0,0.0,0.0,-1.0939,-1.0598,-1.0381,-1.0381,-1.0554,-1.0868,-1.0868,-1.0911,-1.1041,-1.1041,-1.1127,-1.1305,-1.1305,-1.1392,-1.157,-1.157,-1.1699,-1.1897,0.0,0.0,0.0,0.0,0.0,0.0,0.0,0.0,0.0,0.0,0.0,0.0,0.0,0.0,0.0,0.0,0.0,0.0,0.0,0.0,0.0,0.0,0.0,0.0,0.0,0.0,0.0,0.0,0.0,0.0,0.0,0.0,0.0,0.0,0.0,-0.5436,-0.5346,-0.5245,-0.5233,-0.527,-0.5275,-0.5291,-0.5287,-0.5328,-0.5349,-0.5349,-0.5177,-0.5122,-0.5146,-0.5127,-0.5059,-0.5034,-0.4772,-0.4612,-0.4518,-0.4136,-0.3947,-0.3947,-0.3234,-0.2901,-0.2852,-0.1807,-0.1379,-0.1331,-0.0809,0.0,0.0923,0.0611,0.0653,0.0957,0.0957,0.1045,0.1176,0.0,0.0,0.0,0.0,0.0,0.0,0.0,0.0,0.0,0.0,-1.509,-1.4999,-1.4741,-1.4524,-1.4482,-1.465,-1.3464,-1.3258,-1.4566,-1.3613,0.0,0.0,0.0,0.0,-1.0982,-1.0294,-0.9951,-0.9994,-0.9994,-0.9994,-0.9994,-0.9994,-1.0207,-1.0593,-1.0593,-1.0814,-1.1262,-1.1262,-1.1267,-1.1262,-1.1305,-1.144,-1.1699,0.0,0.0,0.0,0.0,0.0,0.0,0.0,0.0,0.0,0.0,0.0,0.0,0.0,0.0,0.0,0.0,0.0,0.0,0.0,0.0,0.0,0.0,0.0,0.0,0.0,0.0,0.0,0.0,0.0,0.0,0.0,0.0,0.0,-0.5371,-0.5374,-0.5287,-0.5015,-0.4888,-0.4869,-0.501,-0.502,-0.5018,-0.5119,-0.5223,-0.5282,-0.5282,-0.5282,-0.5282,-0.5287,-0.5287,-0.5145,-0.4905,-0.381,-0.319,-0.3,-0.1858,-0.1287,-0.1287,-0.1287,-0.1239,-0.1191,-0.0286,0.0143,0.0239,0.1146,0.1481,0.1383,0.042,0.0648,0.1482,0.1482,0.1482,0.1486,0.0,0.0,0.0,0.0,0.0,0.0,0.0,0.0,0.0,0.0,-1.4915,-1.4741,-1.4524,-1.4286,-1.4208,-1.425,-1.3307,-1.2875,-1.3215,0.0,0.0,0.0,0.0,0.0,-0.9777,-0.9262,-0.9174,-0.9476,-0.9476,-0.965,-0.9994,-0.9994,-1.0081,-1.0168,-1.0168,-1.0255,-1.0347,-1.0347,-1.0516,-1.0814,-1.117,-1.1354,-1.1397,0.0,0.0,0.0,0.0,0.0,0.0,0.0,0.0,0.0,0.0,0.0,0.0,0.0,0.0,0.0,0.0,0.0,0.0,0.0,0.0,0.0,0.0,0.0,0.0,0.0,0.0,0.0,0.0,0.0,0.0,0.0,0.0,-0.5099,-0.5112,-0.5167,-0.517,-0.5079,-0.5124,-0.5164,-0.519,-0.5195,-0.5207,-0.5235,-0.5263,-0.5282,-0.5282,-0.5135,-0.5074,-0.5147,-0.496,-0.4846,-0.4808,-0.3768,-0.3224,-0.3124,-0.2034,-0.1539,-0.1489,-0.0695,-0.0347,-0.0298,0.0746,0.1194,0.1194,0.1442,0.1592,0.1537,0.1198,0.1277,0.1513,0.1513,0.1513,0.1515,0.0,0.0,0.0,0.0,0.0,0.0,0.0,0.0,0.0,0.0,-1.4783,-1.4573,-1.4321,-1.4166,-1.4088,-1.4088,-1.361,-1.3307,-1.3307,0.0,0.0,0.0,0.0,-0.9767,-0.9043,-0.874,-0.874,-0.8999,-0.8999,-0.913,-0.9432,-0.9432,-0.9519,-0.9689,-0.9689,-0.982,-0.9994,-0.9994,-1.0125,-1.0381,-1.0646,-1.0959,-1.1305,-1.1305,-1.1305,-1.1305,-1.1305,-1.1305,-1.1305,-1.1305,0.0,0.0,0.0,0.0,0.0,0.0,0.0,0.0,0.0,0.0,0.0,0.0,0.0,0.0,0.0,0.0,0.0,0.0,0.0,0.0,0.0,0.0,0.0,0.0,-0.5046,-0.4891,-0.4837,-0.4919,-0.5002,-0.4911,-0.4962,-0.4998,-0.4998,-0.5036,-0.506,-0.506,-0.5096,-0.507,-0.507,-0.4922,-0.4897,-0.4954,-0.4808,-0.4535,-0.413,-0.3044,-0.2292,-0.1834,-0.0719,-0.0206,-0.0206,0.0413,0.0722,0.0722,0.1394,0.1654,0.1654,0.1654,0.1654,0.0,0.0,0.0,0.0,0.0,0.1564,0.1564,0.0,0.0,0.0,0.0,0.0,0.0,0.0,0.0,0.0,0.0,0.0,-1.4531,-1.413,-1.4088,-1.4088,-1.4088,-1.4088,-1.4046,0.0,0.0,0.0,-0.999,-0.9816,-0.9388,-0.8612,-0.8612,-0.8612,-0.8612,-0.8612,-0.8612,-0.8612,-0.8612,-0.8828,-0.9218,-0.9218,-0.9432,-0.9825,-0.9825,-0.9864,-0.9907,-0.9907,-1.0434,-1.1132,-1.1132,-1.1132,-1.1176,-1.1219,-1.1219,-1.1219,-1.1262,0.0,0.0,0.0,0.0,0.0,0.0,0.0,0.0,0.0,0.0,0.0,0.0,0.0,0.0,0.0,0.0,0.0,0.0,0.0,0.0,0.0,0.0,0.0,0.0,-0.4791,-0.4679,-0.46,-0.4793,-0.4845,-0.4637,-0.4596,-0.4602,-0.4602,-0.4685,-0.4738,-0.4738,-0.4816,-0.4815,-0.4815,0.0,0.0,0.0,0.0,-0.4104,-0.304,-0.1956,-0.0935,0.0,0.1162,0.1704,0.1704,0.1704,0.1704,0.1704,0.1704,0.1704,0.1704,0.1704,0.1704,0.1699,0.1647,0.1625,0.1622,0.1622,0.162,0.1617,0.0,0.0,0.0,0.0,0.0,0.0,0.0,0.0,0.0,-1.4734,-1.4566,-1.4363,-1.4124,-1.4088,-1.4088,-1.4088,-1.4088,-1.3786,0.0,0.0,-1.0289,-0.9903,-0.9213,-0.8784,-0.8612,-0.8612,-0.8612,-0.8612,-0.8612,-0.8612,-0.8612,-0.8612,-0.8656,-0.874,-0.874,-0.8784,-0.8872,-0.8872,-0.9087,-0.9432,-0.9432,-0.9781,-1.0255,-1.0255,-1.0255,-1.0299,-1.0641,-1.0727,-1.0771,-1.1176,-1.1305,-1.1305,-1.1305,0.0,0.0,0.0,0.0,0.0,0.0,0.0,0.0,0.0,0.0,0.0,0.0,0.0,0.0,0.0,0.0,0.0,0.0,0.0,0.0,-0.491,-0.4791,-0.4702,-0.4685,-0.4854,-0.4891,-0.47,-0.4743,-0.4783,-0.4783,-0.4867,-0.4922,-0.4922,-0.5004,-0.5055,-0.5055,-0.5055,-0.4581,-0.3633,-0.3581,-0.3,-0.1841,-0.0739,-0.0106,0.0106,0.0,0.0,0.1704,0.1704,0.1704,0.1704,0.1704,0.1704,0.1704,0.1704,0.1704,0.1703,0.1692,0.1673,0.1705,0.1705,0.1638,0.1617,0.0,0.0,0.0,0.0,0.0,0.0,0.0,0.0,0.0,0.0,-1.4608,-1.4447,-1.4124,-1.4088,-1.4088,-1.4088,-1.3652,0.0,0.0,-1.0679,-0.9685,-0.9257,-0.8828,-0.8612,-0.8612,-0.8612,-0.8612,-0.8612,-0.8612,-0.8612,-0.8612,-0.8612,-0.8612,-0.8612,-0.8612,-0.8612,-0.8612,-0.8612,-0.874,-0.8959,-0.8959,-0.9087,-0.9349,-0.982,-0.9994,-1.0038,-1.025,-1.0294,-1.0337,-1.0559,-1.0651,-1.0651,-1.0651,-1.0077,-0.9593,0.0,0.0,0.0,0.0,0.0,0.0,0.0,0.0,0.0,0.0,0.0,0.0,0.0,0.0,-0.5296,0.0,0.0,-0.51,-0.4903,-0.4868,-0.4892,-0.4847,-0.4955,-0.499,-0.4857,-0.4918,-0.4971,-0.4971,-0.5014,-0.5041,-0.5041,-0.5081,-0.5108,-0.5108,-0.5108,-0.4523,-0.3352,-0.3298,-0.2447,-0.0691,-0.0161,0.0378,0.0971,0.147,0.175,0.175,0.175,0.175,0.175,0.175,0.175,0.175,0.175,0.175,0.175,0.175,0.1722,0.1683,0.1683,0.1673,0.166,0.0,0.0,0.0,0.0,0.0,0.0,0.0,0.0,0.0,0.0,0.0,-1.4489,-1.413,-1.4088,-1.4088,0.0,0.0,0.0,0.0,-1.0246,-0.9345,-0.8612,-0.8612,-0.8612,-0.8612,-0.8564,-0.8564,-0.8612,-0.8564,-0.8564,-0.8612,-0.8612,-0.8612,-0.8612,-0.8612,-0.8612,-0.8612,-0.8612,-0.8612,-0.8612,-0.8612,-0.8612,-0.87,-0.9432,-0.9738,-0.9733,-0.982,-0.9864,-0.9873,-0.9998,-1.0056,-1.0066,-1.006,-0.9442,-0.8951,-1.0192,-0.9415,0.0,0.0,0.0,0.0,0.0,0.0,0.0,0.0,0.0,-0.5239,-0.5213,-0.5184,-0.5172,-0.5056,-0.5118,-0.5088,-0.4865,-0.5,-0.5081,-0.5008,-0.5077,-0.5106,-0.5035,-0.5075,-0.5108,-0.5108,-0.5124,-0.5135,-0.5135,-0.5151,-0.5161,-0.5161,-0.4945,-0.4245,-0.3063,-0.3009,-0.1988,0.0054,-0.0164,0.0165,0.1098,0.1114,0.1234,0.1458,0.1458,0.157,0.1795,0.1795,0.1795,0.1795,0.1795,0.1795,0.1795,0.1795,0.1765,0.1721,0.1715,0.171,0.1704,0.0,0.0,0.0,0.0,0.0,0.0,0.0,0.0,0.0,0.0,0.0,0.0,0.0,0.0,0.0,0.0,0.0,0.0,-1.1327,-0.9689,-0.8696,-0.8612,-0.8612,-0.8612,-0.8612,-0.838,-0.838,-0.8612,-0.838,-0.838,-0.8612,-0.8612,-0.8612,-0.8612,-0.8612,-0.8612,-0.8612,-0.8612,-0.8612,-0.8612,-0.8612,-0.8612,-0.8612,-0.87,-0.8744,-0.8828,-0.9218,-0.9393,-0.9459,-0.999,-1.0185,-1.0218,-1.0397,-0.9334,-0.8362,-1.003,0.0,-0.7837,-1.0431,-0.9932,-0.8081,-0.5695,-0.5277,-0.5327,0.0,0.0,-0.4923,-0.4772,-0.4802,-0.4858,-0.4818,-0.4961,-0.5103,-0.4969,-0.5043,-0.5104,-0.5094,-0.5171,-0.517,-0.516,-0.5151,-0.5108,-0.5108,-0.5128,-0.5174,-0.5174,-0.5304,-0.5351,-0.5351,-0.4342,-0.3227,-0.2004,-0.1949,-0.1336,0.0,-0.106,-0.1507,-0.1396,-0.1398,-0.084,0.0224,0.0224,0.0785,0.1795,0.1795,0.1795,0.1795,0.1795,0.1795,0.1795,0.1795,0.1791,0.1782,0.1809,0.1727,0.1704,0.0,0.0,0.0,0.0,0.0,0.0,0.0,0.0,0.0,0.0,0.0,0.0,0.0,0.0,0.0,0.0,0.0,0.0,-1.1284,-0.9602,-0.8612,-0.8612,-0.8612,-0.8612,-0.8612,-0.8476,-0.8476,-0.8612,-0.8476,-0.8476,-0.8612,-0.8612,-0.8612,-0.8616,-0.867,-0.8662,-0.8616,-0.8674,-0.8658,-0.8612,-0.8612,-0.8612,-0.8612,-0.8612,-0.8612,-0.8612,-0.8828,-0.8939,0.0,0.0,-0.9485,-0.9502,-0.9106,-0.8516,-0.8139,-0.9122,-0.8396,0.0,-0.8242,-0.7589,-0.6377,0.0,-0.4918,-0.4969,-0.4773,-0.4771,-0.4847,-0.4893,-0.4932,-0.4994,-0.4994,-0.51,-0.5157,0.0,-0.5128,-0.5134,-0.5134,-0.5267,-0.5324,-0.5324,-0.529,-0.5267,-0.5267,-0.5302,-0.5324,-0.5324,-0.5359,-0.5382,-0.5382,-0.4931,-0.4086,-0.291,-0.2854,-0.2295,-0.1064,-0.1567,-0.1456,-0.0728,-0.0728,-0.0112,0.1065,0.1065,0.1346,0.1795,0.1795,0.1795,0.1795,0.1795,0.1795,0.1795,0.1795,0.1795,0.1793,0.178,0.1768,0.1757,0.0,0.0,0.0,0.0,0.0,0.0,0.0,0.0,0.0,0.0,0.0,0.0,0.0,0.0,0.0,0.0,0.0,0.0,0.0,-0.9652,-0.8661,-0.8612,-0.8657,0.0,-0.8612,-0.852,-0.852,-0.8612,-0.852,-0.852,-0.8612,-0.8612,-0.8612,-0.8616,-0.8694,-0.8682,-0.862,-0.8698,-0.8678,-0.8612,-0.8612,-0.8612,-0.8616,-0.8621,-0.8637,-0.8637,-0.8637,-0.8718,0.0,0.0,-0.9056,-0.9083,-0.8558,-0.8233,-0.8237,-0.8806,-0.8519,-0.7743,-0.642,0.0,0.0,-0.4935,-0.4802,-0.4873,-0.4873,-0.4861,-0.4914,-0.5032,-0.512,-0.5175,-0.5151,-0.522,-0.5251,-0.5161,-0.5222,-0.5282,-0.5282,-0.5339,-0.5382,-0.5382,-0.5382,-0.5382,-0.5382,-0.5382,-0.5382,-0.5382,-0.5382,-0.5382,-0.5382,-0.5098,-0.448,-0.3636,-0.358,-0.3189,-0.2295,-0.263,-0.2184,-0.1008,-0.1008,-0.0168,0.129,0.1627,0.1795,0.1795,0.1795,0.1795,0.1795,0.1795,0.1795,0.1795,0.1795,0.1795,0.1795,0.1795,0.1795,0.1795,0.0,0.0,0.0,0.0,0.0,0.0,0.0,0.0,0.0,0.0,0.0,0.0,0.0,0.0,0.0,0.0,0.0,0.0,0.0,-0.9731,-0.8739,-0.8616,-0.8727,-0.8735,-0.8616,-0.8336,-0.8336,-0.8612,-0.8336,-0.8336,-0.8612,-0.8612,-0.8612,-0.8612,-0.8616,-0.8616,-0.8612,-0.8616,-0.8616,-0.8612,-0.8612,-0.8612,-0.8629,-0.8751,-0.8812,-0.8812,-0.8812,0.0,0.0,0.0,-0.9388,-0.9424,-0.9506,-0.9015,0.0,-0.9559,-0.9653,0.0,0.0,0.0,-0.6431,-0.5133,-0.4902,-0.5019,-0.5019,-0.5104,-0.5178,-0.5182,-0.5308,-0.5345,-0.5202,-0.5314,-0.5347,-0.52,-0.5316,-0.5377,-0.5377,-0.538,-0.5382,-0.5382,-0.5382,-0.5382,0.0,-0.5382,-0.5382,-0.5382,-0.5382,-0.5382,-0.5382,-0.4311,-0.3636,-0.358,-0.358,-0.358,-0.3525,-0.4704,-0.4704,-0.3469,-0.3469,-0.2239,0.0112,0.129,0.1795,0.1795,0.1795,0.1795,0.1795,0.1795,0.1795,0.1795,0.1795,0.1795,0.1795,0.1795,0.1795,0.1795,0.0,0.0,0.0,0.0,0.0,0.0,0.0,0.0,0.0,0.0,0.0,0.0,0.0,0.0,0.0,0.0,0.0,0.0,0.0,-0.9576,-0.8978,-0.8922,-0.8857,-0.8792,-0.8735,-0.8577,-0.852,-0.8612,-0.852,-0.852,-0.8612,-0.8612,-0.8612,-0.8616,-0.8686,-0.8674,-0.8616,-0.8686,-0.867,-0.8612,-0.8612,-0.8612,-0.8629,-0.8755,-0.882,-0.8852,0.0,0.0,0.0,0.0,0.0,0.0,-0.8962,0.0,0.0,-0.9154,-0.8177,-0.6989,-0.5999,0.0,-0.5486,-0.5029,-0.5041,-0.5153,-0.5153,-0.5247,-0.5351,-0.5408,-0.5492,-0.5527,-0.5437,-0.5494,-0.5508,-0.5359,-0.5361,-0.5382,-0.5382,-0.5382,-0.5382,-0.5382,-0.5382,0.0,0.0,0.0,0.0,-0.5382,-0.5382,-0.5382,-0.5382,-0.5043,-0.4817,-0.4817,-0.4817,-0.4817,-0.4817,-0.5212,-0.4369,-0.2407,-0.0784,0.0392,0.1234,0.1627,0.1795,0.1795,0.1795,0.1795,0.1795,0.1795,0.1795,0.1795,0.1795,0.1795,0.1795,0.1795,0.1795,0.1795,0.0,0.0,0.0,0.0,0.0,0.0,0.0,0.0,0.0,0.0,0.0,0.0,0.0,0.0,0.0,0.0,0.0,0.0,0.0,0.0,-0.9161,-0.91,-0.9043,-0.895,-0.8824,-0.8714,-0.8629,-0.8612,-0.8612,-0.8612,-0.8612,-0.8612,-0.8612,-0.8616,-0.8682,-0.867,-0.8616,-0.8682,-0.8702,-0.8658,-0.8658,-0.8698,-0.8775,-0.8946,-0.9011,0.0,0.0,0.0,0.0,0.0,0.0,0.0,0.0,-0.8773,-0.8936,-0.8057,-0.7017,-0.605,-0.5747,-0.5362,-0.5028,-0.5061,-0.5204,-0.5283,-0.5283,-0.5435,-0.5539,-0.5594,-0.5678,-0.5712,-0.5622,-0.5627,-0.5538,-0.5449,-0.5402,-0.5382,-0.5382,-0.5382,-0.5382,-0.5382,-0.5382,-0.5382,0.0,0.0,0.0,-0.5382,-0.5382,-0.5382,-0.5382,-0.5382,-0.5382,-0.5382,-0.5382,-0.5382,-0.5382,-0.5382,-0.4201,-0.1791,0.0672,0.1795,0.1795,0.1795,0.1795,0.1795,0.1795,0.1795,0.1795,0.1795,0.1795,0.1795,0.1795,0.1795,0.1795,0.1795,0.1795,0.1795,0.0,0.0,0.0,0.0,0.0,0.0,0.0,0.0,0.0,0.0,0.0,0.0,0.0,0.0,0.0,0.0,0.0,0.0,0.0,0.0,0.0,-0.9133,-0.9322,-0.9245,-0.8852,-0.884,-0.8751,-0.8624,-0.8624,-0.862,-0.8612,-0.8612,-0.8612,-0.8612,-0.8612,-0.8616,-0.8624,-0.8624,-0.8678,-0.8836,-0.8836,-0.8938,-0.9116,-0.9335,0.0,0.0,0.0,0.0,0.0,0.0,0.0,0.0,0.0,-0.8101,-0.7337,-0.6491,-0.62,-0.6051,-0.5236,-0.5049,-0.5143,-0.518,-0.539,-0.552,-0.552,-0.5659,-0.5788,-0.5788,-0.5857,-0.5888,0.0,0.0,-0.5554,-0.5522,-0.5437,-0.5382,-0.5382,-0.5382,-0.5382,0.0,0.0,0.0,0.0,0.0,0.0,-0.5382,0.0,-0.5382,-0.5382,-0.5382,-0.5382,-0.5382,-0.5382,-0.5382,-0.5382,-0.5268,-0.4033,-0.1679,0.0672,0.1795,0.1795,0.1795,0.1795,0.1795,0.1795,0.1795,0.1795,0.1795,0.1795,0.1795,0.1795,0.1795,0.1795,0.1795,0.1795,0.1795,0.0,0.0,0.0,0.0,0.0,0.0,0.0,0.0,0.0,0.0,0.0,0.0,0.0,0.0,0.0,0.0,0.0,0.0,0.0,0.0,0.0,0.0,0.0,0.0,0.0,0.0,0.0,0.0,0.0,-0.869,-0.8612,-0.8612,-0.8612,0.0,-0.8612,-0.8637,-0.8755,-0.8755,-0.8861,-0.9027,0.0,-0.9056,-0.9116,0.0,0.0,0.0,0.0,0.0,0.0,0.0,0.0,0.0,0.0,-0.7278,-0.6497,-0.6313,-0.5843,-0.5296,-0.5107,-0.519,-0.5333,-0.5418,-0.5578,-0.5712,-0.5712,-0.58,-0.5882,-0.5882,-0.5902,-0.5888,0.0,0.0,0.0,-0.5522,-0.5437,0.0,-0.5382,-0.5382,0.0,-0.5382,0.0,-0.5382,-0.5382,-0.5382,0.0,0.0,-0.5382,-0.5382,-0.5382,-0.5382,-0.5382,-0.5382,-0.5382,-0.5382,-0.5382,-0.364,-0.196,-0.0448,0.1065,0.1795,0.1795,0.1795,0.1795,0.1795,0.1795,0.1795,0.1795,0.1795,0.1795,0.1795,0.1795,0.1795,0.1795,0.1795,0.1795,0.1795,0.0,0.0,0.0,0.0,0.0,0.0,0.0,0.0,0.0,0.0,0.0,0.0,0.0,0.0,0.0,0.0,0.0,0.0,0.0,0.0,0.0,0.0,0.0,0.0,0.0,0.0,0.0,0.0,0.0,0.0,0.0,-0.8649,-0.8653,-0.8678,-0.8678,-0.8775,-0.8942,0.0,0.0,0.0,0.0,0.0,0.0,0.0,0.0,0.0,0.0,0.0,0.0,0.0,0.0,-0.6981,-0.6995,-0.6432,-0.5706,-0.5758,0.0,-0.5059,-0.5192,-0.5359,-0.5518,-0.5606,-0.5735,-0.5841,-0.5841,-0.588,-0.5916,-0.5916,-0.5916,0.0,-0.5849,-0.5765,0.0,0.0,0.0,0.0,-0.5443,-0.5471,-0.5482,0.0,-0.5437,0.0,-0.5386,-0.5382,-0.5382,0.0,-0.5382,-0.5382,-0.5382,-0.5382,-0.5382,-0.5382,-0.5382,-0.5156,-0.4592,-0.2743,-0.1176,0.0,0.1234,0.1795,0.1795,0.1908,0.1907,0.1795,0.0,0.1907,0.1795,0.1795,0.1851,0.1964,0.1964,0.2076,0.2188,0.202,0.2076,0.2188,0.0,0.0,0.0,0.0,0.0,0.0,0.0,0.0,0.0,0.0,0.0,0.0,0.0,0.0,0.0,0.0,0.0,0.0,0.0,0.0,0.0,0.0,0.0,0.0,0.0,0.0,0.0,0.0,0.0,0.0,0.0,0.0,0.0,0.0,0.0,0.0,0.0,0.0,0.0,0.0,0.0,0.0,0.0,0.0,0.0,0.0,0.0,0.0,0.0,0.0,-0.6939,-0.6251,-0.6141,-0.5645,-0.5124,-0.5112,-0.5124,-0.5184,-0.5367,-0.5537,-0.5684,-0.5776,-0.5859,-0.5916,-0.5916,-0.5916,-0.5916,-0.5916,0.0,-0.5916,-0.5916,-0.5843,-0.5755,-0.5617,0.0,-0.5558,-0.5537,-0.5536,-0.5556,-0.5535,-0.5524,-0.5496,-0.5424,-0.5406,-0.5398,-0.5398,-0.5388,-0.5382,-0.5382,-0.5382,-0.5382,-0.5382,-0.5326,-0.4704,-0.3469,-0.2239,-0.1008,0.0112,0.1346,0.1907,0.1851,0.2132,0.2132,0.1851,0.2132,0.2132,0.1851,0.1907,0.2076,0.2244,0.2244,0.2469,0.2637,0.2356,0.2469,0.2637,0.0,0.0,0.0,0.0,0.0,0.0,0.0,0.0,0.0,0.0,-1.6301,-1.6396,0.0,0.0,0.0,0.0,0.0,0.0,0.0,0.0,0.0,0.0,0.0,0.0,0.0,0.0,0.0,0.0,0.0,0.0,0.0,0.0,0.0,0.0,0.0,0.0,0.0,0.0,0.0,0.0,0.0,0.0,0.0,0.0,0.0,0.0,0.0,0.0,0.0,0.0,-0.6688,-0.5389,-0.5348,-0.5266,-0.5152,-0.513,-0.5216,-0.5373,-0.5551,-0.5676,-0.578,-0.5872,-0.5906,-0.5916,-0.5916,-0.5916,0.0,0.0,-0.5916,-0.5916,-0.5916,-0.5843,-0.5776,-0.5759,-0.5694,-0.558,-0.5564,0.0,-0.5578,0.0,0.0,0.0,0.0,-0.5529,0.0,0.0,-0.542,-0.5382,-0.5382,-0.5382,-0.5382,-0.5382,-0.4929,-0.4088,-0.2856,-0.1399,-0.0168,0.0785,0.1964,0.2413,0.2132,0.2469,0.2413,0.2132,0.2469,0.0,0.2132,0.2413,0.2581,0.2637,0.2637,0.2637,0.2693,0.2637,0.2637,0.2693,0.0,0.0,0.0,0.0,0.0,0.0,0.0,-1.6418,-1.6668,-1.6668,-1.6762,-1.6865,-1.6903,-1.7004,-1.6453,0.0,0.0,0.0,0.0,0.0,0.0,0.0,0.0,0.0,0.0,0.0,0.0,0.0,0.0,0.0,0.0,0.0,0.0,0.0,0.0,0.0,0.0,0.0,0.0,0.0,0.0,0.0,0.0,0.0,0.0,0.0,0.0,0.0,0.0,0.0,-0.6691,-0.53,-0.5208,-0.5154,-0.519,-0.5249,-0.5343,-0.5486,-0.5665,-0.5782,-0.5863,-0.5906,-0.5916,-0.5916,-0.5916,0.0,0.0,0.0,-0.5916,-0.5916,-0.5916,-0.5882,0.0,-0.5788,-0.5784,-0.5769,0.0,0.0,0.0,0.0,0.0,0.0,0.0,-0.5546,-0.558,-0.558,-0.5496,-0.5429,-0.5384,-0.5382,-0.5268,-0.4931,-0.4648,-0.3752,-0.2242,-0.1513,-0.0392,0.1121,0.1683,0.2132,0.2469,0.2747,0.2748,0.2469,0.2803,0.0,0.2469,0.2637,0.2806,0.2915,0.2915,0.3029,0.3141,0.2973,0.3029,0.3141,0.0,0.0,0.0,0.0,0.0,0.0,0.0,-1.6793,-1.7005,-1.7005,-1.7172,-1.723,-1.7027,-1.7179,-1.6716,0.0,0.0,0.0,0.0,0.0,0.0,0.0,0.0,0.0,0.0,0.0,0.0,0.0,0.0,0.0,0.0,0.0,0.0,0.0,0.0,0.0,0.0,0.0,0.0,0.0,0.0,0.0,0.0,0.0,0.0,0.0,0.0,0.0,0.0,0.0,-0.6748,-0.5369,-0.5296,-0.5231,-0.5259,-0.5388,-0.5484,-0.5602,-0.5765,-0.5863,-0.5916,-0.5916,-0.5916,-0.5916,-0.5916,-0.5916,0.0,0.0,-0.5916,-0.5916,-0.5916,-0.5916,-0.5894,0.0,-0.587,-0.5892,0.0,0.0,0.0,0.0,0.0,0.0,0.0,-0.5625,0.0,-0.5615,-0.5454,-0.5299,-0.5216,-0.5212,-0.4931,-0.4313,-0.4201,-0.3418,-0.202,-0.1683,-0.0729,0.0841,0.129,0.1851,0.2525,0.2971,0.3027,0.2806,0.3082,0.0,0.0,0.2862,0.3029,0.3194,0.3194,0.3362,0.3587,0.3306,0.3362,0.3587,0.0,0.0,0.0,0.0,0.0,0.0,0.0,-1.7077,-1.7235,-1.7235,-1.7264,-1.7271,-1.7289,-1.7311,-1.6716,0.0,0.0,0.0,0.0,0.0,0.0,0.0,0.0,0.0,0.0,0.0,0.0,0.0,0.0,0.0,0.0,0.0,0.0,0.0,0.0,0.0,0.0,0.0,0.0,0.0,0.0,0.0,0.0,0.0,0.0,0.0,0.0,0.0,0.0,0.0,0.0,-0.538,-0.5371,-0.542,-0.5486,-0.5494,0.0,0.0,-0.5878,-0.591,-0.5916,-0.5916,-0.5916,-0.5916,-0.5916,0.0,0.0,-0.5916,-0.5916,-0.5916,-0.5916,-0.5916,-0.5914,-0.5906,0.0,-0.5914,0.0,0.0,0.0,0.0,0.0,0.0,0.0,-0.5818,-0.5767,-0.5767,-0.5084,-0.4674,-0.4596,-0.4592,-0.4313,-0.3699,-0.3141,-0.2806,-0.2637,-0.1234,-0.0561,-0.0673,0.1232,0.2017,0.1908,0.3027,0.3362,0.3082,0.3418,0.0,0.0,0.3419,0.3531,0.3531,0.3531,0.3587,0.3587,0.3587,0.3587,0.3587,0.0,0.0,0.0,0.0,0.0,0.0,-1.7135,-1.7245,-1.7279,-1.7279,-1.7279,-1.7279,-1.7279,-1.7279,-1.6716,-1.5242,0.0,0.0,0.0,0.0,0.0,0.0,0.0,0.0,0.0,0.0,0.0,0.0,0.0,0.0,0.0,0.0,0.0,0.0,0.0,0.0,0.0,0.0,0.0,0.0,0.0,0.0,0.0,0.0,0.0,0.0,0.0,0.0,0.0,0.0,0.0,0.0,-0.5382,-0.5478,0.0,0.0,-0.5682,-0.58,-0.5892,-0.5916,-0.5916,-0.5916,-0.5916,-0.5916,-0.5916,0.0,-0.5916,-0.5916,-0.5916,-0.5916,-0.5916,-0.5916,-0.5916,-0.5916,0.0,0.0,-0.5916,0.0,0.0,0.0,0.0,0.0,0.0,0.0,-0.5657,-0.5245,-0.4899,-0.434,-0.3471,-0.3774,-0.3699,-0.3085,-0.2806,-0.2525,-0.2188,-0.157,-0.1009,-0.0617,0.0224,0.1121,0.2073,0.252,0.2969,0.3418,0.3531,0.0,0.0,0.3531,0.3587,0.3587,0.3587,0.3609,0.3642,0.3642,0.3665,0.3696,0.0,0.0,0.0,0.0,0.0,-1.7279,-1.7279,-1.7279,-1.7279,-1.7279,-1.7279,-1.7279,-1.7279,-1.7091,-1.6473,-1.5194,-1.5099,0.0,0.0,0.0,0.0,0.0,0.0,0.0,0.0,0.0,0.0,-1.085,0.0,0.0,0.0,0.0,0.0,0.0,0.0,0.0,0.0,0.0,0.0,0.0,0.0,0.0,0.0,0.0,0.0,0.0,0.0,0.0,0.0,0.0,0.0,0.0,0.0,0.0,0.0,0.0,-0.5729,-0.5835,-0.59,-0.5916,-0.5916,-0.5916,-0.5916,-0.5916,0.0,0.0,-0.5916,-0.5916,-0.5916,-0.5916,-0.5916,-0.5916,-0.5916,0.0,0.0,-0.5916,-0.5916,-0.5916,0.0,0.0,0.0,-0.5916,0.0,-0.5916,-0.5584,-0.4857,-0.4662,-0.4001,-0.2837,-0.2963,-0.2875,-0.2469,-0.2413,-0.2244,-0.1795,-0.1795,-0.1458,-0.0785,-0.0561,0.0392,0.1849,0.2083,0.2765,0.3616,0.3634,0.0,0.0,0.3642,0.3642,0.3642,0.3642,0.3668,0.3704,0.3704,0.3732,0.3829,0.0,0.0,0.0,0.0,0.0,0.0,-1.7279,-1.7279,-1.7279,-1.7279,-1.7279,-1.7279,-1.7279,-1.6669,-1.5906,-1.5146,-1.5099,0.0,0.0,0.0,0.0,0.0,0.0,0.0,0.0,0.0,0.0,-1.1975,-1.1975,-1.1731,0.0,0.0,0.0,0.0,0.0,0.0,0.0,0.0,0.0,0.0,0.0,0.0,0.0,0.0,0.0,0.0,0.0,0.0,0.0,0.0,0.0,0.0,0.0,0.0,0.0,0.0,-0.5714,-0.5916,-0.5916,-0.5916,-0.5916,-0.5916,-0.5916,-0.5916,0.0,0.0,-0.5916,-0.5916,-0.5916,-0.5916,-0.5916,-0.5916,-0.5916,-0.5916,-0.5916,0.0,-0.5916,-0.5916,0.0,0.0,0.0,-0.5916,-0.5916,-0.5916,-0.5607,-0.4925,-0.431,0.0,-0.2944,-0.2203,-0.1826,-0.1796,-0.1795,-0.1795,-0.1795,-0.1795,-0.1795,-0.1795,-0.0841,0.0056,0.0954,0.188,0.2813,0.368,0.0,0.0,0.0,0.3826,0.3826,0.3826,0.3826,0.3827,0.3827,0.3827,0.3827,0.3829,0.0,0.0,0.0,0.0,0.0,0.0,0.0,-1.7279,-1.7279,-1.7279,-1.7279,-1.7279,-1.7279,-1.6615,-1.5906,-1.5146,-1.4621,0.0,0.0,0.0,0.0,0.0,0.0,0.0,0.0,0.0,-1.2521,-1.198,-1.198,-1.1736,-1.1194,-1.1194,0.0,0.0,0.0,0.0,0.0,0.0,0.0,0.0,0.0,0.0,0.0,0.0,0.0,0.0,0.0,0.0,0.0,0.0,0.0,0.0,0.0,0.0,0.0,0.0,0.0,0.0,-0.5916,-0.5916,-0.5916,-0.5916,-0.5916,-0.5916,-0.5916,0.0,-0.5916,-0.5916,-0.5916,-0.5916,-0.5916,-0.5916,-0.5916,-0.5916,-0.5916,0.0,0.0,0.0,0.0,-0.5916,-0.5916,-0.5916,0.0,0.0,-0.5423,-0.4312,-0.4008,-0.341,-0.2299,-0.1973,-0.1826,-0.1796,-0.1795,-0.1795,-0.1795,-0.1795,-0.1795,-0.1795,-0.0851,0.0057,0.1026,0.1913,0.2862,0.0,0.0,0.0,0.0,0.3829,0.3829,0.3829,0.3829,0.3854,0.3891,0.3891,0.3858,0.3894,0.0,0.0,0.0,0.0,0.0,0.0,0.0,-1.7279,-1.7279,-1.7279,-1.7044,-1.6904,-1.6904,-1.5954,-1.5146,-1.4669,-1.3908,0.0,0.0,0.0,0.0,0.0,0.0,0.0,0.0,-1.2813,-1.2613,-1.2322,-1.2322,-1.2127,-1.1785,-1.1785,-1.1389,-1.0703,0.0,0.0,0.0,0.0,0.0,0.0,0.0,0.0,-0.9846,0.0,0.0,0.0,0.0,0.0,0.0,0.0,0.0,0.0,0.0,0.0,0.0,0.0,-0.5714,0.0,0.0,-0.5916,-0.5916,-0.5916,-0.5916,0.0,0.0,0.0,-0.5916,-0.5916,-0.5916,-0.5916,-0.5916,-0.5916,-0.5916,-0.5916,-0.5916,-0.5916,0.0,0.0,0.0,-0.5916,0.0,0.0,0.0,-0.5669,-0.5053,-0.4004,-0.3665,-0.3071,-0.1947,-0.1868,-0.1838,-0.1796,-0.1795,-0.1795,-0.1795,-0.1806,-0.1812,-0.1812,-0.1209,-0.029,0.0985,0.159,0.2613,0.0,0.0,0.0,0.0,0.3838,0.3838,0.3838,0.3838,0.3861,0.3894,0.3894,0.3918,0.3889,0.0,0.0,0.0,0.0,0.0,0.0,0.0,-1.7279,-1.7279,-1.7232,-1.6622,-1.619,-1.6143,-1.4806,-1.3902,-1.3902,0.0,0.0,0.0,0.0,0.0,0.0,0.0,0.0,0.0,-1.2813,-1.2813,-1.2813,-1.2813,-1.2813,-1.2813,-1.2813,-1.2273,-1.1247,-1.1247,0.0,0.0,0.0,0.0,0.0,0.0,0.0,0.0,0.0,0.0,0.0,0.0,0.0,0.0,0.0,0.0,0.0,0.0,0.0,0.0,0.0,0.0,0.0,0.0,-0.5916,0.0,0.0,0.0,0.0,0.0,0.0,0.0,-0.5916,-0.5916,-0.5916,-0.5916,-0.5916,-0.5916,-0.5916,-0.5916,-0.5916,0.0,-0.5916,0.0,0.0,-0.5916,0.0,-0.5916,-0.5297,-0.4619,-0.3943,-0.333,-0.2679,-0.1948,-0.1886,-0.1859,-0.18,-0.1798,-0.1798,-0.1798,-0.1828,-0.1786,-0.1786,-0.1815,-0.0885,0.0825,0.1018,0.2112,0.0,0.0,0.0,0.0,0.3889,0.3889,0.3889,0.3889,0.3889,0.3889,0.3889,0.3889,0.3889,0.0,0.0,0.0,0.0,0.0,0.0,0.0,0.0,0.0,0.0,-1.6332,-1.6001,-1.5432,-1.4478,-1.3902,0.0,0.0,0.0,0.0,0.0,0.0,0.0,0.0,0.0,0.0,-1.2813,-1.2813,-1.2813,-1.2813,-1.2813,-1.2813,-1.2813,-1.2467,-1.1834,-1.1834,0.0,0.0,0.0,0.0,0.0,0.0,0.0,0.0,0.0,0.0,0.0,-0.6932,-0.6161,0.0,0.0,0.0,0.0,0.0,0.0,0.0,0.0,-0.5725,-0.5829,-0.5898,0.0,-0.5916,-0.5916,-0.5916,-0.5916,0.0,0.0,0.0,0.0,0.0,0.0,0.0,-0.5916,-0.5916,-0.5916,-0.5916,-0.5916,-0.5916,0.0,0.0,-0.5916,-0.5916,-0.5916,-0.5916,-0.5297,-0.4619,-0.3943,-0.333,-0.2679,-0.1948,-0.1886,-0.1868,-0.1774,-0.1772,-0.1772,-0.1772,-0.186,-0.1875,-0.1875,-0.1131,-0.0539,-0.012,0.1461,0.2392,0.0,0.0,0.0,0.3889,0.3889,0.3889,0.3889,0.3889,0.3889,0.3889,0.3889,0.3889,0.3889,0.0,0.0,0.0,0.0,0.0,0.0,0.0,0.0,0.0,0.0,0.0,0.0,0.0,0.0,0.0,0.0,0.0,0.0,0.0,0.0,0.0,0.0,0.0,0.0,-1.2813,-1.2813,-1.2813,-1.2813,-1.2813,-1.2813,-1.2813,-1.2813,-1.2516,-1.198,-1.1487,0.0,0.0,0.0,0.0,0.0,-1.0481,0.0,0.0,0.0,0.0,0.0,-0.6879,-0.6161,0.0,-0.5382,-0.5382,-0.5382,0.0,0.0,0.0,0.0,-0.5708,-0.58,-0.5892,-0.5916,-0.5916,-0.5916,-0.5916,-0.5916,-0.5916,0.0,0.0,0.0,0.0,0.0,0.0,0.0,-0.5916,-0.5916,-0.5916,0.0,0.0,0.0,-0.5794,-0.5483,-0.5421,-0.5298,0.0,-0.4375,-0.3883,-0.3513,-0.29,-0.2376,-0.1948,-0.1899,-0.1886,-0.1784,-0.1809,-0.1875,-0.1862,-0.1892,-0.1907,-0.1907,-0.1391,-0.0914,-0.0426,0.1105,0.2035,0.0,0.0,0.0,0.3889,0.3889,0.3889,0.3889,0.3889,0.3889,0.3889,0.3889,0.3889,0.3889,0.0,0.0,0.0,0.0,0.0,0.0,0.0,0.0,0.0,0.0,0.0,0.0,0.0,0.0,0.0,0.0,0.0,0.0,0.0,0.0,0.0,0.0,0.0,-1.2813,-1.2813,-1.2813,-1.2813,-1.2813,-1.2813,-1.2813,-1.2813,-1.2813,-1.2586,-1.2124,-1.1044,0.0,0.0,0.0,0.0,0.0,-1.0623,0.0,0.0,0.0,0.0,0.0,0.0,0.0,0.0,-0.5382,-0.5382,-0.5382,-0.5382,0.0,0.0,0.0,0.0,0.0,-0.5872,-0.5906,-0.5916,-0.5916,-0.5916,-0.5916,-0.5916,0.0,0.0,0.0,0.0,0.0,0.0,-0.5916,0.0,0.0,0.0,0.0,-0.5732,-0.5671,-0.5362,-0.4803,-0.4742,0.0,-0.3943,-0.333,-0.3023,-0.3023,-0.2407,-0.1952,-0.1896,-0.1917,-0.1848,-0.1797,-0.1845,-0.1921,-0.19,-0.1925,-0.1938,-0.1939,-0.1964,-0.1543,-0.0678,0.0493,0.148,0.2343,0.0,0.0,0.3889,0.3889,0.3889,0.3889,0.3889,0.3889,0.3889,0.3889,0.3889,0.3889,0.0,0.0,0.0,0.0,0.0,0.0,0.0,0.0,0.0,0.0,0.0,0.0,0.0,0.0,0.0,0.0,0.0,0.0,0.0,0.0,0.0,0.0,-1.2813,-1.2813,-1.2813,-1.2813,-1.2813,-1.2813,-1.2813,-1.2813,-1.2813,-1.2813,-1.2867,-1.2901,-1.1814,-1.1429,-1.1578,0.0,0.0,0.0,0.0,0.0,0.0,0.0,0.0,0.0,0.0,0.0,0.0,-0.5382,-0.5382,-0.5382,-0.5382,0.0,0.0,0.0,0.0,0.0,-0.5776,-0.5859,-0.5916,-0.5916,-0.5916,-0.5916,-0.5916,0.0,0.0,0.0,0.0,0.0,0.0,-0.5916,-0.5916,0.0,0.0,-0.5049,0.0,0.0,-0.419,-0.4066,0.0,-0.4004,-0.3883,-0.333,-0.3023,-0.3023,-0.2407,-0.1961,-0.1926,-0.1928,-0.1867,-0.1858,-0.1866,-0.1941,-0.1962,-0.1967,-0.1969,-0.1969,-0.1975,-0.1914,-0.1729,0.0123,0.1109,0.1356,0.0,0.3889,0.3889,0.3889,0.3889,0.3889,0.3889,0.3889,0.3889,0.3889,0.3889,0.3889,0.0,0.0,0.0,0.0,0.0,0.0,0.0,0.0,0.0,0.0,0.0,0.0,0.0,0.0,0.0,0.0,0.0,0.0,0.0,0.0,0.0,-1.2813,-1.2813,-1.2813,-1.2813,-1.2813,-1.2813,-1.2813,-1.2813,-1.2813,-1.2813,-1.2888,-1.3007,-1.3059,-1.2081,-1.1794,-1.1878,0.0,0.0,0.0,0.0,0.0,0.0,0.0,0.0,0.0,0.0,0.0,0.0,0.0,-0.5382,-0.5382,-0.5382,0.0,0.0,0.0,0.0,0.0,-0.5755,-0.5847,-0.5916,-0.5916,-0.5916,-0.5904,-0.5855,0.0,0.0,0.0,0.0,0.0,0.0,0.0,-0.5794,-0.5421,0.0,-0.4802,-0.4435,-0.4066,-0.376,0.0,0.0,-0.3268,-0.29,-0.2592,-0.2469,-0.2469,-0.2161,-0.1963,-0.1933,-0.1947,-0.1948,-0.1871,-0.1947,-0.1962,-0.1977,-0.1977,-0.1977,-0.1977,-0.1977,-0.1977,-0.1977,-0.0493,0.0493,0.1109,0.0,0.3455,0.3889,0.3889,0.3889,0.3889,0.3889,0.3889,0.3889,0.3889,0.3889,0.3889,0.0,0.0,0.0,0.0,0.0,0.0,0.0,0.0,0.0,0.0,0.0,0.0,0.0,0.0,0.0,0.0,0.0,0.0,0.0,0.0,-1.2813,-1.2813,-1.2813,-1.2813,-1.2813,-1.2813,-1.2813,-1.2813,-1.2867,-1.2921,-1.2986,-1.3109,-1.3217,-1.3231,-1.2277,-1.2002,-1.2089,-1.0973,-1.057,0.0,0.0,0.0,0.0,0.0,0.0,0.0,0.0,0.0,0.0,0.0,0.0,0.0,0.0,0.0,0.0,-0.5459,-0.5557,-0.56,-0.5729,-0.5831,-0.5916,-0.5916,-0.5902,-0.5867,-0.5796,0.0,0.0,0.0,0.0,0.0,0.0,-0.5794,0.0,-0.4988,-0.4681,-0.425,-0.376,-0.3575,-0.3268,-0.2838,-0.2776,-0.2592,-0.2038,-0.1977,-0.1977,-0.1977,-0.1977,-0.1967,-0.1943,-0.1964,-0.1966,-0.1943,-0.1964,-0.1977,-0.1977,-0.1977,-0.1977,-0.1977,-0.1977,-0.1977,-0.1977,-0.0987,0.0062,0.1048,0.2035,0.3023,0.3889,0.3889,0.3889,0.3889,0.3889,0.3889,0.3889,0.3889,0.3889,0.3889,0.0,0.0,0.0,0.0,0.0,0.0,0.0,0.0,0.0,0.0,0.0,0.0,0.0,0.0,0.0,0.0,0.0,0.0,0.0,0.0,-1.2813,-1.2813,-1.2813,-1.2813,-1.2813,-1.2813,-1.2813,-1.2813,-1.2974,-1.32,-1.3427,-1.3443,-1.3561,-1.3713,-1.2567,-1.2214,-1.2304,-1.1164,-1.068,-1.0692,0.0,0.0,0.0,0.0,0.0,0.0,0.0,0.0,0.0,0.0,0.0,0.0,0.0,0.0,-0.5382,-0.539,-0.551,-0.5586,-0.5592,-0.5782,-0.5916,-0.5916,-0.5853,0.0,-0.5782,-0.5714,0.0,-0.5763,0.0,0.0,0.0,-0.5421,-0.4926,-0.4925,-0.3883,-0.3146,-0.3085,0.0,-0.2099,-0.2099,-0.2099,-0.2038,-0.1977,-0.1977,-0.1977,-0.1977,-0.1977,-0.1975,-0.1973,-0.1975,-0.1975,-0.1973,-0.1975,-0.1977,-0.1977,-0.1977,-0.1977,-0.1977,-0.1977,-0.1977,-0.1977,-0.0987,0.0062,0.1048,0.2035,0.3023,0.3889,0.3889,0.3889,0.3889,0.3889,0.3889,0.3889,0.3889,0.3889,0.3889,0.0,0.0,0.0,0.0,0.0,0.0,0.0,0.0,0.0,0.0,0.0,0.0,0.0,0.0,0.0,0.0,0.0,0.0,0.0,0.0,-1.2974,-1.2974,-1.3125,-1.3256,-1.3256,-1.3055,-1.305,-1.3256,-1.3297,-1.3389,-1.348,-1.3626,-1.3739,-1.3772,-1.3118,-1.2906,-1.2876,-1.1732,-1.124,-1.124,-1.0857,0.0,0.0,0.0,0.0,0.0,0.0,0.0,0.0,0.0,-0.5382,-0.5382,-0.5382,-0.5382,-0.5382,-0.5382,-0.5506,-0.5584,-0.5584,-0.5718,-0.5904,-0.5847,-0.5763,0.0,0.0,-0.5611,-0.5594,-0.5688,-0.5741,0.0,0.0,0.0,-0.425,-0.425,-0.3575,-0.2838,-0.2408,-0.2161,-0.1977,-0.1977,-0.1977,-0.1977,-0.1977,-0.1977,-0.1977,-0.1977,-0.1977,-0.1977,-0.1977,-0.1977,-0.1977,-0.1977,-0.1977,-0.1977,-0.1977,-0.1977,-0.1977,-0.1977,-0.1977,-0.1977,-0.1977,-0.1605,-0.0863,0.0123,0.1109,0.2097,0.3085,0.3642,0.3889,0.3889,0.3889,0.3889,0.3889,0.3889,0.3889,0.3889,0.0,0.0,0.0,0.0,0.0,0.0,0.0,0.0,0.0,0.0,0.0,0.0,0.0,0.0,0.0,0.0,0.0,0.0,0.0,-1.3093,-1.3222,-1.3222,-1.3389,-1.3513,-1.3583,-1.3416,-1.3378,-1.348,-1.355,-1.3626,-1.3706,-1.3863,-1.3938,-1.389,-1.3514,-1.3315,-1.3207,-1.206,-1.1623,-1.1568,-1.0966,-1.0692,0.0,0.0,0.0,0.0,0.0,0.0,0.0,0.0,-0.5382,-0.5382,-0.5382,-0.5382,-0.5388,-0.5412,-0.5527,-0.559,-0.568,-0.58,-0.5835,-0.5563,0.0,0.0,-0.5064,-0.5154,-0.5208,-0.5083,-0.51,0.0,0.0,0.0,0.0,0.0,-0.3085,-0.2531,-0.2038,-0.1977,-0.1977,-0.1977,-0.1977,-0.1977,-0.1977,-0.1977,-0.1977,-0.1977,-0.1977,-0.1977,-0.1977,-0.1977,-0.1977,-0.1977,-0.1977,-0.1977,-0.1977,-0.1977,-0.1977,-0.1977,-0.1977,-0.1977,-0.1977,-0.1977,-0.1481,-0.0431,0.0555,0.1541,0.259,0.3517,0.3889,0.3889,0.3889,0.3889,0.3889,0.3889,0.3889,0.3889,0.0,0.0,0.0,0.0,0.0,0.0,0.0,0.0,0.0,0.0,0.0,0.0,0.0,0.0,0.0,0.0,0.0,0.0,-1.3109,-1.334,-1.348,-1.348,-1.3486,-1.3593,-1.382,-1.382,-1.3712,-1.3486,-1.3712,-1.3949,-1.4196,-1.4196,-1.4196,-1.4196,-1.3591,-1.3315,-1.3207,-1.2114,-1.1623,-1.1568,-1.0966,-1.0692,-1.0692,0.0,0.0,0.0,0.0,0.0,0.0,0.0,-0.5382,-0.5382,-0.5382,-0.5382,-0.5398,-0.5482,-0.5571,-0.5605,-0.5755,-0.5847,-0.571,0.0,0.0,0.0,-0.3959,-0.4128,0.0,0.0,0.0,-0.3883,-0.3883,0.0,0.0,-0.3023,-0.2408,-0.1977,-0.1977,-0.1977,-0.1977,-0.1977,-0.1977,-0.1977,-0.1977,-0.1977,-0.1977,-0.1977,-0.1977,-0.1977,-0.1977,-0.1977,-0.1977,-0.1977,-0.1977,-0.1977,-0.1977,-0.1977,-0.1977,-0.1977,-0.1977,-0.1977,-0.1977,-0.1977,-0.1481,-0.0431,0.0555,0.1541,0.2529,0.3517,0.3889,0.3889,0.3889,0.3889,0.3889,0.3889,0.3889,0.3889,0.0,0.0,0.0,0.0,0.0,0.0,0.0,0.0,0.0,0.0,0.0,0.0,0.0,0.0,0.0,0.0,0.0,0.0,0.0,-1.3588,-1.3717,-1.3717,-1.389,-1.4013,-1.4083,-1.4083,-1.4051,-1.3981,-1.4051,-1.4121,-1.4196,-1.4196,-1.4196,-1.4191,-1.4029,-1.3921,-1.3867,-1.3098,-1.255,-1.2114,-1.1568,-1.1076,-1.0692,0.0,0.0,0.0,0.0,0.0,0.0,0.0,0.0,0.0,-0.5382,-0.5382,-0.5398,-0.5482,-0.5571,-0.5546,-0.5158,-0.5176,0.0,-0.4297,0.0,0.0,0.0,-0.3547,0.0,0.0,0.0,-0.3391,-0.3821,0.0,0.0,-0.29,-0.2408,-0.1977,-0.1977,-0.1977,-0.1977,-0.1977,-0.1977,-0.1977,-0.1977,-0.1977,-0.1977,-0.1977,-0.1977,-0.1977,-0.1977,-0.1977,-0.1977,-0.1977,-0.1977,-0.1977,-0.1977,-0.1977,-0.1977,-0.1977,-0.1977,-0.1977,-0.1977,-0.1977,-0.1853,-0.1481,0.0247,0.1171,0.1603,0.3208,0.3889,0.3889,0.3889,0.3889,0.3889,0.3889,0.3889,0.3889,0.0,0.0,0.0,0.0,0.0,0.0,0.0,0.0,0.0,0.0,0.0,0.0,0.0,0.0,0.0,0.0,0.0,0.0,0.0,0.0,-1.397,-1.397,-1.4116,-1.4196,-1.4196,-1.4196,-1.4196,-1.4196,-1.4196,-1.4196,-1.4196,-1.4196,-1.4196,-1.4196,-1.4196,-1.4196,-1.4142,-1.3537,-1.3098,-1.2713,-1.1896,-1.1404,-1.1021,0.0,0.0,0.0,0.0,0.0,0.0,0.0,0.0,0.0,-0.5382,-0.5382,-0.535,-0.524,-0.5195,-0.5141,-0.4593,-0.4467,0.0,-0.3648,-0.3487,-0.3336,-0.2645,0.0,0.0,0.0,0.0,-0.2716,-0.3085,-0.2531,0.0,-0.2531,-0.2285,-0.1977,-0.1977,-0.1977,-0.1977,-0.1977,-0.1977,-0.1977,-0.1977,-0.1977,-0.1977,-0.1977,-0.1977,-0.1977,-0.1977,-0.1977,-0.1977,-0.1977,-0.1977,-0.1977,-0.1977,-0.1977,-0.1977,-0.1977,-0.1977,-0.1977,-0.1977,-0.1977,-0.1977,-0.1915,0.0123,0.1418,0.222,0.3394,0.3889,0.3889,0.3889,0.3889,0.3889,0.3889,0.3889,0.3889,0.0,0.0,0.0,0.0,0.0,0.0,0.0,0.0,0.0,0.0,0.0,0.0,0.0,0.0,0.0,0.0,0.0,0.0,0.0,0.0,-1.4196,-1.4196,-1.4196,-1.4196,-1.4196,-1.4196,-1.4196,-1.4196,-1.4196,-1.4196,-1.4196,-1.4196,-1.4196,-1.4196,-1.4196,-1.4196,-1.4142,-1.3591,-1.3369,-1.3207,-1.2169,-1.1678,-1.1514,-1.0966,0.0,0.0,0.0,0.0,0.0,0.0,0.0,0.0,-0.5382,-0.5382,-0.5304,-0.4839,-0.4707,-0.4562,-0.3973,-0.3821,0.0,-0.2964,-0.2864,0.0,-0.216,-0.1977,-0.1977,-0.1977,0.0,-0.1977,-0.1977,-0.1977,-0.1977,-0.1977,-0.1977,-0.1977,-0.1977,-0.1979,-0.1979,-0.1977,-0.1979,-0.1979,-0.1977,-0.1977,-0.1977,-0.1977,-0.1977,-0.1977,-0.1977,-0.1977,-0.1977,-0.1977,-0.1977,-0.1977,-0.1977,-0.1977,-0.1977,-0.1977,-0.1977,-0.1977,-0.1977,-0.1977,-0.1915,-0.1606,0.0308,0.2158,0.3889,0.3889,0.3889,0.3889,0.3889,0.3889,0.3889,0.3889,0.3889,0.3889,0.0,0.0,0.0,0.0,0.0,0.0,0.0,0.0,0.0,0.0,0.0,0.0,0.0,0.0,0.0,0.0,0.0,0.0,0.0,0.0,-1.4196,-1.4196,-1.4196,-1.4196,-1.4196,-1.4196,-1.4196,-1.4196,-1.4196,-1.4196,-1.4196,-1.4196,-1.4196,-1.4196,0.0,-1.4196,-1.4191,-1.4083,-1.3753,-1.3261,-1.3044,-1.2387,-1.1568,-1.1459,-1.1021,0.0,0.0,0.0,0.0,0.0,0.0,0.0,-0.5382,-0.5382,-0.5304,-0.4839,-0.4707,-0.4503,-0.3486,-0.3207,0.0,0.0,-0.2117,-0.2129,-0.2033,-0.1977,-0.1977,-0.1977,-0.1977,-0.1977,-0.1977,-0.1977,-0.1977,-0.1977,-0.1977,-0.1977,-0.1977,-0.1995,-0.2001,-0.1979,-0.1996,-0.2001,-0.1979,-0.1977,-0.1977,-0.1977,-0.1977,0.0,-0.1977,-0.1977,-0.1977,-0.1977,-0.1977,-0.1977,-0.1977,-0.1977,-0.1977,0.0,-0.1977,-0.1977,-0.1977,-0.1977,-0.1111,0.0432,0.1665,0.2837,0.3889,0.3889,0.3889,0.3889,0.3889,0.3889,0.3889,0.3889,0.3889,0.3889,0.0,0.0,0.0,0.0,0.0,0.0,0.0,0.0,0.0,0.0,0.0,0.0,0.0,0.0,0.0,0.0,0.0,0.0,0.0,0.0,0.0,-1.4196,-1.4196,-1.4196,-1.4196,-1.4196,-1.4196,-1.4196,-1.4196,0.0,0.0,0.0,0.0,-1.4196,0.0,-1.4196,-1.4196,-1.4196,-1.4029,-1.3699,-1.3423,-1.293,-1.2332,-1.1787,-1.1404,-1.0907,-0.9247,0.0,0.0,0.0,0.0,0.0,0.0,0.0,-0.5248,-0.4432,-0.4239,-0.3972,-0.2815,0.0,0.0,-0.2018,0.0,-0.1957,-0.1973,-0.1977,-0.1977,-0.1977,-0.1977,-0.1977,-0.1977,-0.1977,-0.1977,-0.1977,-0.1977,-0.1981,-0.1994,-0.2009,-0.2018,-0.2018,-0.2018,-0.2013,-0.1998,-0.1984,-0.1977,-0.1977,0.0,-0.1977,-0.1977,-0.1977,-0.1977,-0.1977,-0.1977,-0.1977,-0.1977,-0.1977,-0.1977,-0.1977,-0.1977,-0.1977,-0.1977,-0.1977,-0.0925,0.1048,0.1541,0.259,0.3889,0.3889,0.3889,0.3889,0.3889,0.3889,0.3889,0.3889,0.3889,0.3889,0.0,0.0,0.0,0.0,0.0,0.0,0.0,0.0,0.0,0.0,0.0,0.0,0.0,0.0,0.0,0.0,0.0,0.0,0.0,0.0,0.0,0.0,-1.4196,-1.4196,-1.4196,-1.4196,0.0,0.0,0.0,0.0,0.0,0.0,0.0,-1.4196,0.0,-1.4196,-1.4196,-1.4196,-1.4196,-1.4142,-1.3645,-1.3369,-1.3207,-1.2114,-1.1678,-1.1404,-0.9911,-0.8806,-0.7864,-0.6988,0.0,0.0,0.0,0.0,-0.5187,-0.4127,-0.376,-0.3497,-0.2441,0.0,-0.1977,-0.1977,-0.1977,0.0,-0.1977,-0.1977,-0.1977,-0.1977,-0.1977,-0.1977,-0.1977,-0.1977,-0.1977,-0.1977,-0.1977,-0.1986,-0.2015,-0.2023,-0.2035,-0.2125,-0.2046,-0.203,-0.202,-0.1997,-0.1981,0.0,0.0,-0.1977,-0.1977,-0.1977,-0.1977,-0.1977,-0.1977,-0.1977,-0.1977,-0.1977,-0.1977,-0.1977,-0.1977,-0.1977,-0.1977,-0.1791,-0.074,0.1048,0.1356,0.2405,0.3889,0.3889,0.3889,0.3889,0.3889,0.3889,0.3889,0.3889,0.3889,0.3889,0.0,0.0,0.0,0.0,0.0,0.0,0.0,0.0,0.0,0.0,0.0,0.0,0.0,0.0,0.0,0.0,0.0,0.0,0.0,0.0,0.0,0.0,-1.4196,-1.4196,-1.4196,-1.4196,-1.4196,0.0,0.0,0.0,0.0,0.0,0.0,-1.4196,0.0,0.0,-1.4196,-1.4196,-1.4196,-1.4191,-1.4083,-1.3759,-1.3207,-1.255,-1.2005,-1.1404,-0.9911,-0.8806,-0.7864,-0.6988,-0.6105,0.0,0.0,0.0,-0.5288,-0.4584,-0.4075,-0.3547,-0.2889,0.0,-0.1977,0.0,-0.1977,-0.1977,0.0,0.0,-0.1977,0.0,-0.1977,-0.1977,-0.1977,-0.1977,-0.1977,-0.1977,-0.1977,-0.1986,-0.2015,-0.2041,-0.2059,-0.2128,-0.2083,-0.2076,-0.2024,-0.2015,-0.2003,0.0,-0.1977,-0.1977,-0.1977,-0.1977,-0.1977,-0.1977,-0.1977,-0.1977,-0.1977,-0.1977,-0.1977,-0.1977,-0.1977,-0.1977,-0.1977,-0.111,-0.0062,0.1109,0.2775,0.3642,0.3889,0.3889,0.3889,0.3889,0.3889,0.3889,0.3889,0.3889,0.3889,0.3889,0.0,0.0,0.0,0.0,0.0,0.0,0.0,0.0,0.0,0.0,0.0,0.0,0.0,0.0,0.0,0.0,0.0,0.0,0.0,0.0,0.0,-1.4196,-1.4196,-1.4196,-1.4196,-1.4196,-1.4196,0.0,0.0,0.0,0.0,-1.4196,-1.4196,0.0,0.0,0.0,0.0,-1.4196,-1.4196,-1.4196,-1.4196,-1.4029,0.0,0.0,0.0,0.0,0.0,0.0,-0.7207,-0.6824,-0.6105,-0.5371,-0.532,0.0,0.0,0.0,-0.4095,-0.3493,-0.261,-0.215,-0.1977,0.0,-0.1977,-0.1977,-0.1977,0.0,-0.1977,-0.1977,-0.1977,-0.1977,-0.1977,-0.1977,-0.1977,-0.1977,-0.199,-0.201,-0.2039,-0.207,-0.2095,-0.2179,-0.2111,-0.2099,-0.2072,-0.2038,0.0,0.0,-0.1986,-0.1977,-0.1977,-0.1977,-0.1977,-0.1977,-0.1977,-0.1977,-0.1977,-0.1977,-0.1977,-0.1977,-0.1977,-0.1977,-0.1977,-0.037,0.0555,0.1109,0.2529,0.3394,0.3889,0.3889,0.3889,0.3889,0.3889,0.3889,0.3889,0.3889,0.3889,0.3889,0.0,0.0,0.0,0.0,0.0,0.0,0.0,0.0,0.0,0.0,0.0,0.0,0.0,0.0,0.0,0.0,0.0,0.0,0.0,0.0,0.0,-1.4196,-1.4196,-1.4196,-1.4196,-1.4196,0.0,0.0,0.0,0.0,-1.4196,-1.4196,-1.4196,0.0,-1.4196,-1.4196,0.0,0.0,0.0,0.0,-1.4196,-1.4196,0.0,0.0,0.0,0.0,0.0,0.0,0.0,0.0,-0.6047,-0.53,-0.523,-0.5273,0.0,0.0,0.0,0.0,0.0,0.0,-0.1977,-0.1977,-0.1977,-0.1977,0.0,0.0,-0.1977,0.0,-0.1977,-0.1977,-0.1977,-0.1977,-0.1977,-0.1977,-0.2001,-0.2029,-0.206,-0.209,-0.2121,-0.2218,-0.2135,-0.2118,-0.211,-0.2068,0.0,0.0,-0.1999,-0.1984,-0.1977,-0.1977,-0.1977,-0.1977,-0.1977,-0.1977,-0.1977,-0.1977,-0.1977,-0.1977,-0.1977,-0.1853,-0.1543,0.0185,0.1109,0.1418,0.2405,0.3271,0.3889,0.3889,0.3889,0.3889,0.3889,0.3889,0.3889,0.3889,0.3889,0.3889,0.0,0.0,0.0,0.0,0.0,0.0,0.0,0.0,0.0,0.0,0.0,0.0,0.0,0.0,-1.4196,-1.4196,0.0,0.0,0.0,0.0,0.0,-1.4196,-1.4196,0.0,-1.4196,-1.4196,0.0,0.0,0.0,0.0,-1.4196,-1.4196,-1.4196,-1.4196,-1.4196,-1.4196,-1.4196,0.0,0.0,0.0,-1.4196,-1.4196,0.0,0.0,0.0,0.0,0.0,0.0,0.0,0.0,0.0,0.0,0.0,0.0,0.0,0.0,0.0,0.0,0.0,-0.2469,0.0,-0.1977,-0.1977,0.0,0.0,0.0,0.0,-0.1977,-0.1977,-0.1977,-0.1977,-0.1977,-0.1977,-0.1977,-0.2001,-0.2029,-0.206,-0.209,-0.2121,-0.2218,-0.2221,-0.2141,-0.2112,0.0,0.0,0.0,-0.2017,-0.2005,-0.1978,-0.1977,-0.1977,-0.1977,-0.1977,-0.1977,-0.1977,-0.1977,-0.1977,-0.1977,-0.1977,-0.1481,-0.0555,0.0493,0.1541,0.2467,0.3394,0.3828,0.3889,0.3889,0.3889,0.3889,0.3889,0.3889,0.3889,0.3889,0.3889,0.3889,0.0,0.0,0.0,0.0,0.0,0.0,0.0,0.0,0.0,0.0,0.0,0.0,0.0,-1.4196,-1.4196,-1.4196,-1.4196,0.0,0.0,0.0,0.0,-1.4196,-1.4196,-1.4196,-1.4196,-1.4196,0.0,0.0,0.0,-1.4196,-1.4196,-1.4196,-1.4196,-1.4196,-1.4196,-1.4196,-1.4196,-1.4196,0.0,0.0,-1.4126,-1.4013,-1.3535,0.0,0.0,0.0,0.0,0.0,0.0,0.0,0.0,0.0,0.0,0.0,0.0,0.0,0.0,0.0,0.0,0.0,0.0,-0.1977,-0.1977,-0.1977,-0.1977,-0.1977,-0.1977,-0.1977,-0.1977,-0.1977,-0.1977,-0.1977,-0.1977,-0.1977,-0.2016,-0.2051,-0.2127,-0.2107,-0.2142,-0.2221,-0.2222,-0.2218,0.0,0.0,0.0,0.0,0.0,-0.2014,-0.2004,-0.1986,-0.1977,-0.1977,-0.1977,-0.1977,-0.1977,-0.1977,-0.1977,-0.1977,-0.1358,-0.0863,-0.0431,0.1233,0.2158,0.2529,0.3517,0.3889,0.3889,0.3889,0.3889,0.3889,0.3889,0.3889,0.3889,0.3889,0.3889,0.3889,0.0,0.0,0.0,0.0,0.0,0.0,0.0,0.0,0.0,0.0,0.0,0.0,0.0,0.0,-1.4196,-1.4196,-1.4196,-1.4196,-1.4196,-1.4196,-1.4196,-1.4196,-1.4196,-1.4196,-1.4196,0.0,0.0,0.0,0.0,0.0,0.0,-1.4196,-1.4196,-1.4196,-1.4196,-1.4196,0.0,0.0,0.0,-1.383,-1.3916,-1.3809,-1.3397,0.0,0.0,0.0,0.0,0.0,0.0,0.0,0.0,0.0,0.0,0.0,0.0,0.0,0.0,0.0,-0.3744,0.0,0.0,0.0,0.0,-0.1977,-0.1977,0.0,-0.1977,-0.1977,-0.1977,-0.1977,-0.1977,-0.1977,-0.1977,-0.1977,-0.2026,-0.2128,-0.2128,-0.2183,-0.2222,-0.2222,-0.2222,-0.2222,0.0,0.0,0.0,0.0,0.0,0.0,-0.2019,-0.1992,-0.1977,-0.1977,-0.1977,-0.1977,-0.1977,-0.1977,-0.1977,-0.1977,-0.1296,-0.0678,0.0062,0.1356,0.2343,0.3023,0.3642,0.3889,0.3889,0.3889,0.3889,0.3889,0.3889,0.3889,0.3889,0.3889,0.3889,0.3889,0.0,0.0,0.0,0.0,0.0,0.0,0.0,0.0,0.0,0.0,0.0,0.0,0.0,0.0,0.0,-1.4196,-1.4196,-1.4196,-1.4196,-1.4196,-1.4196,-1.4196,0.0,0.0,0.0,0.0,0.0,0.0,0.0,0.0,0.0,0.0,-1.4207,-1.4207,-1.4213,-1.4213,-1.4186,0.0,-1.3809,-1.3782,0.0,-1.362,-1.3651,0.0,0.0,0.0,-0.8738,-0.7271,0.0,-0.5622,0.0,0.0,0.0,0.0,0.0,0.0,0.0,0.0,0.0,0.0,0.0,0.0,0.0,0.0,-0.1977,0.0,-0.1975,-0.1976,-0.1976,-0.1975,-0.1977,-0.1977,-0.1977,-0.1977,-0.2024,-0.2127,-0.2128,-0.2182,-0.2221,-0.2222,-0.2222,0.0,0.0,0.0,0.0,0.0,-0.2082,-0.2052,-0.2021,-0.1992,-0.1977,-0.1977,-0.1977,-0.1977,-0.1977,-0.1977,-0.1977,-0.1977,-0.1915,-0.0864,0.0986,0.1048,0.2097,0.3889,0.3889,0.3889,0.3889,0.3889,0.3889,0.3889,0.3889,0.3889,0.3889,0.3889,0.3889,0.3889,0.0,0.0,0.0,0.0,0.0,0.0,0.0,0.0,0.0,0.0,0.0,0.0,0.0,0.0,-1.4196,-1.4196,-1.4196,-1.4196,-1.4196,-1.4196,-1.4196,-1.4196,-1.4196,-1.4196,-1.4196,0.0,0.0,0.0,0.0,0.0,0.0,0.0,0.0,0.0,-1.4616,-1.46,-1.4412,-1.3997,0.0,-1.333,-1.361,-1.3663,0.0,0.0,0.0,0.0,0.0,-0.8167,-0.7427,0.0,-0.5679,-0.5392,0.0,0.0,0.0,0.0,0.0,0.0,-0.492,0.0,0.0,0.0,0.0,0.0,0.0,0.0,-0.195,-0.1972,-0.1959,-0.195,-0.1973,-0.1977,-0.1977,-0.1977,-0.2007,-0.2039,-0.2125,-0.2097,-0.213,-0.2219,-0.2222,0.0,0.0,0.0,0.0,0.0,-0.2114,-0.2083,-0.2053,-0.2004,-0.1977,-0.1977,-0.1977,-0.1977,-0.1977,-0.1977,-0.1977,-0.1977,-0.0555,0.0432,0.1048,0.2467,0.3394,0.3889,0.3889,0.3889,0.3889,0.3889,0.3889,0.3889,0.3889,0.3889,0.3889,0.3889,0.3889,0.3889,0.0,0.0,0.0,0.0,0.0,0.0,0.0,0.0,0.0,0.0,0.0,0.0,0.0,0.0,0.0,-1.4196,-1.4196,-1.4196,-1.4196,-1.4196,-1.4196,-1.4196,-1.4196,-1.4196,-1.4196,0.0,0.0,0.0,0.0,0.0,0.0,0.0,0.0,0.0,0.0,0.0,0.0,0.0,0.0,0.0,-1.375,0.0,0.0,-1.3508,-1.3166,0.0,0.0,0.0,-0.8372,-0.6596,-0.5823,0.0,0.0,0.0,0.0,0.0,0.0,0.0,0.0,0.0,0.0,0.0,0.0,0.0,-0.2531,-0.2146,-0.1952,0.0,-0.1954,-0.1952,-0.1956,-0.1968,-0.1977,-0.1977,-0.199,-0.2011,-0.2041,-0.2082,-0.2116,-0.2133,0.0,0.0,0.0,-0.2222,-0.2222,-0.2222,-0.2126,-0.2091,-0.2047,-0.2001,-0.1977,-0.1977,-0.1977,-0.1977,-0.1977,-0.1977,-0.1977,-0.1977,-0.037,0.0616,0.1048,0.259,0.3517,0.3889,0.3889,0.3889,0.3889,0.3889,0.3889,0.3889,0.3889,0.3889,0.3889,0.3889,0.3889,0.3889,0.0,0.0,0.0,-1.7726,-1.7199,-1.6677,0.0,0.0,0.0,0.0,0.0,0.0,0.0,0.0,0.0,0.0,-1.4196,-1.4196,-1.4196,-1.4196,-1.4196,-1.4196,-1.4196,-1.4196,-1.4196,-1.4218,0.0,0.0,0.0,0.0,0.0,0.0,0.0,0.0,0.0,0.0,0.0,0.0,0.0,-1.4288,-1.4008,-1.4169,0.0,0.0,-1.4148,-1.3274,-1.1252,-1.0102,-0.9076,-0.6707,-0.5916,0.0,0.0,0.0,0.0,0.0,-0.5916,0.0,0.0,0.0,0.0,0.0,0.0,0.0,-0.3146,-0.2589,-0.2086,0.0,-0.201,-0.1959,-0.1935,-0.1953,-0.1973,-0.1976,-0.1977,-0.1986,-0.2015,-0.2068,-0.2106,-0.2109,0.0,0.0,-0.2222,-0.2222,-0.2222,-0.2222,-0.2126,-0.2084,-0.2026,-0.1996,-0.1979,-0.1977,-0.1977,-0.1977,-0.1977,-0.1977,-0.1977,-0.1977,-0.0863,0.0123,0.1048,0.2158,0.3085,0.3889,0.3889,0.3889,0.3889,0.3889,0.3889,0.3889,0.3889,0.3889,0.3889,0.3889,0.3889,0.3889,0.0,0.0,0.0,-1.6935,-1.6836,-1.6677,-1.6677,0.0,0.0,0.0,0.0,0.0,0.0,0.0,0.0,0.0,-1.4196,-1.4196,-1.4196,-1.4196,-1.4196,-1.4196,-1.4196,-1.4196,-1.4196,-1.4374,-1.4432,0.0,0.0,0.0,0.0,0.0,0.0,0.0,0.0,0.0,0.0,0.0,0.0,-1.4952,-1.4512,0.0,-1.4837,-1.4979,-1.5109,-1.4806,-1.2341,-1.1034,-1.003,-0.695,-0.5916,-0.5916,0.0,0.0,0.0,-0.5916,0.0,0.0,0.0,0.0,0.0,0.0,0.0,0.0,-0.3821,-0.3176,-0.2723,0.0,-0.2274,-0.1909,-0.1928,-0.1936,-0.1948,-0.1973,-0.1977,-0.1986,-0.2015,-0.205,-0.2082,0.0,0.0,0.0,-0.2222,-0.2222,-0.2222,-0.2222,-0.2126,-0.2093,-0.2057,-0.2026,-0.2,-0.1977,-0.1977,-0.1977,-0.1977,-0.1977,-0.1977,-0.1977,-0.0185,0.0801,0.1048,0.2837,0.3703,0.3889,0.3889,0.3889,0.3889,0.3889,0.3889,0.3889,0.3889,0.3889,0.3889,0.3889,0.3889,0.3895,0.0,0.0,0.0,-1.6039,-1.5725,-1.5618,-1.6045,0.0,0.0,0.0,0.0,0.0,0.0,0.0,0.0,0.0,0.0,0.0,0.0,-1.4196,-1.4245,-1.4358,-1.4363,-1.4417,-1.4536,-1.4649,-1.4767,-1.4834,0.0,0.0,0.0,0.0,0.0,0.0,0.0,0.0,0.0,0.0,-1.5424,-1.5392,-1.4979,0.0,-1.5241,-1.5188,-1.5263,-1.505,-1.2207,-1.0048,-0.8215,-0.6734,-0.6022,0.0,0.0,-0.5849,-0.5859,0.0,-0.5916,-0.5916,0.0,0.0,0.0,-0.5483,0.0,0.0,0.0,-0.3859,-0.3277,-0.2988,-0.2622,-0.226,-0.1889,-0.1851,-0.1936,-0.1952,-0.1967,-0.1981,-0.1995,-0.2022,-0.2047,0.0,0.0,0.0,-0.2132,-0.2213,-0.2222,-0.2222,-0.2126,-0.2096,-0.213,-0.2035,-0.2005,-0.1977,-0.1977,-0.1977,-0.1977,-0.1977,-0.1977,-0.1977,0.0062,0.0986,0.1048,0.3023,0.3889,0.3889,0.3889,0.3889,0.3889,0.3889,0.3889,0.3889,0.3889,0.3889,0.3889,0.3889,0.3907,0.3935,0.0,0.0,0.0,-1.6092,-1.5672,-1.541,0.0,0.0,0.0,0.0,0.0,0.0,0.0,0.0,0.0,0.0,0.0,0.0,0.0,-1.4261,-1.4363,-1.4595,-1.46,-1.4692,-1.488,-1.4929,-1.5052,-1.5194,0.0,0.0,0.0,0.0,0.0,0.0,0.0,0.0,0.0,0.0,0.0,-1.5397,0.0,-1.5248,-1.551,-1.5263,-1.5167,-1.4745,-1.1714,-0.872,-0.6233,-0.6408,-0.6172,-0.5716,-0.5852,-0.5875,0.0,0.0,0.0,0.0,0.0,0.0,0.0,0.0,0.0,-0.5111,0.0,0.0,0.0,-0.339,-0.3159,0.0,0.0,0.0,0.0,0.0,0.0,0.0,0.0,-0.1991,0.0,0.0,0.0,0.0,-0.2108,-0.2137,-0.2222,-0.2222,-0.2132,-0.2105,-0.2074,-0.2044,-0.2014,-0.1986,-0.1979,-0.1977,-0.1977,-0.1791,-0.1729,-0.1667,0.0308,0.1295,0.1356,0.3085,0.3889,0.3889,0.3889,0.3889,0.3889,0.3889,0.3889,0.3889,0.3889,0.3889,0.3889,0.3889,0.3924,0.3973,-1.7147,-1.7569,0.0,0.0,-1.8795,0.0,0.0,0.0,0.0,0.0,0.0,0.0,0.0,0.0,0.0,0.0,0.0,0.0,-1.4427,0.0,-1.46,-1.4832,-1.4842,-1.4859,-1.4885,-1.5095,-1.5167,-1.5194,-1.5456,0.0,0.0,0.0,0.0,0.0,-1.4456,0.0,0.0,0.0,-1.4689,0.0,-1.4578,-1.4797,0.0,-1.5199,-1.5117,-1.4515,-1.1425,-0.8717,-0.6523,0.0,-0.6118,-0.6061,0.0,-0.6077,-0.6018,-0.5732,0.0,0.0,0.0,0.0,0.0,0.0,-0.5855,0.0,0.0,0.0,-0.4782,-0.4704,0.0,0.0,0.0,0.0,0.0,0.0,0.0,0.0,-0.1969,-0.1956,-0.196,-0.2012,-0.2048,0.0,0.0,-0.2137,-0.2222,-0.2222,-0.2218,-0.2136,-0.2106,-0.2076,-0.2045,-0.2015,-0.199,-0.1977,-0.1977,-0.111,-0.0678,-0.0617,0.1356,0.2343,0.2343,0.3394,0.3889,0.3889,0.3889,0.3889,0.3889,0.3889,0.3889,0.3889,0.3889,0.3889,0.3889,0.3889,0.3924,0.3979,-1.5565,-1.5779,0.0,0.0,0.0,0.0,0.0,0.0,0.0,0.0,0.0,0.0,0.0,0.0,0.0,0.0,0.0,-1.4638,0.0,0.0,0.0,-1.5085,-1.5095,-1.4982,-1.476,-1.4805,-1.468,-1.4331,-1.4421,0.0,0.0,0.0,0.0,0.0,-1.3803,0.0,-1.3495,0.0,-1.4024,0.0,0.0,0.0,0.0,-1.3808,-1.2927,-1.1565,-1.0219,-0.8198,-0.6114,0.0,-0.5834,0.0,0.0,0.0,0.0,0.0,0.0,0.0,0.0,0.0,0.0,0.0,0.0,0.0,-0.5904,0.0,-0.5386,0.0,0.0,0.0,0.0,0.0,0.0,0.0,-0.2117,0.0,0.0,0.0,-0.1927,0.0,0.0,0.0,0.0,0.0,0.0,0.0,-0.2222,-0.2142,-0.2111,-0.208,-0.205,-0.202,-0.1991,-0.1977,-0.1977,-0.0987,-0.0493,-0.0493,0.1541,0.2529,0.2529,0.3455,0.3889,0.3889,0.3889,0.3889,0.3889,0.3889,0.3889,0.3889,0.3889,0.3889,0.3893,0.3924,0.3974,0.4097,-1.4745,0.0,0.0,0.0,0.0,0.0,0.0,0.0,0.0,0.0,0.0,0.0,-1.4632,-1.4783,0.0,0.0,-1.4885,-1.4912,0.0,0.0,-1.4975,0.0,-1.5046,0.0,-1.4331,-1.4331,-1.4157,-1.3688,-1.3688,0.0,0.0,0.0,0.0,0.0,0.0,-1.3144,-1.2715,0.0,-1.3277,-1.3128,-1.3008,-1.2696,-1.2215,-1.2321,-1.1095,-0.9366,-0.903,-0.7609,-0.5903,-0.5903,-0.5736,0.0,-0.5641,0.0,0.0,0.0,0.0,0.0,-0.5578,0.0,0.0,0.0,0.0,0.0,0.0,0.0,0.0,0.0,0.0,0.0,0.0,0.0,0.0,0.0,0.0,-0.2042,0.0,0.0,0.0,0.0,0.0,0.0,0.0,0.0,0.0,-0.2141,-0.2217,-0.2212,-0.2123,-0.2093,-0.2063,-0.2032,-0.2003,-0.186,-0.1605,-0.0617,0.0062,0.037,0.2035,0.29,0.29,0.358,0.3889,0.3889,0.3889,0.3889,0.3889,0.3889,0.3889,0.3889,0.3889,0.3889,0.3896,0.3951,0.4074,0.4134,-1.6201,-1.6447,0.0,0.0,0.0,0.0,0.0,0.0,0.0,0.0,0.0,0.0,0.0,0.0,0.0,0.0,0.0,-1.4982,-1.5167,0.0,-1.5046,0.0,0.0,-1.4326,0.0,-1.3748,-1.3748,-1.3688,-1.3688,0.0,0.0,0.0,0.0,0.0,0.0,-1.2719,-1.2706,-1.259,-1.251,-1.247,-1.2078,-1.1471,-1.081,0.0,-1.0445,-0.9345,-0.8159,0.0,0.0,-0.6109,-0.6109,0.0,0.0,0.0,0.0,0.0,0.0,0.0,0.0,0.0,0.0,-0.5566,0.0,0.0,0.0,0.0,-0.5592,0.0,0.0,0.0,0.0,0.0,0.0,0.0,0.0,0.0,0.0,0.0,0.0,0.0,0.0,0.0,0.0,0.0,-0.211,-0.211,-0.2138,-0.2222,-0.2221,-0.2124,-0.2094,-0.2128,-0.2033,-0.1502,-0.0555,0.0431,0.1418,0.2405,0.3394,0.3828,0.3828,0.3889,0.3889,0.3889,0.3889,0.3889,0.3889,0.3889,0.3889,0.3889,0.3889,0.3889,0.3896,0.3951,0.4074,0.4134,0.0,0.0,0.0,0.0,0.0,0.0,0.0,-1.69,0.0,-1.5885,-1.5414,0.0,0.0,-1.5268,-1.5354,0.0,0.0,-1.5392,-1.5472,-1.5478,0.0,0.0,0.0,-1.4093,0.0,0.0,-1.2848,-1.2436,0.0,0.0,0.0,0.0,0.0,0.0,0.0,-1.207,0.0,0.0,0.0,0.0,0.0,-1.1162,-1.0972,0.0,-0.943,-0.8524,-0.7585,-0.6604,0.0,-0.5762,-0.5762,-0.5762,-0.5762,-0.5762,-0.5762,-0.5645,-0.5564,0.0,0.0,0.0,-0.5546,-0.5578,0.0,0.0,0.0,0.0,0.0,0.0,0.0,0.0,0.0,0.0,0.0,0.0,0.0,0.0,0.0,0.0,0.0,0.0,0.0,0.0,0.0,0.0,0.0,-0.2106,-0.2119,-0.2133,-0.2221,-0.2125,-0.1767,-0.1097,-0.1017,-0.0501,0.0493,0.148,0.2158,0.2529,0.3455,0.3889,0.3889,0.3889,0.3889,0.3889,0.3889,0.3889,0.3889,0.3889,0.3889,0.3889,0.3889,0.3889,0.39,0.3995,0.4108,0.414,-1.8069,0.0,0.0,0.0,-1.7652,0.0,0.0,0.0,-1.604,-1.604,-1.5544,0.0,-1.5306,0.0,-1.5317,0.0,-1.528,-1.5168,-1.4758,-1.4954,0.0,-1.3867,-1.3875,0.0,0.0,0.0,0.0,0.0,0.0,-1.1776,0.0,0.0,0.0,0.0,0.0,-1.174,-1.1667,-1.148,-1.133,0.0,0.0,-1.1126,0.0,0.0,-0.8842,-0.8162,0.0,-0.6186,-0.5681,-0.5681,-0.5681,-0.5681,-0.5681,-0.5681,-0.5681,-0.5681,-0.5718,-0.5692,-0.5692,-0.5611,0.0,-0.5584,-0.5584,0.0,-0.5584,0.0,0.0,0.0,0.0,0.0,0.0,0.0,0.0,0.0,0.0,0.0,0.0,-0.202,0.0,0.0,0.0,0.0,0.0,0.0,-0.2029,-0.2089,-0.2103,-0.1924,0.0,0.0,-0.1053,-0.0065,0.0,0.0503,0.1541,0.2158,0.2652,0.3023,0.3642,0.3889,0.3889,0.3889,0.3889,0.3889,0.3889,0.3889,0.3889,0.3889,0.3889,0.3889,0.3889,0.3889,0.3903,0.4082,0.4153,0.4202,-1.9581,-2.0507,0.0,0.0,-1.7654,-1.6825,-1.7073,-1.6295,-1.5655,0.0,-1.5344,-1.5237,-1.5456,-1.5135,-1.4724,-1.4369,-1.4651,-1.4349,-1.3212,-1.3862,0.0,0.0,-1.2614,-1.2406,-1.1808,0.0,0.0,0.0,0.0,0.0,0.0,0.0,0.0,0.0,-1.1764,0.0,-1.1488,-1.1293,-1.1212,-1.1224,-1.1232,-1.124,-1.1037,-0.9255,-0.8596,-0.8358,-0.6506,-0.5843,-0.5916,-0.5916,-0.5916,-0.5916,-0.5916,-0.5916,-0.5916,-0.5916,-0.5855,-0.5788,-0.5788,-0.5725,-0.5598,-0.5592,0.0,0.0,0.0,0.0,-0.556,0.0,0.0,0.0,0.0,0.0,0.0,0.0,0.0,0.0,0.0,0.0,0.0,0.0,0.0,0.0,0.0,-0.1956,-0.1998,-0.1991,-0.2089,-0.159,0.0,0.0,0.0,0.1032,0.1096,0.1526,0.253,0.259,0.3023,0.3889,0.3889,0.3889,0.3889,0.3889,0.3889,0.3889,0.3889,0.3889,0.3889,0.3889,0.3889,0.3889,0.3889,0.3892,0.3911,0.4085,0.4203,0.4308,-1.9622,-1.9989,-1.9934,-1.9304,-1.9445,-1.9527,-1.9152,-1.7689,0.0,0.0,-1.4826,-1.4103,-1.4162,-1.4069,-1.3961,-1.3901,-1.3976,0.0,0.0,0.0,0.0,-1.251,-1.255,-1.2153,-1.1366,-1.1366,0.0,-1.1366,0.0,0.0,-1.1573,0.0,0.0,0.0,0.0,0.0,-1.148,-1.1167,-1.1106,-1.1236,-1.1374,-1.1508,-1.1459,0.0,-0.8727,-0.8484,-0.6548,-0.5898,-0.5916,-0.5916,-0.5916,-0.5916,-0.5916,-0.5916,-0.5916,-0.5916,-0.59,-0.5882,-0.5882,-0.5865,-0.5831,-0.5763,-0.5747,-0.5729,0.0,0.0,0.0,0.0,0.0,0.0,0.0,0.0,0.0,0.0,0.0,0.0,0.0,0.0,0.0,-0.1795,0.0,0.0,-0.1802,-0.1911,-0.1652,-0.0934,-0.1662,-0.1305,0.053,0.0,0.0,0.2063,0.2126,0.2605,0.3518,0.3517,0.3642,0.3889,0.3889,0.3889,0.3889,0.3889,0.3889,0.3889,0.3889,0.3889,0.3889,0.3889,0.3889,0.3889,0.3889,0.3942,0.4085,0.4115,0.4203,0.4374,-2.022,-2.0277,-2.009,-1.9795,0.0,-1.9138,-1.8104,-1.6568,0.0,-1.5046,-1.4133,0.0,-1.3679,-1.3528,-1.3334,-1.3191,-1.3294,0.0,-1.2646,0.0,0.0,-1.2094,-1.2171,-1.1947,-1.135,-1.1342,0.0,-1.1224,0.0,0.0,-1.1378,0.0,0.0,0.0,0.0,-1.1338,-1.1261,-1.1135,-1.1183,-1.1358,-1.1545,-1.1683,0.0,-0.9572,-0.8775,-0.8532,-0.6587,-0.5916,-0.5916,-0.5916,-0.5916,-0.5916,-0.5916,-0.5916,-0.5916,-0.5916,-0.5916,-0.5916,-0.5916,-0.5916,-0.5904,-0.5853,-0.5841,-0.5827,-0.5776,-0.5704,-0.5751,0.0,0.0,0.0,0.0,0.0,0.0,0.0,0.0,0.0,0.0,0.0,0.0,0.0,-0.1795,0.0,-0.1819,-0.1876,-0.1688,-0.117,-0.1268,-0.0649,0.0,0.0,0.0,0.3189,0.3233,0.3441,0.3926,0.3901,0.3889,0.3889,0.3889,0.3889,0.3889,0.3889,0.3889,0.3889,0.3889,0.3889,0.3889,0.3889,0.3889,0.3889,0.3889,0.4147,0.4511,0.419,0.4398,0.4844,-2.0917,-2.0852,-2.0486,0.0,0.0,0.0,0.0,-1.4391,0.0,-1.3569,0.0,-1.3181,-1.343,-1.307,-1.2757,-1.241,0.0,-1.2392,-1.1355,-1.1913,-1.2056,-1.15,-1.1654,-1.1654,-1.1468,-1.1464,-1.1374,0.0,0.0,-1.1212,-1.1191,0.0,0.0,0.0,0.0,0.0,0.0,-1.1175,-1.1354,-1.1516,-1.1703,-1.1776,-1.1591,-0.9572,-0.8775,-0.8532,-0.6587,-0.5916,-0.5916,-0.5916,-0.5916,-0.5916,-0.5916,-0.5916,-0.5916,-0.5916,-0.5916,-0.5916,-0.5916,-0.5916,-0.5916,-0.5916,-0.5916,-0.5916,-0.5916,-0.5916,-0.5896,-0.5816,-0.5798,-0.5774,0.0,0.0,0.0,0.0,0.0,0.0,0.0,0.0,0.0,0.0,0.0,0.0,-0.1795,-0.185,-0.1848,-0.1777,-0.0949,0.0065,0.0,0.0,0.0,0.4152,0.4157,0.4097,0.3973,0.0,0.3889,0.3889,0.3889,0.3889,0.3889,0.3889,0.3889,0.3889,0.3889,0.3889,0.3889,0.3889,0.3889,0.3889,0.4011,0.4518,0.5139,0.4571,0.4916,0.5635,-2.045,-2.0385,0.0,0.0,0.0,-1.579,-1.4257,-1.3844,-1.3495,-1.296,-1.2402,-1.2097,-1.2134,-1.2076,-1.1995,-1.1904,-1.1999,0.0,0.0,0.0,0.0,-1.1504,-1.1533,-1.1459,-1.1277,-1.1273,-1.1187,0.0,-1.1151,-1.1151,-1.1017,0.0,0.0,0.0,0.0,0.0,-1.1049,-1.1313,0.0,-1.1516,-1.1703,-1.1776,-1.1591,-0.9572,-0.8775,-0.8532,-0.6587,-0.5916,-0.5916,-0.5916,-0.5916,-0.5916,-0.5916,-0.5916,-0.5916,-0.5916,-0.5916,-0.5916,-0.5916,-0.5916,-0.5916,-0.5916,-0.5916,-0.5916,-0.5916,-0.5916,-0.5912,-0.5896,-0.5894,-0.5888,-0.5872,0.0,0.0,0.0,0.0,0.0,0.0,0.0,0.0,0.0,0.0,-0.1795,0.0,-0.185,-0.1536,-0.0713,-0.05,0.0387,0.0,0.0,0.0,0.0,0.4157,0.0,0.0,0.0,0.3889,0.3889,0.3889,0.3889,0.3889,0.3889,0.3889,0.3889,0.3889,0.3889,0.3889,0.3889,0.3889,0.395,0.4499,0.4857,0.5129,0.5642,0.6312,0.6878,-2.0097,0.0,0.0,0.0,0.0,0.0,0.0,-1.3555,-1.2603,-1.2307,-1.1953,-1.1776,-1.1776,-1.1776,-1.1776,-1.1776,-1.1776,-1.1776,-1.1776,-1.1776,-1.1736,-1.1646,-1.1642,-1.1557,-1.137,-1.1366,-1.1277,-1.1098,-1.1183,-1.1135,-1.1028,0.0,0.0,0.0,0.0,-1.1126,0.0,0.0,0.0,-1.165,-1.174,-1.1776,-1.1603,-0.9655,-0.8881,-0.8644,-0.6723,-0.6053,-0.6047,-0.6002,-0.6016,-0.6053,-0.6053,-0.6053,-0.6053,-0.6053,-0.6053,-0.6053,-0.6053,-0.6053,-0.6053,-0.6053,-0.6053,-0.6053,-0.6053,-0.6053,-0.6053,-0.6053,-0.6019,-0.5912,-0.5925,-0.56,0.0,0.0,0.0,0.0,0.0,0.0,0.0,0.0,0.0,0.0,0.0,0.0,0.0,0.0,0.0,0.0451,0.2511,0.0,0.0,0.0,0.0,0.0,0.0,0.0,0.0,0.3889,0.3889,0.3889,0.3889,0.3889,0.3889,0.3889,0.3889,0.3889,0.3889,0.3889,0.3889,0.395,0.4621,0.5158,0.5615,0.602,0.6886,0.7777,-1.9397,-1.8506,0.0,0.0,-1.5682,-1.3963,-1.4684,-1.3084,-1.1776,-1.1776,-1.1776,-1.1776,-1.1776,-1.1776,-1.1776,-1.1776,-1.1776,-1.1776,-1.1776,-1.1776,-1.1776,-1.1776,-1.1776,-1.1707,-1.1561,-1.1557,-1.1468,-1.1281,-1.1281,-1.1175,0.0,0.0,0.0,0.0,0.0,0.0,0.0,0.0,-1.1663,-1.1833,-1.1833,-1.1853,-1.1719,-0.9794,-0.9024,-0.8785,-0.6855,-0.6192,-0.6198,-0.6067,-0.6141,-0.618,-0.618,-0.618,-0.618,-0.618,-0.618,-0.618,-0.618,-0.618,-0.618,-0.618,-0.618,-0.618,-0.618,-0.618,-0.618,-0.618,-0.6127,-0.5996,-0.5986,-0.5653,0.0,0.0,0.0,0.0,0.0,0.0,0.0,0.0,0.0,0.0,-0.1886,0.0,0.0,0.0,0.0,0.0644,0.219,0.2781,0.3426,0.0,0.0,0.4119,0.4106,0.0,0.3889,0.3889,0.3889,0.3889,0.3889,0.3889,0.3889,0.3889,0.3889,0.3889,0.3889,0.3889,0.4011,0.4195,0.4867,0.558,0.6277,0.6499,0.7372,0.8266,0.0,0.0,0.0,0.0,0.0,-1.337,-1.2311,-1.1957,-1.1776,-1.1776,-1.1776,-1.1776,-1.1776,-1.1776,-1.1776,-1.1776,-1.1776,-1.1776,-1.1776,-1.1776,-1.1776,-1.1776,-1.1776,-1.1768,-1.1752,-1.1752,-1.1658,0.0,-1.1472,-1.1301,0.0,0.0,0.0,0.0,0.0,0.0,0.0,-1.1679,-1.1849,-1.2008,-1.2008,-1.2105,-1.2004,-0.9986,-0.9167,-0.8912,-0.6944,-0.6233,-0.6302,-0.6294,-0.6243,-0.618,-0.618,-0.618,-0.618,-0.618,-0.618,-0.618,-0.618,-0.618,-0.618,-0.618,-0.618,-0.618,-0.618,-0.618,-0.618,-0.618,-0.6174,-0.6166,-0.6157,-0.5134,-0.4268,0.0,0.0,0.0,0.0,0.0,0.0,0.0,0.0,0.0,0.0,-0.1913,0.0,0.0,0.1013,0.116,0.1289,0.3114,0.4149,0.4228,0.0,0.41,0.3981,0.3919,0.3889,0.3889,0.3889,0.3889,0.3889,0.3889,0.3889,0.3889,0.3889,0.3889,0.3889,0.3889,0.4255,0.4865,0.5538,0.6219,0.6917,0.765,0.802,0.8205,0.0,0.0,0.0,0.0,0.0,0.0,0.0,-1.2307,-1.1776,-1.1776,-1.1776,-1.1776,-1.1776,-1.1776,-1.1817,-1.1918,-1.1926,-1.1975,-1.2089,-1.2093,-1.2093,-1.2093,-1.2093,-1.2044,-1.1931,-1.1926,-1.1841,0.0,0.0,0.0,0.0,0.0,0.0,0.0,0.0,-1.1618,-1.1821,-1.1898,-1.2032,-1.2194,-1.2194,-1.2239,-1.2063,-1.0105,-0.9297,-0.9051,-0.7107,-0.6368,-0.6398,-0.6398,-0.6376,-0.6411,-0.6411,-0.6411,-0.6411,-0.6411,-0.6411,-0.6411,-0.6411,-0.6411,-0.6411,-0.6411,-0.6411,-0.6411,-0.6411,-0.6411,-0.6411,-0.6411,-0.63,-0.6245,-0.619,-0.5383,-0.4599,0.0,0.0,0.0,0.0,0.0,0.0,0.0,0.0,0.0,0.0,0.0,0.0,0.0,0.0,0.1035,0.2872,0.3194,0.3609,0.4152,0.0,0.4097,0.3973,0.3916,0.3889,0.3889,0.3889,0.3889,0.3889,0.3889,0.3889,0.3889,0.3889,0.3889,0.3889,0.3889,0.4316,0.4986,0.5661,0.6335,0.7025,0.7821,0.813,0.8188,-1.5752,0.0,-1.4321,0.0,-1.3024,-1.207,-1.302,-1.2367,-1.1776,-1.1776,-1.1776,-1.1776,-1.1776,-1.1776,-1.1825,-1.1947,-1.1955,-1.2032,-1.2215,-1.2227,-1.2247,-1.2304,-1.2308,0.0,-1.2113,-1.2109,-1.2024,-1.1849,-1.1849,0.0,0.0,0.0,0.0,0.0,-1.1654,-1.1825,-1.2109,-1.2109,-1.2215,-1.2381,-1.2381,-1.2414,-1.2214,-1.0247,-0.9434,-0.9184,-0.7227,-0.652,-0.652,-0.652,-0.652,-0.652,-0.652,-0.652,-0.652,-0.652,-0.652,-0.652,-0.652,-0.652,-0.652,-0.652,-0.652,-0.652,-0.652,-0.652,-0.6453,-0.6252,-0.607,-0.594,-0.5684,-0.5069,-0.4409,-0.3891,0.0,0.0,0.0,0.0,0.0,0.0,-0.2045,-0.204,-0.2126,-0.2044,0.0,0.0,0.0,0.1108,0.362,0.307,0.3134,0.0,0.0,0.0,0.0,0.3908,0.3889,0.3889,0.3889,0.3889,0.3889,0.3889,0.3889,0.3889,0.3889,0.3889,0.3889,0.4133,0.4561,0.5232,0.5906,0.6582,0.7266,0.7843,0.81,0.8183,-1.6107,-1.5569,-1.4803,-1.2251,-1.1837,-1.1837,-1.1837,-1.1837,-1.1776,-1.1776,-1.1776,-1.1776,-1.1776,-1.1776,-1.1776,-1.178,-1.178,-1.1853,-1.202,-1.197,-1.2113,0.0,0.0,-1.2308,-1.2304,-1.2304,-1.2215,-1.2028,0.0,0.0,-1.15,0.0,-1.1687,-1.1962,-1.1962,-1.213,-1.2304,-1.2304,-1.2402,-1.2624,-1.2624,-1.267,-1.2565,-1.0439,-0.9576,-0.931,-0.7252,-0.652,-0.652,-0.652,-0.652,-0.652,-0.652,-0.652,-0.652,-0.652,-0.652,-0.652,-0.652,-0.652,-0.652,-0.652,-0.652,-0.652,-0.652,-0.652,-0.6319,-0.5582,-0.5379,-0.5176,-0.4434,-0.372,-0.3225,-0.3225,0.0,0.0,0.0,0.0,0.0,0.0,-0.2128,-0.2128,-0.2128,-0.2128,0.0,0.0,0.0,0.0,0.0,0.0,0.0,0.4066,0.4127,0.0,0.3891,0.3889,0.3889,0.3889,0.3889,0.3889,0.3889,0.3889,0.3889,0.3889,0.3889,0.3889,0.395,0.4621,0.5293,0.5968,0.6644,0.7317,0.7872,0.7872,0.8027,0.8172,-1.4619,-1.4321,-1.3789,-1.2074,-1.1776,-1.1776,-1.1776,-1.1776,-1.1776,-1.1776,-1.1776,-1.1776,-1.1776,-1.1776,-1.1825,0.0,-1.1951,-1.2024,0.0,-1.2219,-1.2296,-1.2475,-1.2483,-1.2483,-1.2483,-1.2483,-1.2393,-1.2219,0.0,0.0,0.0,-1.2048,-1.2109,-1.2219,-1.2219,-1.2316,-1.2483,-1.2483,-1.2584,-1.2751,-1.2751,-1.2783,-1.2638,-1.1237,-1.024,-0.9446,-0.8046,-0.7049,-0.652,-0.652,-0.652,-0.652,-0.652,-0.652,-0.652,-0.652,-0.652,-0.652,-0.652,-0.652,-0.652,-0.652,-0.652,-0.6386,-0.585,-0.5377,-0.5108,-0.5314,-0.4975,-0.4571,-0.4368,-0.3684,-0.3207,-0.3207,-0.2597,0.0,0.0,0.0,0.0,-0.2192,-0.2108,-0.2103,-0.219,-0.2107,0.0,0.0,0.0,0.0,0.0,0.0,0.0,0.0,0.4085,0.0,0.3889,0.3889,0.3889,0.3889,0.3889,0.3889,0.3889,0.3889,0.3889,0.3889,0.3889,0.3889,0.395,0.4621,0.5293,0.5968,0.6644,0.7319,0.7872,0.7872,0.8024,0.8172,-1.4738,-1.4441,-1.3849,-1.2134,-1.1776,-1.1776,-1.1776,-1.1776,-1.1776,-1.1776,-1.1776,-1.1776,-1.1776,-1.1776,0.0,-1.1926,-1.1935,-1.2012,-1.219,-1.2203,-1.228,-1.2458,-1.2527,-1.2628,-1.2628,-1.2629,0.0,-1.2402,-1.2341,-1.2308,-1.2308,-1.2308,-1.2341,-1.2402,-1.2402,-1.2499,-1.2666,-1.2666,-1.2731,-1.277,-1.277,-1.277,-1.2634,-1.1167,-1.0174,-0.938,-0.7982,-0.7051,-0.652,-0.652,-0.6319,-0.6118,-0.6118,-0.5915,-0.578,-0.6319,-0.6319,-0.6118,-0.6118,-0.5915,-0.5646,-0.5646,-0.5646,-0.5579,-0.5109,-0.4638,-0.4368,-0.4505,-0.4235,-0.3831,-0.3564,-0.3162,-0.2826,-0.2826,-0.249,-0.2222,-0.2222,0.0,0.0,0.0,0.0,0.0,0.0,-0.2138,-0.16,0.0,0.0,0.0,0.0,0.0,0.0,0.4064,0.4065,0.0,0.3889,0.3889,0.3889,0.3889,0.3889,0.3889,0.3889,0.3889,0.3889,0.3889,0.3889,0.4073,0.4316,0.4988,0.5661,0.6337,0.7011,0.7503,0.7872,0.7872,0.8024,0.8172,-1.6107,-1.5515,-1.4684,0.0,-1.1776,-1.1776,-1.1776,-1.1776,-1.1776,-1.1776,-1.1776,-1.1776,-1.1776,-1.1776,-1.1776,-1.1776,0.0,0.0,0.0,-1.2012,-1.2093,-1.228,-1.2442,-1.254,-1.2628,-1.2731,-1.2739,-1.2584,-1.2422,-1.2341,-1.2341,-1.2341,-1.243,-1.2584,-1.2584,-1.2678,-1.277,-1.277,-1.277,-1.277,-1.277,-1.277,-1.2437,-1.0442,-0.9643,-0.9244,-0.7319,-0.6587,-0.652,-0.6453,-0.5984,-0.5381,-0.5314,-0.4841,-0.457,-0.5915,-0.585,-0.5314,-0.5314,-0.4839,-0.43,-0.43,-0.4233,-0.4234,-0.43,-0.4234,-0.3966,-0.3362,-0.3161,-0.296,-0.2289,-0.2222,-0.2222,-0.2222,-0.2222,-0.2222,-0.2222,0.0,0.0,0.0,0.0,0.0,0.0,-0.2222,-0.2153,0.0,0.0,0.0,0.0,0.0,0.3131,0.4057,0.3997,0.3942,0.3889,0.3889,0.3889,0.3889,0.3889,0.3889,0.3889,0.3889,0.3889,0.3889,0.395,0.4316,0.4986,0.5661,0.6337,0.695,0.7625,0.7872,0.7872,0.7872,0.8024,0.8172,0.0,0.0,-1.367,-1.2074,-1.1776,-1.1776,-1.1776,-1.1776,-1.1776,-1.1776,-1.1776,-1.1776,-1.1776,-1.1776,-1.1776,-1.1776,-1.1776,-1.1792,-1.1833,-1.1837,-1.1914,-1.2085,-1.2134,-1.2284,-1.262,-1.2605,-1.2674,-1.2771,-1.2731,-1.271,-1.271,-1.271,-1.2735,-1.2771,-1.2771,-1.2795,-1.277,-1.277,-1.277,-1.277,-1.277,-1.2301,-1.1497,-1.1035,-0.9839,-0.831,-0.7846,-0.7183,-0.6386,-0.585,-0.5515,-0.5312,-0.4705,-0.4435,-0.4368,-0.4704,-0.4704,-0.457,-0.457,-0.4435,-0.43,-0.43,-0.3899,-0.363,-0.4167,-0.3497,-0.2826,-0.3162,-0.2826,-0.2356,-0.2222,-0.2222,-0.2222,-0.2222,-0.2222,-0.2222,-0.2222,-0.2222,0.0,0.0,-0.2222,-0.2222,-0.2222,-0.2222,-0.1809,0.0,0.0,0.0,0.0,0.314,0.3752,0.3993,0.3938,0.3901,0.3889,0.3889,0.3889,0.3889,0.3889,0.3889,0.3889,0.3889,0.3889,0.395,0.4438,0.4742,0.4986,0.6151,0.6766,0.695,0.7625,0.7872,0.7872,0.7872,0.8024,0.8172,-1.4976,-1.4143,-1.3315,-1.2014,-1.1776,-1.1776,-1.1776,-1.1776,-1.1776,-1.1776,-1.1776,-1.1776,-1.1776,-1.1776,-1.1776,-1.1776,-1.1776,-1.1776,-1.1776,-1.1776,-1.1817,-1.191,-1.1987,-1.2121,-1.2316,-1.2402,-1.2532,-1.2714,-1.2795,-1.277,-1.277,-1.277,-1.277,-1.277,-1.277,-1.277,-1.277,-1.2301,-1.2099,-1.2099,-1.2099,-1.1435,-1.0439,-1.0439,-0.944,-0.791,-0.7448,-0.6717,-0.5917,-0.5515,-0.4977,-0.4304,-0.39,-0.3564,-0.3362,-0.3362,-0.3564,-0.3764,-0.3764,-0.3564,-0.3362,-0.3362,-0.3027,-0.2826,-0.3228,-0.2759,-0.2289,-0.2691,-0.2423,-0.2222,-0.2222,-0.2222,-0.2222,-0.2222,-0.2222,-0.2222,-0.2222,-0.2222,0.0,-0.2222,-0.2142,-0.2134,-0.2134,-0.2121,-0.1909,-0.1306,0.013,0.0,0.1787,0.3209,0.3946,0.3971,0.3918,0.3889,0.3889,0.3889,0.3889,0.3889,0.3889,0.3889,0.3889,0.3889,0.3889,0.395,0.4621,0.5047,0.5416,0.6458,0.7072,0.738,0.7747,0.7872,0.7872,0.7872,0.8024,0.8172,-1.3904,-1.355,-1.3075,-1.2014,-1.1776,-1.1776,-1.1776,-1.1776,-1.1776,-1.1776,-1.1776,-1.1776,-1.1776,-1.1776,-1.1776,-1.1776,-1.1776,-1.1776,-1.1776,-1.1776,-1.1776,-1.1776,-1.1914,-1.2004,-1.2028,-1.2211,-1.2389,-1.2628,-1.2718,-1.2808,-1.277,-1.277,-1.277,-1.277,-1.277,-1.277,-1.2704,-1.1633,-1.123,-1.1163,-1.0899,-1.0237,-0.9377,-0.9244,-0.8579,-0.7646,-0.6786,-0.6051,-0.5381,-0.5245,-0.4304,-0.3161,-0.3094,-0.2624,-0.2222,-0.2222,-0.2625,-0.3027,-0.3027,-0.2621,-0.2215,-0.2215,-0.2211,-0.2208,-0.2208,-0.2208,-0.2208,-0.2208,-0.2208,-0.2208,-0.2208,-0.2208,-0.2208,-0.2208,-0.2208,-0.2208,-0.2208,0.0,-0.2208,-0.2208,-0.2118,-0.2102,-0.2102,-0.2079,-0.2126,-0.2057,-0.0254,0.0882,0.0943,0.2796,0.3911,0.3958,0.3914,0.3889,0.3889,0.3889,0.3889,0.3889,0.3889,0.3889,0.3889,0.3889,0.3889,0.395,0.4744,0.5354,0.5968,0.6705,0.738,0.7872,0.7872,0.7872,0.7872,0.7872,0.8024,0.8172,-1.3725,-1.284,-1.2014,-1.1837,-1.1776,-1.1776,-1.1776,-1.1776,-1.1776,-1.1776,-1.1776,-1.1776,-1.1776,-1.1776,-1.1776,-1.1776,-1.1776,-1.1776,-1.1776,-1.1776,-1.1776,-1.1776,-1.1801,-1.1882,-1.2028,-1.2211,-1.2389,-1.2628,-1.2592,-1.2686,-1.277,-1.277,-1.277,-1.277,-1.277,-1.277,-1.2704,-1.1633,-1.123,-1.1097,-0.957,-0.8706,-0.8176,-0.7641,-0.7114,-0.6719,-0.6587,-0.6051,-0.5312,-0.4705,-0.3899,-0.3094,-0.2558,-0.2289,-0.2222,-0.2222,-0.2289,-0.2356,-0.2356,-0.2269,-0.2116,-0.2116,-0.2097,-0.2143,-0.2143,-0.2143,-0.2143,-0.2143,-0.2143,-0.2143,-0.2143,-0.2143,-0.2143,-0.2143,-0.2143,-0.2143,-0.2143,0.0,-0.2143,-0.2143,-0.2074,-0.2071,-0.2071,-0.2131,-0.2053,-0.2027,-0.0189,0.094,0.0991,0.2841,0.3893,0.3901,0.3893,0.3889,0.3889,0.3889,0.3889,0.3889,0.3889,0.3889,0.3889,0.3889,0.3889,0.395,0.5235,0.5784,0.5968,0.7258,0.7808,0.7872,0.7872,0.7872,0.7872,0.7872,0.8024,0.8172,-1.2664,-1.2191,-1.1776,-1.1776,-1.1776,-1.1776,-1.1776,-1.1776,-1.1776,-1.1776,-1.1776,-1.1776,-1.1776,-1.1776,-1.1776,-1.1776,-1.1776,-1.1776,-1.1776,-1.1776,-1.1776,-1.1776,-1.1776,-1.1813,-1.1894,-1.2065,-1.2243,-1.2426,-1.2519,-1.2657,-1.277,-1.277,-1.277,-1.277,-1.277,-1.277,-1.2704,-1.1038,-1.0373,-1.017,-0.8437,-0.731,-0.6579,-0.6439,-0.5973,-0.5309,-0.5309,-0.4841,-0.417,-0.3831,-0.3228,-0.2625,-0.2289,-0.2222,-0.2218,-0.2135,-0.213,-0.213,-0.213,-0.2108,-0.2085,-0.2085,-0.2074,-0.2128,-0.2128,-0.2128,-0.2128,-0.2128,-0.2128,-0.2128,-0.2128,-0.2128,-0.2128,-0.2128,-0.2128,0.0,0.0,-0.2128,-0.2128,-0.2128,-0.205,-0.2039,-0.2039,-0.2026,-0.2011,-0.1996,-0.0187,0.0994,0.0986,0.2837,0.3889,0.3889,0.3889,0.3889,0.3889,0.3889,0.3889,0.3889,0.3889,0.3889,0.3889,0.3889,0.3889,0.395,0.5297,0.5906,0.6029,0.7319,0.7872,0.7872,0.7872,0.7872,0.788,0.8007,0.8081,0.818,-1.1776,-1.1776,-1.1776,-1.1776,-1.1776,-1.1776,-1.1776,-1.1776,-1.1776,-1.1776,-1.1776,-1.1776,-1.1776,-1.1776,-1.1776,-1.1776,-1.1776,-1.1776,-1.1776,-1.1776,-1.1776,-1.1776,-1.1776,-1.1776,-1.1776,-1.1906,-1.206,-1.2243,-1.2418,-1.2596,-1.2775,-1.282,-1.277,-1.277,-1.277,-1.2638,-1.2301,-1.0376,-0.9443,-0.9045,-0.7174,-0.5977,-0.5379,-0.5304,-0.4902,-0.43,-0.43,-0.3831,-0.3228,-0.3228,-0.2759,-0.2221,-0.2213,-0.2144,-0.2138,-0.2108,-0.2093,-0.209,-0.2097,-0.2076,-0.2053,-0.2053,-0.2048,-0.2107,-0.2107,-0.2107,-0.2107,-0.2107,-0.2107,-0.2107,-0.2107,-0.2107,-0.2107,-0.2107,0.0,0.0,0.0,-0.2107,-0.2107,-0.2107,-0.2023,-0.2009,-0.2009,-0.1989,-0.1977,-0.1977,-0.0123,0.0986,0.0986,0.2837,0.3889,0.3889,0.3889,0.3889,0.3889,0.3889,0.3889,0.3889,0.3889,0.3889,0.3889,0.3889,0.3889,0.395,0.5297,0.5906,0.6029,0.7319,0.7872,0.7872,0.7872,0.7949,0.7985,0.8081,0.8149,0.8291,-1.1776,-1.1776,-1.1776,-1.1776,-1.1776,-1.1776,-1.1776,-1.1776,-1.1776,-1.1776,-1.1776,-1.1776,-1.1776,-1.1776,-1.1776,-1.1776,-1.1776,-1.1776,-1.1776,-1.1776,-1.1776,-1.1776,-1.1776,-1.1776,-1.1776,-1.1788,-1.1878,-1.2052,-1.2235,-1.2414,-1.2653,-1.2755,-1.277,-1.277,-1.277,-1.2235,-1.1233,-1.0107,-0.9045,-0.791,-0.5505,-0.4839,-0.5247,-0.39,-0.3764,-0.43,-0.43,-0.3831,-0.3228,-0.3228,-0.2759,-0.2217,-0.2121,-0.2112,-0.2106,-0.2076,-0.2047,-0.2031,-0.206,-0.2045,-0.2022,-0.2022,-0.2003,-0.1983,-0.1983,-0.1983,-0.1983,-0.1983,-0.1983,-0.1983,-0.1983,-0.1983,-0.1983,-0.1983,0.0,0.0,-0.1983,-0.1983,-0.1983,-0.1983,-0.1981,-0.1979,-0.1979,-0.1977,-0.1977,-0.1977,-0.0123,0.0986,0.0986,0.2837,0.3889,0.3889,0.3889,0.3889,0.3889,0.3889,0.3889,0.3889,0.3889,0.3889,0.3889,0.3889,0.3889,0.395,0.5297,0.5906,0.6029,0.7319,0.7872,0.7872,0.7872,0.8002,0.8103,0.8114,0.8204,0.8405,-1.1776,-1.1776,-1.1776,-1.1776,-1.1776,-1.1776,-1.1776,-1.1776,-1.1776,-1.1776,-1.1776,-1.1776,-1.1776,-1.1776,-1.1776,-1.1776,-1.1776,-1.1776,-1.1776,-1.1776,-1.1776,-1.1776,-1.1776,-1.1776,-1.1776,-1.1776,-1.1857,-1.2028,-1.2101,-1.228,-1.2628,-1.2633,-1.2726,-1.277,-1.277,-1.2231,-1.1097,-1.0041,-0.8709,-0.7174,-0.5103,-0.4167,-0.3901,-0.2961,-0.2759,-0.3027,-0.3027,-0.2826,-0.2554,-0.2532,-0.2325,-0.2121,-0.2091,-0.2081,-0.2075,-0.2045,-0.2016,-0.1995,-0.2007,-0.2001,-0.1992,-0.1992,-0.1984,-0.1977,-0.1977,-0.1977,-0.1977,-0.1977,-0.1977,-0.1977,-0.1977,-0.1977,-0.1977,-0.1977,0.0,-0.1977,-0.1977,-0.1977,-0.1977,-0.1977,-0.1977,-0.1977,-0.1977,-0.1977,-0.1977,-0.1977,-0.0123,0.0986,0.0986,0.2837,0.3889,0.3889,0.3889,0.3889,0.3889,0.3889,0.3889,0.3889,0.3889,0.3889,0.3889,0.3889,0.3889,0.395,0.5297,0.5939,0.6116,0.7485,0.8027,0.8098,0.8098,0.8125,0.8176,0.8253,0.8339,0.8429,-1.1788,-1.1776,-1.1776,-1.1776,-1.1776,-1.1776,-1.1776,-1.1776,-1.1776,-1.1776,-1.1776,-1.1776,-1.1776,-1.1776,-1.1776,-1.1776,-1.1776,-1.1776,-1.1776,-1.1776,-1.1776,-1.1776,-1.1776,-1.1776,-1.1776,-1.1776,-1.1833,-1.1951,-1.2004,-1.2154,-1.2398,-1.2458,-1.258,-1.2751,-1.2751,-1.1984,-1.0634,-0.9908,-0.8376,-0.6376,-0.4903,-0.3831,-0.3094,-0.2423,-0.2216,-0.214,-0.214,-0.2201,-0.2189,-0.2102,-0.2095,-0.209,-0.2059,-0.2044,-0.2033,-0.2011,-0.1992,-0.1977,-0.1977,-0.1977,-0.1977,-0.1977,-0.1977,-0.1977,-0.1977,-0.1977,-0.1977,-0.1977,-0.1977,-0.1977,-0.1977,-0.1977,-0.1977,-0.1977,-0.1977,-0.1977,-0.1977,-0.1977,-0.1977,-0.1977,-0.1977,-0.1977,-0.1977,-0.1977,-0.1977,-0.1977,-0.0123,0.1295,0.1849,0.29,0.358,0.3889,0.3642,0.358,0.3889,0.3889,0.3889,0.3889,0.3889,0.3897,0.3915,0.3915,0.3926,0.4068,0.5434,0.6029,0.6214,0.7605,0.816,0.8172,0.8172,0.8194,0.8301,0.8386,0.844,0.8484,-1.1813,-1.178,-1.178,-1.1776,-1.1776,-1.1776,-1.1776,-1.1776,-1.1776,-1.1776,-1.1776,-1.1776,-1.1776,-1.1776,-1.1776,-1.1776,-1.1776,-1.1776,-1.1776,-1.1776,-1.1776,-1.1776,-1.1776,-1.1776,-1.1776,-1.1776,-1.1776,-1.1776,-1.1947,-1.2028,-1.197,-1.2219,-1.2398,-1.2624,-1.2628,-1.1482,-0.9576,-0.9579,-0.7979,-0.5314,-0.4571,-0.3831,-0.3094,-0.2422,-0.2136,-0.2109,-0.2109,-0.2089,-0.2128,-0.2128,-0.2128,-0.2059,-0.2028,-0.1999,-0.1977,-0.1977,-0.1977,-0.1977,-0.1977,-0.1977,-0.1977,-0.1977,-0.1977,-0.1977,-0.1977,-0.1977,-0.1977,-0.1977,-0.1977,-0.1977,-0.1977,-0.1977,-0.1977,-0.1977,-0.1977,-0.1977,-0.1977,-0.1977,-0.1977,-0.1977,-0.1977,-0.1977,-0.1977,-0.1977,-0.1977,-0.1977,-0.0123,0.1849,0.3765,0.3023,0.29,0.3889,0.2961,0.2961,0.3889,0.3889,0.3889,0.3889,0.3889,0.3919,0.3973,0.3973,0.4068,0.419,0.5602,0.618,0.631,0.7658,0.8172,0.8175,0.8175,0.8312,0.8418,0.8418,0.8489,0.8587,-1.1991,-1.1955,-1.1914,-1.1797,-1.1776,-1.1776,-1.1776,-1.1776,-1.1776,-1.1776,-1.1776,-1.1776,-1.1776,-1.1776,-1.1776,-1.1776,-1.1776,-1.1776,-1.1776,-1.1776,-1.1776,-1.1776,-1.1776,-1.1776,-1.1776,-1.1776,-1.1776,-1.1776,-1.1829,-1.1914,-1.197,-1.2085,-1.2211,-1.2389,-1.2511,-1.1419,-0.9443,-0.9537,-0.7979,-0.5314,-0.4571,-0.3875,-0.3115,-0.2387,-0.2104,-0.2078,-0.2078,-0.2071,-0.2125,-0.2039,-0.2032,-0.2026,-0.1998,-0.1983,-0.1977,-0.1977,-0.1977,-0.1977,-0.1977,-0.1977,-0.1977,-0.1977,-0.1977,-0.1977,-0.1977,-0.1977,-0.1977,-0.1977,-0.1977,-0.1977,-0.1977,-0.1977,-0.1977,-0.1977,-0.1977,-0.1977,-0.1977,-0.1977,-0.1977,-0.1977,-0.1977,-0.1977,-0.1977,-0.1977,-0.1977,-0.1977,-0.0123,0.1541,0.2837,0.2652,0.2652,0.29,0.2652,0.2961,0.3889,0.3889,0.3908,0.3947,0.3947,0.3978,0.4098,0.4098,0.4108,0.419,0.5602,0.6281,0.6471,0.7777,0.841,0.8481,0.8481,0.8505,0.8535,0.8535,0.8557,0.8587,-1.2174,-1.2138,-1.2105,-1.2004,-1.1987,-1.1987,-1.1987,-1.1987,-1.1987,-1.1987,-1.1987,-1.1987,-1.1987,-1.1987,-1.1955,-1.1882,-1.1813,-1.1776,-1.1776,-1.1776,-1.1776,-1.1776,-1.1776,-1.1776,-1.1776,-1.1776,-1.1776,-1.1776,-1.1776,-1.1829,-1.1931,-1.1931,-1.2024,-1.2203,-1.2304,-1.1427,-0.9887,-0.9636,-0.8086,-0.5752,-0.4722,-0.3836,-0.307,-0.2353,-0.2072,-0.2046,-0.2046,-0.2039,-0.2026,-0.2008,-0.2002,-0.1999,-0.1981,-0.1977,-0.1977,-0.1977,-0.1977,-0.1977,-0.1977,-0.1977,-0.1977,-0.1977,-0.1977,-0.1977,-0.1977,-0.1977,-0.1977,-0.1977,-0.1977,-0.1977,-0.1977,-0.1977,-0.1977,-0.1977,-0.1977,-0.1977,-0.1977,-0.1977,-0.1977,-0.1977,-0.1977,-0.1977,-0.1977,-0.1977,-0.1853,-0.1419,-0.0308,0.0863,0.1849,0.1541,0.1665,0.2467,0.2097,0.2535,0.3922,0.3922,0.3939,0.3971,0.3995,0.4102,0.4161,0.4161,0.4174,0.4263,0.57,0.6321,0.6504,0.7891,0.8524,0.8587,0.8587,0.8587,0.8587,0.8587,0.8587,0.8587,-1.2365,-1.2328,-1.2324,-1.2308,-1.2308,-1.2308,-1.2308,-1.2308,-1.2308,-1.2308,-1.2308,-1.2308,-1.2308,-1.2308,-1.2239,-1.2069,-1.1914,-1.1825,-1.1825,-1.1825,-1.1825,-1.1825,-1.1809,-1.1801,-1.1801,-1.1784,-1.1776,-1.1776,-1.1776,-1.1776,-1.1776,-1.1776,-1.1857,-1.2008,-1.1962,-1.1429,-1.0503,-0.9687,-0.8318,-0.6441,-0.4903,-0.3782,-0.3027,-0.2317,-0.2041,-0.2015,-0.2015,-0.1998,-0.1977,-0.1977,-0.1977,-0.1977,-0.1977,-0.1977,-0.1977,-0.1977,-0.1977,-0.1977,-0.1977,-0.1977,-0.1977,-0.1977,-0.1977,-0.1977,-0.1977,-0.1977,-0.1977,-0.1977,-0.1977,-0.1977,-0.1977,-0.1977,-0.1977,-0.1977,-0.1977,-0.1977,-0.1977,-0.1977,-0.1977,-0.1977,-0.1977,-0.1977,-0.1977,-0.1977,-0.1605,-0.0555,-0.0493,-0.0123,0.0801,0.0,0.037,0.2286,0.1483,0.199,0.3979,0.3985,0.3987,0.3989,0.4108,0.4165,0.4225,0.4225,0.4255,0.4374,0.5714,0.6319,0.6518,0.792,0.852,0.8587,0.8587,0.8587,0.8587,0.8587,0.8587,0.8587,-1.2544,-1.2507,-1.2467,-1.2328,-1.2308,-1.2308,-1.2308,-1.2308,-1.2308,-1.2308,-1.2308,-1.2308,-1.2308,-1.2308,-1.2288,-1.2247,-1.2215,-1.219,-1.219,-1.219,-1.219,-1.219,-1.2052,-1.1975,-1.1975,-1.1845,-1.1776,-1.1776,-1.1776,-1.1776,-1.1776,-1.1776,-1.1797,-1.1837,-1.1971,-1.0991,-0.9346,-0.9297,-0.8119,-0.6182,-0.472,-0.4045,-0.3738,-0.2471,-0.201,-0.1986,-0.1986,-0.1981,-0.1977,-0.1977,-0.1977,-0.1977,-0.1977,-0.1977,-0.1977,-0.1977,-0.1977,-0.1977,-0.1977,-0.1977,-0.1977,-0.1977,-0.1977,-0.1977,-0.1977,-0.1977,-0.1977,-0.1977,-0.1977,-0.1977,-0.1977,-0.1977,-0.1977,-0.1977,-0.1977,-0.1977,-0.1977,-0.1977,-0.1977,-0.1977,-0.1977,-0.1977,-0.1977,-0.1977,-0.1605,-0.0555,-0.0493,-0.0431,-0.0185,-0.037,0.0062,0.138,0.1192,0.2022,0.4041,0.4154,0.4177,0.4177,0.4191,0.4229,0.4288,0.4288,0.4294,0.4375,0.5247,0.5917,0.6453,0.7383,0.8051,0.8587,0.8587,0.8587,0.8587,0.8587,0.8587,0.8587,-1.2714,-1.2694,-1.2666,-1.2576,-1.256,-1.256,-1.256,-1.256,-1.256,-1.256,-1.256,-1.256,-1.256,-1.256,-1.2523,-1.2438,-1.2353,-1.2308,-1.2308,-1.2308,-1.2308,-1.2308,-1.2215,-1.2162,-1.2162,-1.2077,-1.1947,-1.1776,-1.1776,-1.1776,-1.1776,-1.1776,-1.1776,-1.178,-1.187,-1.1046,-0.9575,-0.9281,-0.8232,-0.6616,-0.4829,-0.4046,-0.387,-0.2516,-0.2009,-0.1999,-0.2013,-0.2018,-0.2016,-0.2001,-0.1996,-0.1994,-0.1981,-0.1977,-0.1977,-0.1977,-0.1977,-0.1977,-0.1977,-0.1977,-0.1977,-0.1977,-0.1977,-0.1977,-0.1977,-0.1977,-0.1977,-0.1977,-0.1977,-0.1977,-0.1977,-0.1977,-0.1977,-0.1977,-0.1977,-0.1977,-0.1977,-0.1977,-0.1977,-0.1977,-0.1977,-0.1977,-0.1977,-0.1977,-0.1791,-0.1234,-0.1234,-0.1238,-0.1246,-0.1246,-0.0502,0.1019,0.1084,0.2054,0.4103,0.42,0.4232,0.426,0.426,0.4277,0.4308,0.4308,0.4308,0.4308,0.5112,0.5783,0.6453,0.7183,0.7917,0.8587,0.8587,0.8587,0.8587,0.8587,0.8587,0.8587,-1.277,-1.277,-1.277,-1.277,-1.277,-1.277,-1.277,-1.277,-1.277,-1.277,-1.277,-1.277,-1.277,-1.277,-1.2775,-1.2625,-1.2479,-1.2398,-1.2398,-1.2398,-1.2398,-1.2398,-1.2365,-1.2353,-1.2353,-1.232,-1.2162,-1.187,-1.187,-1.187,-1.187,-1.187,-1.1849,-1.1821,-1.1821,-1.119,-1.0008,-0.927,-0.8276,-0.6983,-0.4888,-0.4011,-0.3793,-0.252,-0.2026,-0.203,-0.2054,-0.2128,-0.206,-0.2035,-0.2026,-0.2022,-0.1999,-0.1992,-0.1992,-0.1992,-0.1992,-0.1992,-0.1992,-0.1992,-0.1992,-0.1992,-0.1992,-0.1992,-0.1992,-0.1988,-0.1984,-0.1984,-0.1988,-0.1992,-0.1992,-0.1992,-0.1992,-0.1992,-0.1992,-0.1992,-0.1992,-0.1992,-0.1992,-0.1992,-0.1992,-0.1992,-0.1992,-0.1992,-0.1992,-0.1992,-0.1992,-0.2002,-0.2025,-0.2026,-0.1084,0.097,0.1036,0.202,0.4166,0.4232,0.4258,0.4308,0.4308,0.4308,0.4308,0.4308,0.4308,0.4308,0.4978,0.5649,0.6451,0.7049,0.7851,0.8587,0.8587,0.8587,0.8587,0.8587,0.8587,0.8587,-1.277,-1.277,-1.277,-1.277,-1.277,-1.277,-1.277,-1.277,-1.277,-1.277,-1.277,-1.277,-1.277,-1.277,-1.2762,-1.28,-1.2779,-1.2697,-1.2697,-1.2697,-1.2697,-1.2697,-1.2613,-1.2527,-1.2527,-1.2385,-1.2284,-1.2235,-1.2235,-1.2235,-1.2235,-1.2235,-1.215,-1.1996,-1.1996,-1.0858,-0.9022,-0.8857,-0.7817,-0.6033,-0.4597,-0.4061,-0.391,-0.2569,-0.2058,-0.2059,-0.2127,-0.2128,-0.2128,-0.2059,-0.2058,-0.2057,-0.2117,-0.2116,-0.2116,-0.2116,-0.2116,-0.2116,-0.2116,-0.2116,-0.2116,-0.2116,-0.2116,-0.2116,-0.2116,-0.2032,-0.2013,-0.2013,-0.2034,-0.2116,-0.2116,-0.2116,-0.2116,-0.2116,-0.2116,-0.2116,-0.2116,-0.2116,-0.2116,-0.2116,-0.2116,-0.2116,-0.2116,-0.2116,-0.2116,-0.2116,-0.2116,-0.2118,-0.2058,-0.2058,-0.11,0.1051,0.1117,0.2116,0.4294,0.4294,0.4298,0.4308,0.4308,0.4308,0.4308,0.4308,0.4308,0.4308,0.4374,0.518,0.6386,0.6518,0.7388,0.8587,0.8587,0.8587,0.8587,0.8587,0.8587,0.8587,-1.277,-1.277,-1.277,-1.277,-1.277,-1.277,-1.277,-1.277,-1.277,-1.277,-1.277,-1.277,-1.277,-1.277,-1.277,-1.277,-1.277,-1.277,-1.277,-1.277,-1.277,-1.277,-1.2759,-1.2718,-1.2718,-1.2641,-1.2605,-1.2605,-1.2406,-1.2308,-1.2308,-1.2308,-1.2264,-1.2186,-1.2186,-1.1007,-0.9003,-0.9003,-0.7909,-0.5998,-0.504,-0.4421,-0.4001,-0.3057,-0.248,-0.2091,-0.2174,-0.218,-0.2178,-0.2095,-0.2089,-0.2086,-0.2069,-0.2128,-0.2128,-0.2128,-0.2128,-0.2128,-0.2128,-0.2128,-0.2128,-0.2128,-0.2128,-0.2128,-0.2128,-0.2067,-0.2064,-0.2048,-0.2054,-0.2128,-0.2128,-0.2128,-0.2128,-0.2128,-0.2128,-0.2128,-0.2128,-0.2128,-0.2128,-0.2128,-0.2128,-0.2128,-0.2128,-0.2128,-0.2128,-0.2128,-0.2128,-0.2071,-0.2089,-0.2089,-0.1117,0.0999,0.1133,0.2138,0.4308,0.4308,0.4308,0.4308,0.4308,0.4308,0.4308,0.4308,0.4308,0.4308,0.4308,0.4911,0.585,0.6252,0.7051,0.8051,0.8454,0.8587,0.8587,0.8587,0.8587,0.8587]},{"header":{"parameterUnit":"m.s-1","parameterCategory":1,"la1":30.6,"la2":28.766,"lo1":-90.7593,"lo2":-88.6598,"dy":0.0162,"dx":0.0183,"nx":116,"ny":114,"refTime":"2023-04-14T12:00:00:Z","depth":0,"parameterNumber":3,"parameterNumberName":"V-component_of_WINDS"},"data":[0.0,0.0,0.0,0.0,0.0,0.0,0.0,0.0,0.0,0.0,0.0,0.0,0.0,0.0,0.0,0.0,0.0,0.0,0.0,0.0,0.0,0.0,0.0,0.0,0.0,0.0,0.0,0.0,0.0,0.0,0.0,0.0,0.0,0.0,0.0,0.0,0.0,0.0,0.0,0.0,0.0,0.0,0.0,0.0,0.0,0.0,0.0,0.0,0.0,0.0,0.0,0.0,0.0,0.0,0.0,0.0,0.0,0.0,0.0,0.0,0.0,0.0,0.0,0.0,0.0,0.0,0.0,0.0,0.0,0.0,0.0,0.0,0.0,0.0,0.0,0.0,0.0,0.0,0.0,0.0,0.0,0.0,0.0,0.0,0.0,0.0,0.0,0.0,0.0,0.0,0.0,0.0,0.0,0.0,0.0,0.0,0.0,0.0,0.0,0.0,0.0,0.0,0.0,0.0,0.0,0.0,0.0,0.0,0.0,0.0,0.0,0.0,0.0,0.0,0.0,0.0,0.0,0.0,0.0,0.0,0.0,0.0,0.0,0.0,0.0,0.0,0.0,0.0,0.0,0.0,0.0,0.0,0.0,0.0,0.0,0.0,0.0,0.0,0.0,0.0,0.0,0.0,0.0,0.0,0.0,0.0,0.0,0.0,0.0,0.0,0.0,0.0,0.0,0.0,0.0,0.0,0.0,0.0,0.0,0.0,0.0,0.0,0.0,0.0,0.0,0.0,0.0,0.0,0.0,0.0,0.0,0.0,0.0,0.0,0.0,0.0,0.0,0.0,0.0,0.0,0.0,0.0,0.0,0.0,0.0,0.0,0.0,0.0,0.0,0.0,0.0,0.0,0.0,0.0,0.0,0.0,0.0,0.0,0.0,0.0,0.0,0.0,0.0,0.0,0.0,0.0,0.0,0.0,0.0,0.0,0.0,0.0,0.0,0.0,0.0,0.0,0.0,0.0,0.0,0.0,0.0,0.0,0.0,0.0,0.0,0.0,0.0,0.0,0.0,0.0,0.0,0.0,0.0,0.0,0.0,0.0,0.0,0.0,0.0,0.0,0.0,0.0,0.0,0.0,0.0,0.0,0.0,0.0,0.0,0.0,0.0,0.0,0.0,0.0,0.0,0.0,0.0,0.0,0.0,0.0,0.0,0.0,0.0,0.0,0.0,0.0,0.0,0.0,0.0,0.0,0.0,0.0,0.0,0.0,0.0,0.0,0.0,0.0,0.0,0.0,0.0,0.0,0.0,0.0,0.0,0.0,0.0,0.0,0.0,0.0,0.0,0.0,0.0,0.0,0.0,0.0,0.0,0.0,0.0,0.0,0.0,0.0,0.0,0.0,0.0,0.0,0.0,0.0,0.0,0.0,0.0,0.0,0.0,0.0,0.0,0.0,0.0,0.0,0.0,0.0,0.0,0.0,0.0,0.0,0.0,0.0,0.0,0.0,0.0,0.0,0.0,0.0,0.0,0.0,0.0,0.0,0.0,0.0,0.0,0.0,0.0,0.0,0.0,0.0,0.0,0.0,0.0,0.0,0.0,0.0,0.0,0.0,0.0,0.0,0.0,0.0,0.0,0.0,0.0,0.0,0.0,0.0,0.0,0.0,0.0,0.0,0.0,0.0,0.0,0.0,0.0,0.0,0.0,0.0,0.0,0.0,0.0,0.0,0.0,0.0,0.0,0.0,0.0,0.0,0.0,0.0,0.0,0.0,0.0,0.0,0.0,0.0,0.0,0.0,0.0,0.0,0.0,0.0,0.0,0.0,0.0,0.0,0.0,0.0,0.0,0.0,0.0,0.0,0.0,0.0,0.0,0.0,0.0,0.0,0.0,0.0,0.0,0.0,0.0,0.0,0.0,0.0,0.0,0.0,0.0,0.0,0.0,0.0,0.0,0.0,0.0,0.0,0.0,0.0,0.0,0.0,0.0,0.0,0.0,0.0,0.0,0.0,0.0,0.0,0.0,0.0,0.0,0.0,0.0,0.0,0.0,0.0,0.0,0.0,0.0,0.0,0.0,0.0,0.0,0.0,0.0,0.0,0.0,0.0,0.0,0.0,0.0,0.0,0.0,0.0,0.0,0.0,0.0,0.0,0.0,0.0,0.0,0.0,0.0,0.0,0.0,0.0,0.0,0.0,0.0,0.0,0.0,0.0,0.0,0.0,0.0,0.0,0.0,0.0,0.0,0.0,0.0,0.0,0.0,0.0,0.0,0.0,0.0,0.0,0.0,0.0,0.0,0.0,0.0,0.0,0.0,0.0,0.0,0.0,0.0,0.0,0.0,0.0,0.0,0.0,0.0,0.0,0.0,0.0,0.0,0.0,0.0,0.0,0.0,0.0,0.0,0.0,0.0,0.0,0.0,0.0,0.0,0.0,0.0,0.0,0.0,0.0,0.0,0.0,0.0,0.0,0.0,0.0,0.0,0.0,0.0,0.0,0.0,0.0,0.0,0.0,0.0,0.0,0.0,0.0,0.0,0.0,0.0,0.0,0.0,0.0,0.0,0.0,0.0,0.0,0.0,0.0,0.0,0.0,0.0,0.0,0.0,0.0,0.0,0.0,0.0,0.0,0.0,0.0,0.0,0.0,0.0,0.0,0.0,0.0,0.0,0.0,0.0,0.0,0.0,0.0,0.0,0.0,0.0,0.0,0.0,0.0,0.0,0.0,0.0,0.0,0.0,0.0,0.0,0.0,0.0,0.0,0.0,0.0,0.0,0.0,0.0,0.0,0.0,0.0,0.0,0.0,0.0,0.0,0.0,0.0,0.0,0.0,0.0,0.0,0.0,0.0,0.0,0.0,0.0,0.0,0.0,0.0,0.0,0.0,0.0,0.0,0.0,0.0,0.0,0.0,0.0,0.0,0.0,0.0,0.0,0.0,0.0,0.0,0.0,0.0,0.0,0.0,0.0,0.0,0.0,0.0,0.0,0.0,0.0,0.0,0.0,0.0,0.0,0.0,0.0,0.0,0.0,0.0,0.0,0.0,0.0,0.0,0.0,0.0,0.0,0.0,0.0,0.0,0.0,0.0,0.0,0.0,0.0,0.0,0.0,0.0,0.0,0.0,0.0,0.0,0.0,0.0,0.0,0.0,0.0,0.0,0.0,0.0,0.0,0.0,0.0,0.0,0.0,0.0,0.0,0.0,0.0,0.0,0.0,0.0,0.0,0.0,0.0,0.0,0.0,0.0,0.0,0.0,0.0,0.0,0.0,0.0,0.0,0.0,0.0,0.0,0.0,0.0,0.0,0.0,0.0,0.0,0.0,0.0,0.0,0.0,0.0,0.0,0.0,0.0,0.0,0.0,0.0,0.0,0.0,0.0,0.0,0.0,0.0,0.0,0.0,0.0,0.0,0.0,0.0,0.0,0.0,0.0,0.0,0.0,0.0,0.0,0.0,0.0,0.0,0.0,0.0,0.0,0.0,0.0,0.0,0.0,0.0,0.0,0.0,0.0,0.0,0.0,0.0,0.0,0.0,0.0,0.0,0.0,0.0,0.0,0.0,0.0,0.0,0.0,0.0,0.0,0.0,0.0,0.0,0.0,0.0,0.0,0.0,0.0,0.0,0.0,0.0,0.0,0.0,0.0,0.0,0.0,0.0,0.0,0.0,0.0,0.0,0.0,0.0,0.0,0.0,0.0,0.0,0.0,0.0,0.0,0.0,0.0,0.0,0.0,0.0,0.0,0.0,0.0,0.0,0.0,0.0,0.0,0.0,0.0,0.0,0.0,0.0,0.0,0.0,0.0,0.0,0.0,0.0,0.0,0.0,0.0,0.0,0.0,0.0,0.0,0.0,0.0,0.0,0.0,0.0,0.0,0.0,0.0,0.0,0.0,0.0,0.0,0.0,0.0,0.0,0.0,0.0,0.0,0.0,0.0,0.0,0.0,0.0,0.0,0.0,0.0,0.0,0.0,0.0,0.0,0.0,0.0,0.0,0.0,0.0,0.0,0.0,0.0,0.0,0.0,0.0,0.0,0.0,0.0,0.0,0.0,0.0,0.0,0.0,0.0,0.0,0.0,0.0,0.0,0.0,0.0,0.0,0.0,0.0,0.0,0.0,0.0,0.0,0.0,0.0,0.0,0.0,0.0,0.0,0.0,0.0,0.0,0.0,0.0,0.0,0.0,0.0,0.0,0.0,0.0,0.0,0.0,0.0,0.0,0.0,0.0,0.0,0.0,0.0,0.0,0.0,0.0,0.0,0.0,0.0,0.0,0.0,0.0,0.0,0.0,0.0,0.0,0.0,0.0,0.0,0.0,0.0,0.0,0.0,0.0,0.0,0.0,0.0,0.0,0.0,0.0,0.0,0.0,0.0,0.0,0.0,0.0,0.0,0.0,0.0,0.0,0.0,0.0,0.0,0.0,0.0,0.0,0.0,0.0,0.0,0.0,0.0,0.0,0.0,0.0,0.0,0.0,0.0,0.0,0.0,0.0,0.0,0.0,0.0,0.0,0.0,0.0,0.0,0.0,0.0,0.0,0.0,0.0,0.0,0.0,0.0,0.0,0.0,0.0,0.0,0.0,0.0,0.0,0.0,0.0,0.0,0.0,0.0,0.0,0.0,0.0,0.0,0.0,0.0,0.0,0.0,0.0,0.0,0.0,0.0,0.0,0.0,0.0,0.0,0.0,0.0,0.0,0.0,0.0,0.0,0.0,0.0,0.0,0.0,0.0,0.0,0.0,0.0,0.0,0.0,0.0,0.0,0.0,0.0,0.0,0.0,0.0,0.0,0.0,0.0,0.0,0.0,0.0,0.0,0.0,0.0,0.0,0.0,0.0,0.0,0.0,0.0,0.0,0.0,0.0,0.0,0.0,0.0,0.0,0.0,0.0,0.0,0.0,0.0,0.0,0.0,0.0,0.0,0.0,0.0,0.0,0.0,0.0,0.0,0.0,0.0,0.0,0.0,0.0,0.0,0.0,0.0,0.0,0.0,0.0,0.0,0.0,0.0,0.0,0.0,0.0,0.0,0.0,0.0,0.0,0.0,0.0,0.0,0.0,0.0,0.0,0.0,0.0,0.0,0.0,0.0,0.0,0.0,0.0,0.0,0.0,0.0,0.0,0.0,0.0,0.0,0.0,0.0,0.0,0.0,0.0,0.0,0.0,0.0,0.0,0.0,0.0,0.0,0.0,0.0,0.0,0.0,0.0,0.0,0.0,0.0,0.0,0.0,0.0,0.0,0.0,0.0,0.0,0.0,0.0,0.0,0.0,0.0,0.0,0.0,0.0,0.0,0.0,0.0,0.0,0.0,0.0,0.0,0.0,0.0,0.0,0.0,0.0,0.0,0.0,0.0,0.0,0.0,0.0,0.0,0.0,0.0,0.0,0.0,0.0,0.0,0.0,0.0,0.0,0.0,0.0,0.0,0.0,0.0,0.0,0.0,0.0,0.0,0.0,0.0,0.0,0.0,0.0,0.0,0.0,0.0,0.0,0.0,0.0,0.0,0.0,0.0,0.0,0.0,0.0,0.0,0.0,0.0,0.0,0.0,0.0,0.0,0.0,0.0,0.0,0.0,0.0,0.0,0.0,0.0,0.0,0.0,0.0,0.0,0.0,0.0,0.0,0.0,0.0,0.0,0.0,0.0,0.0,0.0,0.0,0.0,0.0,0.0,0.0,0.0,0.0,0.0,0.0,0.0,0.0,0.0,0.0,0.0,0.0,0.0,0.0,0.0,0.0,0.0,0.0,0.0,0.0,0.0,0.0,0.0,0.0,0.0,0.0,0.0,0.0,0.0,0.0,0.0,0.0,0.0,0.0,0.0,0.0,0.0,0.0,0.0,0.0,0.0,0.0,0.0,0.0,0.0,0.0,0.0,0.0,0.0,0.0,0.0,0.0,0.0,0.0,0.0,0.0,0.0,0.0,0.0,0.0,0.0,0.0,0.0,0.0,0.0,0.0,0.0,0.0,0.0,0.0,0.0,0.0,0.0,0.0,0.0,0.0,0.0,0.0,0.0,0.0,0.0,0.0,0.0,0.0,0.0,0.0,0.0,0.0,0.0,0.0,0.0,0.0,0.0,0.0,0.0,0.0,0.0,0.0,0.0,0.0,0.0,0.0,0.0,0.0,0.0,0.0,0.0,0.0,0.0,0.0,3.5616,0.0,0.0,0.0,0.0,0.0,0.0,0.0,0.0,0.0,0.0,0.0,0.0,0.0,0.0,0.0,0.0,0.0,0.0,0.0,0.0,0.0,0.0,0.0,0.0,0.0,0.0,0.0,0.0,0.0,0.0,0.0,0.0,0.0,0.0,0.0,0.0,0.0,0.0,0.0,0.0,0.0,0.0,0.0,0.0,0.0,0.0,0.0,0.0,0.0,0.0,0.0,0.0,0.0,0.0,0.0,0.0,0.0,0.0,0.0,0.0,0.0,0.0,0.0,0.0,0.0,0.0,0.0,0.0,0.0,0.0,0.0,0.0,0.0,0.0,0.0,0.0,0.0,0.0,0.0,0.0,0.0,0.0,0.0,0.0,0.0,0.0,0.0,0.0,0.0,0.0,0.0,0.0,0.0,0.0,0.0,0.0,0.0,0.0,0.0,0.0,0.0,0.0,0.0,0.0,0.0,0.0,0.0,0.0,0.0,0.0,0.0,0.0,0.0,0.0,0.0,0.0,3.5639,0.0,0.0,0.0,0.0,0.0,0.0,0.0,0.0,0.0,0.0,0.0,0.0,0.0,0.0,0.0,0.0,0.0,0.0,0.0,0.0,0.0,0.0,0.0,0.0,0.0,0.0,0.0,0.0,0.0,0.0,0.0,0.0,0.0,0.0,0.0,0.0,0.0,0.0,0.0,0.0,0.0,0.0,0.0,0.0,0.0,0.0,0.0,0.0,0.0,0.0,0.0,0.0,0.0,0.0,0.0,0.0,0.0,0.0,0.0,0.0,0.0,0.0,0.0,0.0,0.0,0.0,0.0,0.0,0.0,0.0,0.0,0.0,0.0,0.0,0.0,0.0,0.0,0.0,0.0,0.0,0.0,0.0,0.0,0.0,0.0,0.0,0.0,0.0,0.0,0.0,0.0,0.0,0.0,0.0,0.0,0.0,0.0,0.0,0.0,0.0,0.0,0.0,0.0,0.0,0.0,0.0,0.0,0.0,3.5673,3.5695,3.5697,3.5697,3.5707,3.5723,3.5723,3.5713,3.5697,3.5718,0.0,0.0,0.0,0.0,0.0,0.0,0.0,0.0,0.0,0.0,0.0,0.0,0.0,0.0,0.0,0.0,0.0,0.0,0.0,0.0,0.0,0.0,0.0,0.0,0.0,0.0,0.0,0.0,0.0,0.0,0.0,0.0,0.0,0.0,0.0,0.0,0.0,0.0,3.932,3.9275,3.9248,3.9221,0.0,0.0,0.0,0.0,0.0,0.0,0.0,0.0,0.0,0.0,0.0,0.0,0.0,0.0,0.0,0.0,0.0,0.0,0.0,0.0,0.0,0.0,0.0,0.0,0.0,0.0,0.0,0.0,0.0,0.0,0.0,0.0,0.0,0.0,0.0,0.0,0.0,0.0,0.0,0.0,0.0,0.0,0.0,0.0,3.5693,3.5693,0.0,0.0,0.0,0.0,0.0,0.0,0.0,0.0,0.0,0.0,0.0,0.0,0.0,3.5693,3.5693,3.5698,3.5679,3.5679,3.5704,3.5698,3.57,3.57,3.5722,3.5788,3.5788,0.0,3.5704,3.5762,0.0,0.0,0.0,0.0,0.0,0.0,0.0,0.0,0.0,0.0,0.0,0.0,0.0,0.0,0.0,0.0,0.0,0.0,0.0,0.0,0.0,0.0,0.0,0.0,0.0,0.0,0.0,0.0,0.0,0.0,0.0,0.0,0.0,0.0,0.0,0.0,3.8952,3.9296,3.9502,3.9502,3.9502,3.9502,3.9335,3.9296,3.9405,3.9346,0.0,0.0,0.0,0.0,0.0,0.0,0.0,0.0,0.0,0.0,0.0,0.0,0.0,0.0,0.0,0.0,0.0,0.0,0.0,0.0,0.0,0.0,0.0,0.0,0.0,0.0,0.0,0.0,0.0,0.0,0.0,0.0,0.0,0.0,0.0,0.0,0.0,0.0,0.0,3.6903,3.6361,3.6361,3.5944,3.5668,0.0,0.0,0.0,0.0,0.0,0.0,0.0,0.0,0.0,3.5704,3.6149,3.6361,3.6361,3.6864,3.7116,3.7116,3.7116,3.7099,3.7108,3.7108,3.7114,3.7156,3.7187,3.7187,3.7081,3.6174,3.5791,3.5791,0.0,0.0,0.0,0.0,3.5926,3.5955,0.0,0.0,0.0,0.0,0.0,0.0,0.0,0.0,0.0,0.0,0.0,0.0,0.0,0.0,0.0,3.7757,0.0,0.0,0.0,0.0,0.0,0.0,0.0,0.0,0.0,0.0,0.0,0.0,3.9393,3.9558,3.9589,3.9589,3.9589,3.9589,3.9589,3.954,3.9457,3.9444,3.9373,0.0,0.0,0.0,0.0,0.0,0.0,0.0,0.0,0.0,0.0,0.0,0.0,0.0,0.0,0.0,0.0,0.0,0.0,0.0,0.0,0.0,0.0,0.0,0.0,0.0,0.0,0.0,0.0,0.0,0.0,0.0,0.0,0.0,0.0,0.0,0.0,0.0,0.0,3.7773,3.7232,3.7232,3.6516,3.6091,0.0,0.0,0.0,0.0,0.0,0.0,3.6342,3.6342,3.6342,3.6342,3.6922,3.7232,3.7262,3.7901,3.823,3.8241,3.8241,3.8233,3.8241,3.8241,3.8257,3.8287,3.8327,3.8341,3.8247,3.6991,3.6487,3.646,3.6248,3.6198,3.6261,3.6261,3.6288,3.6365,0.0,0.0,0.0,0.0,0.0,0.0,0.0,0.0,0.0,0.0,0.0,0.0,0.0,0.0,3.8241,3.8175,3.8523,3.8582,0.0,0.0,0.0,0.0,0.0,0.0,0.0,0.0,0.0,3.9564,3.9596,3.9608,3.9589,3.9589,3.9589,3.9589,3.9589,3.9608,3.9596,3.952,3.9495,3.9482,0.0,0.0,0.0,0.0,0.0,0.0,0.0,0.0,0.0,0.0,0.0,0.0,0.0,0.0,0.0,0.0,0.0,0.0,0.0,0.0,0.0,0.0,0.0,0.0,0.0,0.0,0.0,0.0,0.0,0.0,0.0,0.0,0.0,0.0,0.0,0.0,0.0,0.0,0.0,3.8135,3.7367,0.0,0.0,0.0,0.0,3.7999,3.8077,3.8077,3.8077,3.8077,3.8077,3.8077,3.8115,3.8172,3.8225,3.8269,3.8299,3.8281,3.8281,3.8336,3.8397,3.8397,3.8413,3.8485,3.8494,3.8486,3.8484,3.8324,3.8309,3.8283,3.7449,3.7167,3.7221,3.7221,3.7221,3.7357,0.0,0.0,0.0,0.0,0.0,0.0,0.0,0.0,0.0,0.0,0.0,0.0,0.0,3.8322,3.8352,3.832,3.8612,3.873,3.86,0.0,0.0,0.0,0.0,0.0,0.0,0.0,3.9533,3.9654,3.9654,3.9637,3.9589,3.9589,3.9589,3.9589,3.9589,3.9589,3.9608,3.9564,3.9546,3.9495,3.9469,3.9399,0.0,0.0,0.0,0.0,0.0,0.0,0.0,0.0,0.0,0.0,0.0,0.0,0.0,0.0,0.0,0.0,0.0,0.0,0.0,0.0,0.0,0.0,0.0,0.0,0.0,0.0,0.0,0.0,0.0,0.0,0.0,0.0,0.0,0.0,0.0,0.0,0.0,3.9036,3.8276,0.0,3.8174,3.7922,3.7864,3.8174,3.8193,3.8193,3.8193,3.8235,3.8504,3.9027,3.9586,4.0145,4.0743,4.13,4.1577,4.1582,4.1582,4.1585,4.1621,4.1652,4.1696,4.1721,4.1727,4.1727,4.1726,4.1735,4.049,3.8535,3.8222,3.8123,3.8138,3.8138,3.8136,3.8173,0.0,0.0,0.0,0.0,0.0,0.0,0.0,0.0,0.0,0.0,0.0,3.8307,3.8338,3.8401,3.8415,3.8399,3.8703,3.8818,3.8688,0.0,0.0,0.0,0.0,0.0,0.0,3.9611,3.9724,3.9781,3.9781,3.9735,3.9691,3.9691,3.9679,3.9644,3.9644,3.9619,3.9589,3.9589,3.9564,3.9533,3.9533,3.9495,3.9375,0.0,0.0,0.0,0.0,0.0,0.0,0.0,0.0,0.0,0.0,0.0,0.0,0.0,0.0,0.0,0.0,0.0,0.0,0.0,0.0,0.0,0.0,0.0,0.0,0.0,0.0,0.0,0.0,0.0,0.0,0.0,0.0,0.0,0.0,0.0,3.9944,3.9937,3.9182,3.8769,3.904,3.9079,3.9195,3.9491,3.9801,3.9956,3.9956,3.9998,4.0261,4.0809,4.1383,4.1962,4.2535,4.3135,4.3428,4.3437,4.3456,4.3473,4.3473,4.3513,4.3536,4.352,4.3556,4.3572,4.3573,4.3625,4.2324,4.0282,3.9995,3.9877,3.9871,3.9871,3.9889,3.9924,0.0,0.0,0.0,0.0,0.0,0.0,0.0,0.0,0.0,0.0,3.8307,3.8322,3.8401,3.8462,3.8478,3.8415,3.8826,3.8917,3.8446,3.8711,0.0,0.0,0.0,0.0,3.9599,3.9804,3.9911,3.99,3.99,3.99,3.99,3.99,3.9826,3.9705,3.9705,3.9665,3.9602,3.9602,3.962,3.9602,3.9589,3.9571,3.9495,0.0,0.0,0.0,0.0,0.0,0.0,0.0,0.0,0.0,0.0,0.0,0.0,0.0,0.0,0.0,0.0,0.0,0.0,0.0,0.0,0.0,0.0,0.0,0.0,0.0,0.0,0.0,0.0,0.0,0.0,0.0,0.0,0.0,4.08,4.082,4.0851,4.0846,4.0172,4.0017,4.0807,4.0884,4.1239,4.2072,4.2925,4.341,4.341,4.341,4.341,4.3449,4.3449,4.3466,4.3474,4.3545,4.3575,4.3588,4.3652,4.3672,4.3672,4.3672,4.3674,4.3675,4.3749,4.3789,4.3788,4.3774,4.3783,4.3689,4.2791,4.2436,4.2435,4.2435,4.2435,4.2552,0.0,0.0,0.0,0.0,0.0,0.0,0.0,0.0,0.0,0.0,3.8354,3.8401,3.8462,3.8593,3.8643,3.8627,3.8921,3.9045,3.8931,0.0,0.0,0.0,0.0,0.0,3.9954,4.0117,4.0137,4.0046,4.0046,4.0005,3.99,3.99,3.9878,3.9856,3.9856,3.9834,3.983,3.983,3.9766,3.9665,3.9607,3.9596,3.9583,0.0,0.0,0.0,0.0,0.0,0.0,0.0,0.0,0.0,0.0,0.0,0.0,0.0,0.0,0.0,0.0,0.0,0.0,0.0,0.0,0.0,0.0,0.0,0.0,0.0,0.0,0.0,0.0,0.0,0.0,0.0,0.0,4.1524,4.0893,4.1338,4.1732,4.1743,4.2111,4.2441,4.2654,4.2693,4.279,4.3022,4.3255,4.341,4.341,4.3388,4.3691,4.4311,4.4392,4.4699,4.5273,4.5351,4.5393,4.5381,4.5443,4.5482,4.5483,4.5483,4.5487,4.5487,4.556,4.559,4.559,4.5583,4.5597,4.5443,4.3929,4.334,4.3333,4.3333,4.3333,4.3372,0.0,0.0,0.0,0.0,0.0,0.0,0.0,0.0,0.0,0.0,3.8385,3.8465,3.8559,3.8658,3.8707,3.8707,3.8837,3.8921,3.8921,0.0,0.0,0.0,0.0,3.9916,4.0166,4.0253,4.0253,4.0176,4.0176,4.0147,4.0057,4.0057,4.0036,3.9975,3.9975,3.9943,3.99,3.99,3.9867,3.9781,3.9731,3.9686,3.9589,3.9589,3.9589,3.9589,3.9589,3.9589,3.9589,3.9589,0.0,0.0,0.0,0.0,0.0,0.0,0.0,0.0,0.0,0.0,0.0,0.0,0.0,0.0,0.0,0.0,0.0,0.0,0.0,0.0,0.0,0.0,0.0,0.0,4.2632,4.2925,4.2047,4.2352,4.2657,4.2687,4.3133,4.3444,4.3444,4.3774,4.3987,4.3987,4.4298,4.4497,4.4497,4.4494,4.4713,4.5237,4.5273,4.5536,4.6046,4.6443,4.6662,4.6683,4.7104,4.7285,4.7285,4.7283,4.7299,4.7299,4.7323,4.7354,4.7354,4.7354,4.7354,0.0,0.0,0.0,0.0,0.0,4.4797,4.4797,0.0,0.0,0.0,0.0,0.0,0.0,0.0,0.0,0.0,0.0,0.0,3.8481,3.8692,3.8707,3.8707,3.8707,3.8707,3.8723,0.0,0.0,0.0,3.9881,3.9924,4.0067,4.0301,4.0301,4.0301,4.0301,4.0301,4.0301,4.0301,4.0301,4.0234,4.0127,4.0127,4.0057,3.9962,3.9962,3.9933,3.9922,3.9922,3.9808,3.9638,3.9638,3.9638,3.9626,3.9614,3.9614,3.9614,3.9602,0.0,0.0,0.0,0.0,0.0,0.0,0.0,0.0,0.0,0.0,0.0,0.0,0.0,0.0,0.0,0.0,0.0,0.0,0.0,0.0,0.0,0.0,0.0,0.0,4.4194,4.452,4.3763,4.3762,4.3795,4.3661,4.3724,4.3782,4.3782,4.4579,4.5084,4.5084,4.5822,4.6293,4.6293,0.0,0.0,0.0,0.0,4.6322,4.6385,4.7166,4.7588,4.7656,4.8423,4.8798,4.8798,4.8798,4.8798,4.8798,4.8798,4.8798,4.8798,4.8798,4.8798,4.8642,4.7159,4.6534,4.6456,4.6456,4.6378,4.63,0.0,0.0,0.0,0.0,0.0,0.0,0.0,0.0,0.0,3.8382,3.8446,3.8544,3.8673,3.8707,3.8707,3.8707,3.8707,3.8795,0.0,0.0,3.9785,3.9903,4.0108,4.0244,4.0301,4.0301,4.0301,4.0301,4.0301,4.0301,4.0301,4.0301,4.0291,4.0253,4.0253,4.0244,4.0225,4.0225,4.0157,4.0057,4.0057,3.9973,3.9834,3.9834,3.9834,3.9823,3.9712,3.9689,3.9677,3.9626,3.9589,3.9589,3.9589,0.0,0.0,0.0,0.0,0.0,0.0,0.0,0.0,0.0,0.0,0.0,0.0,0.0,0.0,0.0,0.0,0.0,0.0,0.0,0.0,4.3513,4.4194,4.4734,4.4579,4.57,4.6049,4.4715,4.5122,4.5511,4.5511,4.6307,4.6832,4.6832,4.7609,4.8094,4.8094,4.8094,4.8122,4.8183,4.8187,4.8188,4.8207,4.8412,4.8535,4.8554,0.0,0.0,4.8798,4.8798,4.8798,4.8798,4.8798,4.8798,4.8798,4.8798,4.8798,4.8779,4.8447,4.792,4.7352,4.7352,4.6905,4.63,0.0,0.0,0.0,0.0,0.0,0.0,0.0,0.0,0.0,0.0,3.843,3.8512,3.8673,3.8707,3.8707,3.8707,3.8822,0.0,0.0,3.9682,3.9956,4.0098,4.0234,4.0301,4.0301,4.0301,4.0301,4.0301,4.0301,4.0301,4.0301,4.0301,4.0301,4.0301,4.0301,4.0301,4.0301,4.0301,4.0253,4.0205,4.0205,4.0157,4.0096,3.9943,3.99,3.9889,3.9815,3.9804,3.9792,3.9754,3.975,3.975,3.975,3.9859,3.9958,0.0,0.0,0.0,0.0,0.0,0.0,0.0,0.0,0.0,0.0,0.0,0.0,0.0,0.0,4.3527,0.0,0.0,4.5201,4.4771,4.5836,4.654,4.6113,4.7143,4.7473,4.621,4.6793,4.7298,4.7298,4.7706,4.7958,4.7958,4.8347,4.8599,4.8599,4.8599,4.8638,4.8693,4.8697,4.8728,4.8745,4.9218,4.9452,4.9463,4.99,5.0106,5.0106,5.0106,5.0106,5.0106,5.0106,5.0106,5.0106,5.0106,5.0106,5.0106,5.0106,4.9325,4.8193,4.8193,4.792,4.7549,0.0,0.0,0.0,0.0,0.0,0.0,0.0,0.0,0.0,0.0,0.0,3.8496,3.8692,3.8707,3.8707,0.0,0.0,0.0,0.0,3.9796,4.0077,4.0301,4.0301,4.0301,4.0301,4.0291,4.0291,4.0301,4.0291,4.0291,4.0301,4.0301,4.0301,4.0301,4.0301,4.0301,4.0301,4.0301,4.0301,4.0301,4.0301,4.0301,4.0282,4.0057,3.9984,3.9965,3.9943,3.9933,3.997,4.01,4.0146,4.0184,4.0347,4.0496,4.0587,4.0314,4.0983,0.0,0.0,0.0,0.0,0.0,0.0,0.0,0.0,0.0,4.3455,4.3635,4.3796,4.4112,4.4813,4.5809,4.646,4.6288,4.757,4.8347,4.7648,4.8308,4.858,4.79,4.8289,4.8599,4.8599,4.8755,4.8852,4.8852,4.9007,4.9104,4.9104,4.9107,4.9133,4.9201,4.9205,4.9237,4.9297,4.998,5.0332,5.0339,5.1042,5.1391,5.1405,5.1405,5.1402,5.1394,5.1394,5.1394,5.1394,5.1394,5.1394,5.1394,5.1394,5.0535,4.9286,4.9111,4.8954,4.8798,0.0,0.0,0.0,0.0,0.0,0.0,0.0,0.0,0.0,0.0,0.0,0.0,0.0,0.0,0.0,0.0,0.0,0.0,3.9502,3.9975,4.0263,4.0301,4.0301,4.0301,4.0301,4.029,4.029,4.0301,4.029,4.029,4.0301,4.0301,4.0301,4.0301,4.0301,4.0301,4.0301,4.0301,4.0301,4.0301,4.0301,4.0301,4.0301,4.0282,4.0273,4.0234,4.0127,4.0086,4.0171,4.0827,4.104,4.1173,4.1893,4.2323,4.2525,4.2183,0.0,4.2804,4.2227,4.2387,4.2818,4.3259,4.3371,4.3385,0.0,0.0,4.3629,4.4471,4.5214,4.5739,4.5841,4.7201,4.805,4.7279,4.7978,4.8561,4.8463,4.9202,4.9712,4.9615,4.9007,4.8599,4.8599,4.9304,4.9751,4.9751,5.0464,5.0911,5.0911,5.0909,5.0933,5.1015,5.1017,5.1037,5.1113,5.1141,5.1169,5.1172,5.125,5.1341,5.1406,5.1406,5.14,5.1394,5.1394,5.1394,5.1394,5.1394,5.1394,5.1394,5.1394,5.1277,5.1023,5.0241,4.9462,4.8798,0.0,0.0,0.0,0.0,0.0,0.0,0.0,0.0,0.0,0.0,0.0,0.0,0.0,0.0,0.0,0.0,0.0,0.0,3.9514,3.9996,4.0301,4.0301,4.0301,4.0301,4.0301,4.031,4.031,4.0301,4.031,4.031,4.0301,4.0301,4.0301,4.032,4.0788,4.075,4.032,4.0807,4.0731,4.0301,4.0301,4.0301,4.0301,4.0301,4.0301,4.0301,4.0234,4.053,0.0,0.0,4.1708,4.2205,4.2612,4.2813,4.2867,4.2688,4.3195,0.0,4.4199,4.4454,4.4664,0.0,4.4907,4.4921,4.4942,4.4923,4.517,4.6069,4.6929,4.7512,4.7512,4.8522,4.9066,0.0,4.8794,4.9363,4.9363,5.0114,5.0658,5.0658,5.0328,5.0114,5.0114,5.0445,5.0658,5.0658,5.0989,5.1202,5.1202,5.1208,5.1204,5.1245,5.1249,5.1277,5.1337,5.1304,5.1327,5.1362,5.1362,5.1367,5.1395,5.1395,5.1408,5.1394,5.1394,5.1394,5.1394,5.1394,5.1394,5.1394,5.1394,5.1394,5.1355,5.0984,5.0633,5.0301,0.0,0.0,0.0,0.0,0.0,0.0,0.0,0.0,0.0,0.0,0.0,0.0,0.0,0.0,0.0,0.0,0.0,0.0,0.0,4.0205,4.053,4.0301,4.0511,0.0,4.0301,4.0301,4.0301,4.0301,4.0301,4.0301,4.0301,4.0301,4.0301,4.032,4.0903,4.0845,4.0339,4.0922,4.0826,4.0301,4.0301,4.0301,4.032,4.0559,4.0635,4.0635,4.0635,4.1017,0.0,0.0,4.2603,4.3196,4.3522,4.3624,4.3644,4.3771,4.4345,4.5062,4.5684,0.0,0.0,4.5986,4.6177,4.6366,4.6366,4.674,4.7245,4.7881,4.8716,4.924,4.9007,4.9668,4.9959,4.9104,4.9687,5.025,5.025,5.0794,5.1202,5.1202,5.1202,5.1202,5.1202,5.1202,5.1202,5.1202,5.1202,5.1202,5.1202,5.1192,5.1211,5.1199,5.1203,5.1229,5.1277,5.1261,5.1301,5.1338,5.1338,5.1367,5.1409,5.14,5.1394,5.1394,5.1394,5.1394,5.1394,5.1394,5.1394,5.1394,5.1394,5.1394,5.1394,5.1394,5.1394,5.1394,0.0,0.0,0.0,0.0,0.0,0.0,0.0,0.0,0.0,0.0,0.0,0.0,0.0,0.0,0.0,0.0,0.0,0.0,0.0,4.0729,4.1113,4.032,4.1055,4.1094,4.032,4.0299,4.0299,4.0301,4.0299,4.0299,4.0301,4.0301,4.0301,4.0301,4.032,4.032,4.0301,4.032,4.032,4.0301,4.0301,4.0301,4.0377,4.117,4.1457,4.1457,4.1457,0.0,0.0,0.0,4.393,4.4102,4.4963,4.5323,0.0,4.6209,4.6409,0.0,0.0,0.0,4.5761,4.5944,4.6638,4.7254,4.7254,4.8561,4.979,4.9829,5.0503,5.0853,5.0023,5.0561,5.0872,5.0004,5.0581,5.1163,5.1163,5.1183,5.1202,5.1202,5.1202,5.1202,0.0,5.1202,5.1202,5.1202,5.1202,5.1202,5.1202,5.1205,5.1199,5.1203,5.1203,5.1203,5.1207,5.119,5.119,5.1211,5.1211,5.1279,5.1406,5.139,5.1394,5.1394,5.1394,5.1394,5.1394,5.1394,5.1394,5.1394,5.1394,5.1394,5.1394,5.1394,5.1394,5.1394,0.0,0.0,0.0,0.0,0.0,0.0,0.0,0.0,0.0,0.0,0.0,0.0,0.0,0.0,0.0,0.0,0.0,0.0,0.0,4.1688,4.224,4.1972,4.1667,4.1361,4.1094,4.0568,4.0301,4.0301,4.0301,4.0301,4.0301,4.0301,4.0301,4.032,4.0864,4.0807,4.032,4.0864,4.0788,4.0301,4.0301,4.0301,4.0377,4.1189,4.1495,4.1648,0.0,0.0,0.0,0.0,0.0,0.0,4.5314,0.0,0.0,4.655,4.6374,4.6074,4.5958,0.0,4.6789,4.686,4.7958,4.9027,4.9027,4.992,5.0911,5.1455,5.2251,5.2581,5.1727,5.2271,5.2407,5.0989,5.1008,5.1202,5.1202,5.1202,5.1202,5.1202,5.1202,0.0,0.0,0.0,0.0,5.1202,5.1202,5.1202,5.1202,5.1197,5.12,5.12,5.12,5.12,5.12,5.12,5.122,5.1272,5.1302,5.1366,5.1391,5.14,5.1394,5.1394,5.1394,5.1394,5.1394,5.1394,5.1394,5.1394,5.1394,5.1394,5.1394,5.1394,5.1394,5.1394,0.0,0.0,0.0,0.0,0.0,0.0,0.0,0.0,0.0,0.0,0.0,0.0,0.0,0.0,0.0,0.0,0.0,0.0,0.0,0.0,4.31,4.2813,4.2545,4.2106,4.1514,4.0998,4.0597,4.0301,4.0301,4.0301,4.0301,4.0301,4.0301,4.032,4.0845,4.0788,4.032,4.0845,4.0941,4.0731,4.0731,4.0922,4.1285,4.2087,4.2393,0.0,0.0,0.0,0.0,0.0,0.0,0.0,0.0,4.6484,4.7069,4.6891,4.6604,4.6345,4.6384,4.7059,4.7842,4.8153,4.9512,5.08,5.08,5.1707,5.2698,5.3222,5.4019,5.4349,5.3494,5.3533,5.3248,5.1843,5.1396,5.1202,5.1202,5.1202,5.1202,5.1202,5.1202,5.1202,0.0,0.0,0.0,5.1202,5.1202,5.1202,5.1202,5.1202,5.1202,5.1202,5.1202,5.1202,5.1202,5.1202,5.1234,5.1297,5.1363,5.1394,5.1394,5.1394,5.1394,5.1394,5.1394,5.1394,5.1394,5.1394,5.1394,5.1394,5.1394,5.1394,5.1394,5.1394,5.1394,5.1394,0.0,0.0,0.0,0.0,0.0,0.0,0.0,0.0,0.0,0.0,0.0,0.0,0.0,0.0,0.0,0.0,0.0,0.0,0.0,0.0,0.0,4.2966,4.3624,4.3261,4.1648,4.159,4.117,4.0358,4.0358,4.0339,4.0301,4.0301,4.0301,4.0301,4.0301,4.032,4.0358,4.0358,4.0826,4.1571,4.1571,4.2049,4.2889,4.3682,0.0,0.0,0.0,0.0,0.0,0.0,0.0,0.0,0.0,4.7458,4.8017,4.7311,4.7094,4.7152,4.7328,4.8036,4.893,4.9809,5.128,5.2523,5.2523,5.3844,5.5068,5.5068,5.5728,5.6019,0.0,0.0,5.3403,5.2542,5.1727,5.1202,5.1202,5.1202,5.1202,0.0,0.0,0.0,0.0,0.0,0.0,5.1202,0.0,5.1202,5.1202,5.1202,5.1202,5.1202,5.1202,5.1202,5.1202,5.1194,5.1248,5.1301,5.1363,5.1394,5.1394,5.1394,5.1394,5.1394,5.1394,5.1394,5.1394,5.1394,5.1394,5.1394,5.1394,5.1394,5.1394,5.1394,5.1394,5.1394,0.0,0.0,0.0,0.0,0.0,0.0,0.0,0.0,0.0,0.0,0.0,0.0,0.0,0.0,0.0,0.0,0.0,0.0,0.0,0.0,0.0,0.0,0.0,0.0,0.0,0.0,0.0,0.0,0.0,4.0883,4.0301,4.0301,4.0301,0.0,4.0301,4.0635,4.1189,4.1189,4.1686,4.2469,0.0,4.2603,4.2889,0.0,0.0,0.0,0.0,0.0,0.0,0.0,0.0,0.0,0.0,4.7631,4.7349,4.7157,4.7159,4.74,4.8089,4.9376,5.0736,5.1552,5.3067,5.4349,5.4349,5.5184,5.5961,5.5961,5.6155,5.6019,0.0,0.0,0.0,5.2542,5.1727,0.0,5.1202,5.1202,0.0,5.1202,0.0,5.1202,5.1202,5.1202,0.0,0.0,5.1202,5.1202,5.1202,5.1202,5.1202,5.1202,5.1202,5.1202,5.1202,5.1257,5.131,5.1365,5.1395,5.1394,5.1394,5.1394,5.1394,5.1394,5.1394,5.1394,5.1394,5.1394,5.1394,5.1394,5.1394,5.1394,5.1394,5.1394,5.1394,5.1394,0.0,0.0,0.0,0.0,0.0,0.0,0.0,0.0,0.0,0.0,0.0,0.0,0.0,0.0,0.0,0.0,0.0,0.0,0.0,0.0,0.0,0.0,0.0,0.0,0.0,0.0,0.0,0.0,0.0,0.0,0.0,4.0473,4.0492,4.0826,4.0826,4.1285,4.2068,0.0,0.0,0.0,0.0,0.0,0.0,0.0,0.0,0.0,0.0,0.0,0.0,0.0,0.0,4.8149,4.8245,4.8048,4.7766,4.7759,0.0,4.8133,4.9396,5.0989,5.2504,5.3339,5.4563,5.5573,5.5573,5.5942,5.6291,5.6291,5.6291,0.0,5.565,5.4854,0.0,0.0,0.0,0.0,5.1785,5.2057,5.2154,0.0,5.1727,0.0,5.1241,5.1202,5.1202,0.0,5.1202,5.1202,5.1202,5.1202,5.1202,5.1202,5.1202,5.1206,5.1201,5.1274,5.1334,5.1406,5.1391,5.1394,5.1394,5.141,5.139,5.1394,0.0,5.139,5.1394,5.1394,5.1392,5.1408,5.1408,5.1403,5.1399,5.1406,5.1403,5.1399,0.0,0.0,0.0,0.0,0.0,0.0,0.0,0.0,0.0,0.0,0.0,0.0,0.0,0.0,0.0,0.0,0.0,0.0,0.0,0.0,0.0,0.0,0.0,0.0,0.0,0.0,0.0,0.0,0.0,0.0,0.0,0.0,0.0,0.0,0.0,0.0,0.0,0.0,0.0,0.0,0.0,0.0,0.0,0.0,0.0,0.0,0.0,0.0,0.0,0.0,4.8984,4.9568,4.8696,4.8599,4.8755,4.8638,4.8755,4.9318,5.1066,5.2678,5.4077,5.4951,5.5747,5.6291,5.6291,5.6291,5.6291,5.6291,0.0,5.6291,5.6291,5.5592,5.4757,5.4005,0.0,5.3442,5.2678,5.3228,5.3423,5.2659,5.2562,5.229,5.161,5.1435,5.1358,5.1358,5.126,5.1202,5.1202,5.1202,5.1202,5.1202,5.1208,5.119,5.1211,5.1279,5.1338,5.1406,5.1408,5.139,5.1392,5.1401,5.1401,5.1392,5.1401,5.1401,5.1392,5.139,5.1403,5.1396,5.1396,5.1405,5.1397,5.1391,5.1405,5.1397,0.0,0.0,0.0,0.0,0.0,0.0,0.0,0.0,0.0,0.0,4.022,4.0582,0.0,0.0,0.0,0.0,0.0,0.0,0.0,0.0,0.0,0.0,0.0,0.0,0.0,0.0,0.0,0.0,0.0,0.0,0.0,0.0,0.0,0.0,0.0,0.0,0.0,0.0,0.0,0.0,0.0,0.0,0.0,0.0,0.0,0.0,0.0,0.0,0.0,0.0,4.9551,4.9709,4.8829,4.9074,4.9537,4.8813,4.9629,5.1125,5.2814,5.3999,5.499,5.5864,5.6194,5.6291,5.6291,5.6291,0.0,0.0,5.6291,5.6291,5.6291,5.5592,5.4951,5.4796,5.4174,5.3656,5.35,0.0,5.3636,0.0,0.0,0.0,0.0,5.2601,0.0,0.0,5.1571,5.1202,5.1202,5.1202,5.1202,5.1202,5.1189,5.1224,5.1288,5.1289,5.1328,5.14,5.1408,5.1408,5.1401,5.1405,5.1408,5.1401,5.1405,0.0,5.1401,5.1408,5.14,5.1397,5.1397,5.1397,5.1394,5.1397,5.1397,5.1394,0.0,0.0,0.0,0.0,0.0,0.0,0.0,4.0637,4.1126,4.1126,4.1488,4.1741,4.1705,4.2085,4.2722,0.0,0.0,0.0,0.0,0.0,0.0,0.0,0.0,0.0,0.0,0.0,0.0,0.0,0.0,0.0,0.0,0.0,0.0,0.0,0.0,0.0,0.0,0.0,0.0,0.0,0.0,0.0,0.0,0.0,0.0,0.0,0.0,0.0,0.0,0.0,4.9984,5.0425,4.9551,4.9557,4.9906,4.994,5.0833,5.2193,5.3902,5.5009,5.5786,5.6194,5.6291,5.6291,5.6291,0.0,0.0,0.0,5.6291,5.6291,5.6291,5.5961,0.0,5.5068,5.5029,5.4893,0.0,0.0,0.0,0.0,0.0,0.0,0.0,5.3326,5.3086,5.3086,5.229,5.1649,5.1222,5.1202,5.1194,5.1208,5.1196,5.1249,5.1357,5.1345,5.1366,5.1394,5.1398,5.1401,5.1405,5.1352,5.1372,5.1405,5.1349,0.0,5.1405,5.1397,5.1388,5.1343,5.1343,5.1356,5.1349,5.1359,5.1356,5.1349,0.0,0.0,0.0,0.0,0.0,0.0,0.0,4.1433,4.1958,4.1958,4.2502,4.2647,4.2012,4.252,4.3124,0.0,0.0,0.0,0.0,0.0,0.0,0.0,0.0,0.0,0.0,0.0,0.0,0.0,0.0,0.0,0.0,0.0,0.0,0.0,0.0,0.0,0.0,0.0,0.0,0.0,0.0,0.0,0.0,0.0,0.0,0.0,0.0,0.0,0.0,0.0,5.041,5.1086,5.0386,5.0295,5.0567,5.126,5.2173,5.33,5.4854,5.5786,5.6291,5.6291,5.6291,5.6291,5.6291,5.6291,0.0,0.0,5.6291,5.6291,5.6291,5.6291,5.6078,0.0,5.5845,5.6058,0.0,0.0,0.0,0.0,0.0,0.0,0.0,5.4083,0.0,5.3986,5.3001,5.2055,5.1239,5.12,5.1208,5.1225,5.1234,5.1292,5.1406,5.1398,5.1401,5.1399,5.139,5.1392,5.1403,5.134,5.1336,5.1388,5.1314,0.0,0.0,5.1385,5.1356,5.1307,5.1307,5.1296,5.13,5.13,5.1296,5.13,0.0,0.0,0.0,0.0,0.0,0.0,0.0,4.2266,4.2792,4.2792,4.2865,4.2883,4.2792,4.2846,4.3124,0.0,0.0,0.0,0.0,0.0,0.0,0.0,0.0,0.0,0.0,0.0,0.0,0.0,0.0,0.0,0.0,0.0,0.0,0.0,0.0,0.0,0.0,0.0,0.0,0.0,0.0,0.0,0.0,0.0,0.0,0.0,0.0,0.0,0.0,0.0,0.0,5.1183,5.1105,5.1571,5.2193,5.2271,0.0,0.0,5.5922,5.6233,5.6291,5.6291,5.6291,5.6291,5.6291,0.0,0.0,5.6291,5.6291,5.6291,5.6291,5.6291,5.6272,5.6194,0.0,5.6272,0.0,0.0,0.0,0.0,0.0,0.0,0.0,5.5359,5.4873,5.4873,5.3411,5.2115,5.124,5.1201,5.1225,5.1292,5.1349,5.1388,5.1397,5.1391,5.1403,5.1402,5.1333,5.1347,5.141,5.1336,5.1296,5.1314,5.1292,0.0,0.0,5.1312,5.1304,5.1304,5.1304,5.13,5.13,5.13,5.13,5.13,0.0,0.0,0.0,0.0,0.0,0.0,4.2411,4.2683,4.2901,4.2901,4.2901,4.2901,4.2901,4.2901,4.3124,4.3646,0.0,0.0,0.0,0.0,0.0,0.0,0.0,0.0,0.0,0.0,0.0,0.0,0.0,0.0,0.0,0.0,0.0,0.0,0.0,0.0,0.0,0.0,0.0,0.0,0.0,0.0,0.0,0.0,0.0,0.0,0.0,0.0,0.0,0.0,0.0,0.0,5.1202,5.2115,0.0,0.0,5.4058,5.5184,5.6058,5.6291,5.6291,5.6291,5.6291,5.6291,5.6291,0.0,5.6291,5.6291,5.6291,5.6291,5.6291,5.6291,5.6291,5.6291,0.0,0.0,5.6291,0.0,0.0,0.0,0.0,0.0,0.0,0.0,5.5572,5.5102,5.3958,5.2928,5.2091,5.1542,5.1292,5.1353,5.1388,5.1403,5.1399,5.1402,5.1396,5.1402,5.1367,5.1355,5.1345,5.1305,5.1301,5.1292,5.1304,0.0,0.0,5.1304,5.13,5.13,5.13,5.1612,5.208,5.208,5.2411,5.2859,0.0,0.0,0.0,0.0,0.0,4.2901,4.2901,4.2901,4.2901,4.2901,4.2901,4.2901,4.2901,4.2976,4.3196,4.3662,4.3695,0.0,0.0,0.0,0.0,0.0,0.0,0.0,0.0,0.0,0.0,4.4979,0.0,0.0,0.0,0.0,0.0,0.0,0.0,0.0,0.0,0.0,0.0,0.0,0.0,0.0,0.0,0.0,0.0,0.0,0.0,0.0,0.0,0.0,0.0,0.0,0.0,0.0,0.0,0.0,5.4504,5.5514,5.6136,5.6291,5.6291,5.6291,5.6291,5.6291,0.0,0.0,5.6291,5.6291,5.6291,5.6291,5.6291,5.6291,5.6291,0.0,0.0,5.6291,5.6291,5.6291,0.0,0.0,0.0,5.6291,0.0,5.6291,5.607,5.551,5.4665,5.3836,5.303,5.2181,5.1619,5.1405,5.1408,5.1396,5.1394,5.1394,5.1405,5.14,5.1403,5.1385,5.1334,5.1579,5.1684,5.171,5.1963,0.0,0.0,5.208,5.208,5.208,5.208,5.245,5.2976,5.2976,5.3366,5.3907,0.0,0.0,0.0,0.0,0.0,0.0,4.2901,4.2901,4.2901,4.2901,4.2901,4.2901,4.2901,4.3142,4.3408,4.3679,4.3695,0.0,0.0,0.0,0.0,0.0,0.0,0.0,0.0,0.0,0.0,4.4693,4.4693,4.4757,0.0,0.0,0.0,0.0,0.0,0.0,0.0,0.0,0.0,0.0,0.0,0.0,0.0,0.0,0.0,0.0,0.0,0.0,0.0,0.0,0.0,0.0,0.0,0.0,0.0,0.0,5.4938,5.6291,5.6291,5.6291,5.6291,5.6291,5.6291,5.6291,0.0,0.0,5.6291,5.6291,5.6291,5.6291,5.6291,5.6291,5.6291,5.6291,5.6291,0.0,5.6291,5.6291,0.0,0.0,0.0,5.6291,5.6291,5.6291,5.6303,5.6289,5.5536,0.0,5.3923,5.3118,5.2292,5.1433,5.1394,5.1394,5.1394,5.1394,5.1394,5.1394,5.1399,5.1406,5.1436,5.2212,5.2581,5.2625,0.0,0.0,0.0,5.3868,5.3868,5.3868,5.3868,5.3888,5.3888,5.3888,5.3888,5.3907,0.0,0.0,0.0,0.0,0.0,0.0,0.0,4.2901,4.2901,4.2901,4.2901,4.2901,4.2901,4.3142,4.3408,4.3679,4.3857,0.0,0.0,0.0,0.0,0.0,0.0,0.0,0.0,0.0,4.4584,4.4712,4.4712,4.4776,4.4895,4.4895,0.0,0.0,0.0,0.0,0.0,0.0,0.0,0.0,0.0,0.0,0.0,0.0,0.0,0.0,0.0,0.0,0.0,0.0,0.0,0.0,0.0,0.0,0.0,0.0,0.0,0.0,5.6291,5.6291,5.6291,5.6291,5.6291,5.6291,5.6291,0.0,5.6291,5.6291,5.6291,5.6291,5.6291,5.6291,5.6291,5.6291,5.6291,0.0,0.0,0.0,0.0,5.6291,5.6291,5.6291,0.0,0.0,5.6321,5.6359,5.5578,5.4777,5.4013,5.3166,5.2292,5.1433,5.1394,5.1394,5.1394,5.1394,5.1394,5.1414,5.2005,5.2265,5.2255,5.311,5.3498,0.0,0.0,0.0,0.0,5.3907,5.3907,5.3907,5.3907,5.4258,5.4784,5.4784,5.5178,5.5684,0.0,0.0,0.0,0.0,0.0,0.0,0.0,4.2901,4.2901,4.2901,4.2995,4.305,4.305,4.339,4.3679,4.3841,4.4109,0.0,0.0,0.0,0.0,0.0,0.0,0.0,0.0,4.4501,4.4537,4.4619,4.4619,4.4672,4.4764,4.4764,4.4846,4.5014,0.0,0.0,0.0,0.0,0.0,0.0,0.0,0.0,4.922,0.0,0.0,0.0,0.0,0.0,0.0,0.0,0.0,0.0,0.0,0.0,0.0,0.0,5.4938,0.0,0.0,5.6291,5.6291,5.6291,5.6291,0.0,0.0,0.0,5.6291,5.6291,5.6291,5.6291,5.6291,5.6291,5.6291,5.6291,5.6291,5.6291,0.0,0.0,0.0,5.6291,0.0,0.0,0.0,5.6297,5.6336,5.6381,5.5915,5.5149,5.4066,5.3483,5.2644,5.1433,5.1394,5.1394,5.1394,5.1726,5.1882,5.1902,5.2779,5.3163,5.3116,5.398,5.439,0.0,0.0,0.0,0.0,5.4885,5.4885,5.4885,5.4885,5.5217,5.5684,5.5684,5.6035,5.6507,0.0,0.0,0.0,0.0,0.0,0.0,0.0,4.2901,4.2901,4.292,4.316,4.3303,4.332,4.3775,4.4091,4.4091,0.0,0.0,0.0,0.0,0.0,0.0,0.0,0.0,0.0,4.4501,4.4501,4.4501,4.4501,4.4501,4.4501,4.4501,4.4632,4.4902,4.4902,0.0,0.0,0.0,0.0,0.0,0.0,0.0,0.0,0.0,0.0,0.0,0.0,0.0,0.0,0.0,0.0,0.0,0.0,0.0,0.0,0.0,0.0,0.0,0.0,5.6291,0.0,0.0,0.0,0.0,0.0,0.0,0.0,5.6291,5.6291,5.6291,5.6291,5.6291,5.6291,5.6291,5.6291,5.6291,0.0,5.6291,0.0,0.0,5.6291,0.0,5.6291,5.6294,5.6334,5.6386,5.6464,5.5775,5.4086,5.401,5.3229,5.155,5.1492,5.1492,5.1492,5.2351,5.2782,5.2802,5.3661,5.4055,5.4017,5.4893,5.5292,0.0,0.0,0.0,0.0,5.6507,5.6507,5.6507,5.6507,5.6507,5.6507,5.6507,5.6507,5.6507,0.0,0.0,0.0,0.0,0.0,0.0,0.0,0.0,0.0,0.0,4.3249,4.3373,4.3579,4.3905,4.4091,0.0,0.0,0.0,0.0,0.0,0.0,0.0,0.0,0.0,0.0,4.4501,4.4501,4.4501,4.4501,4.4501,4.4501,4.4501,4.4578,4.4751,4.4751,0.0,0.0,0.0,0.0,0.0,0.0,0.0,0.0,0.0,0.0,0.0,5.0937,5.1095,0.0,0.0,0.0,0.0,0.0,0.0,0.0,0.0,5.4465,5.5456,5.6117,0.0,5.6291,5.6291,5.6291,5.6291,0.0,0.0,0.0,0.0,0.0,0.0,0.0,5.6291,5.6291,5.6291,5.6291,5.6291,5.6291,0.0,0.0,5.6291,5.6291,5.6291,5.6291,5.6294,5.6334,5.6386,5.6464,5.5775,5.4086,5.401,5.3502,5.2431,5.2392,5.2392,5.2392,5.3268,5.3698,5.3698,5.4539,5.4919,5.4922,5.5801,5.6199,0.0,0.0,0.0,5.6507,5.6507,5.6507,5.6507,5.6507,5.6507,5.6507,5.6507,5.6507,5.6507,0.0,0.0,0.0,0.0,0.0,0.0,0.0,0.0,0.0,0.0,0.0,0.0,0.0,0.0,0.0,0.0,0.0,0.0,0.0,0.0,0.0,0.0,0.0,0.0,4.4501,4.4501,4.4501,4.4501,4.4501,4.4501,4.4501,4.4501,4.4565,4.4712,4.4821,0.0,0.0,0.0,0.0,0.0,4.9308,0.0,0.0,0.0,0.0,0.0,5.0963,5.1095,0.0,5.1202,5.1202,5.1202,0.0,0.0,0.0,0.0,5.431,5.5184,5.6058,5.6291,5.6291,5.6291,5.6291,5.6291,5.6291,0.0,0.0,0.0,0.0,0.0,0.0,0.0,5.6291,5.6291,5.6291,0.0,0.0,0.0,5.6304,5.6296,5.6302,5.6314,0.0,5.6373,5.6409,5.6434,5.6508,5.5809,5.4086,5.4381,5.401,5.2743,5.3485,5.3698,5.3307,5.4166,5.4596,5.4615,5.5432,5.5832,5.5819,5.6278,5.6506,0.0,0.0,0.0,5.6507,5.6507,5.6507,5.6507,5.6507,5.6507,5.6507,5.6507,5.6507,5.6507,0.0,0.0,0.0,0.0,0.0,0.0,0.0,0.0,0.0,0.0,0.0,0.0,0.0,0.0,0.0,0.0,0.0,0.0,0.0,0.0,0.0,0.0,0.0,4.4501,4.4501,4.4501,4.4501,4.4501,4.4501,4.4501,4.4501,4.4501,4.4626,4.4855,4.5133,0.0,0.0,0.0,0.0,0.0,4.9977,0.0,0.0,0.0,0.0,0.0,0.0,0.0,0.0,5.1202,5.1202,5.1202,5.1202,0.0,0.0,0.0,0.0,0.0,5.5864,5.6194,5.6291,5.6291,5.6291,5.6291,5.6291,0.0,0.0,0.0,0.0,0.0,0.0,5.6291,0.0,0.0,0.0,0.0,5.631,5.6317,5.6327,5.6319,5.6324,0.0,5.6386,5.6464,5.6501,5.6501,5.655,5.5903,5.4283,5.4908,5.4617,5.3134,5.4539,5.5005,5.44,5.5123,5.5493,5.5513,5.6255,5.6561,5.6519,5.6502,5.6504,5.6494,0.0,0.0,5.6507,5.6507,5.6507,5.6507,5.6507,5.6507,5.6507,5.6507,5.6507,5.6507,0.0,0.0,0.0,0.0,0.0,0.0,0.0,0.0,0.0,0.0,0.0,0.0,0.0,0.0,0.0,0.0,0.0,0.0,0.0,0.0,0.0,0.0,4.4501,4.4501,4.4501,4.4501,4.4501,4.4501,4.4501,4.4501,4.4501,4.4501,4.4871,4.5552,4.5886,4.6487,4.7315,0.0,0.0,0.0,0.0,0.0,0.0,0.0,0.0,0.0,0.0,0.0,0.0,5.1202,5.1202,5.1202,5.1202,0.0,0.0,0.0,0.0,0.0,5.4951,5.5747,5.6291,5.6291,5.6291,5.6291,5.6291,0.0,0.0,0.0,0.0,0.0,0.0,5.6291,5.6291,0.0,0.0,5.6297,0.0,0.0,5.6387,5.6377,0.0,5.6381,5.6409,5.6464,5.6501,5.6501,5.655,5.6157,5.5142,5.522,5.5183,5.491,5.5164,5.5591,5.6196,5.6333,5.6391,5.6391,5.6547,5.6589,5.6575,5.6523,5.6493,5.6507,0.0,5.6507,5.6507,5.6507,5.6507,5.6507,5.6507,5.6507,5.6507,5.6507,5.6507,5.6507,0.0,0.0,0.0,0.0,0.0,0.0,0.0,0.0,0.0,0.0,0.0,0.0,0.0,0.0,0.0,0.0,0.0,0.0,0.0,0.0,0.0,4.4501,4.4501,4.4501,4.4501,4.4501,4.4501,4.4501,4.4501,4.4501,4.4501,4.4946,4.5359,4.573,4.6503,4.7302,4.8086,0.0,0.0,0.0,0.0,0.0,0.0,0.0,0.0,0.0,0.0,0.0,0.0,0.0,5.1202,5.1202,5.1202,0.0,0.0,0.0,0.0,0.0,5.4757,5.5631,5.6291,5.6291,5.6291,5.6175,5.5709,0.0,0.0,0.0,0.0,0.0,0.0,0.0,5.6304,5.6302,0.0,5.6299,5.6349,5.6377,5.6418,0.0,0.0,5.6468,5.6508,5.6542,5.6548,5.6548,5.658,5.6216,5.5357,5.5747,5.5786,5.532,5.5767,5.6196,5.6606,5.6606,5.6606,5.6606,5.6606,5.6606,5.6606,5.6521,5.6502,5.6493,0.0,5.6496,5.6507,5.6507,5.6507,5.6507,5.6507,5.6507,5.6507,5.6507,5.6507,5.6507,0.0,0.0,0.0,0.0,0.0,0.0,0.0,0.0,0.0,0.0,0.0,0.0,0.0,0.0,0.0,0.0,0.0,0.0,0.0,0.0,4.4501,4.4501,4.4501,4.4501,4.4501,4.4501,4.4501,4.4501,4.4688,4.4876,4.5101,4.5716,4.6092,4.6331,4.7259,4.8136,4.8939,4.9241,4.9729,0.0,0.0,0.0,0.0,0.0,0.0,0.0,0.0,0.0,0.0,0.0,0.0,0.0,0.0,0.0,0.0,5.194,5.2873,5.385,5.4504,5.5476,5.6291,5.6291,5.6155,5.5825,5.5145,0.0,0.0,0.0,0.0,0.0,0.0,5.6304,0.0,5.6303,5.6329,5.6363,5.6418,5.643,5.6468,5.6511,5.6514,5.6542,5.6604,5.6606,5.6606,5.6606,5.6606,5.6313,5.563,5.6235,5.6294,5.563,5.6255,5.6606,5.6606,5.6606,5.6606,5.6606,5.6606,5.6606,5.6606,5.6534,5.6504,5.6494,5.6506,5.6501,5.6507,5.6507,5.6507,5.6507,5.6507,5.6507,5.6507,5.6507,5.6507,5.6507,0.0,0.0,0.0,0.0,0.0,0.0,0.0,0.0,0.0,0.0,0.0,0.0,0.0,0.0,0.0,0.0,0.0,0.0,0.0,0.0,4.4501,4.4501,4.4501,4.4501,4.4501,4.4501,4.4501,4.4501,4.5247,4.6035,4.6824,4.688,4.7293,4.8022,4.8375,4.8988,4.9811,5.0099,5.0245,5.0302,0.0,0.0,0.0,0.0,0.0,0.0,0.0,0.0,0.0,0.0,0.0,0.0,0.0,0.0,5.1202,5.128,5.2426,5.3714,5.3772,5.5009,5.6291,5.6291,5.5689,0.0,5.5009,5.4368,0.0,5.4835,0.0,0.0,0.0,5.6302,5.6308,5.6289,5.6409,5.6494,5.6498,0.0,5.6582,5.6582,5.6582,5.6584,5.6606,5.6606,5.6606,5.6606,5.6606,5.6567,5.6508,5.6567,5.6567,5.6508,5.6567,5.6606,5.6606,5.6606,5.6606,5.6606,5.6606,5.6606,5.6606,5.6534,5.6504,5.6494,5.6506,5.6501,5.6507,5.6507,5.6507,5.6507,5.6507,5.6507,5.6507,5.6507,5.6507,5.6507,0.0,0.0,0.0,0.0,0.0,0.0,0.0,0.0,0.0,0.0,0.0,0.0,0.0,0.0,0.0,0.0,0.0,0.0,0.0,0.0,4.5247,4.5247,4.5772,4.604,4.604,4.5528,4.551,4.604,4.6373,4.6692,4.7012,4.7519,4.7913,4.8228,4.8956,4.9457,4.9788,5.007,5.0182,5.0182,5.0267,0.0,0.0,0.0,0.0,0.0,0.0,0.0,0.0,0.0,5.1202,5.1202,5.1202,5.1202,5.1202,5.1202,5.2387,5.3695,5.3695,5.4977,5.6175,5.5631,5.4835,0.0,0.0,5.3947,5.3792,5.4116,5.4621,0.0,0.0,0.0,5.6363,5.6363,5.643,5.6511,5.657,5.658,5.6606,5.6606,5.6606,5.6606,5.6606,5.6606,5.6606,5.6606,5.6606,5.6606,5.6606,5.6606,5.6606,5.6606,5.6606,5.6606,5.6606,5.6606,5.6606,5.6606,5.6606,5.6606,5.6606,5.6579,5.6536,5.6504,5.6493,5.6504,5.6498,5.6504,5.6507,5.6507,5.6507,5.6507,5.6507,5.6507,5.6507,5.6507,0.0,0.0,0.0,0.0,0.0,0.0,0.0,0.0,0.0,0.0,0.0,0.0,0.0,0.0,0.0,0.0,0.0,0.0,0.0,4.566,4.611,4.611,4.6692,4.7124,4.7368,4.6786,4.6655,4.7012,4.7256,4.7519,4.78,4.8345,4.8607,4.8641,4.9355,4.9692,4.9721,4.9992,5.0095,5.0108,5.0243,5.0302,0.0,0.0,0.0,0.0,0.0,0.0,0.0,0.0,5.1202,5.1202,5.1202,5.1202,5.126,5.1494,5.2581,5.3753,5.4038,5.5184,5.6104,5.5248,0.0,0.0,5.3825,5.3522,5.3477,5.4019,5.4841,0.0,0.0,0.0,0.0,0.0,5.6498,5.6545,5.6584,5.6606,5.6606,5.6606,5.6606,5.6606,5.6606,5.6606,5.6606,5.6606,5.6606,5.6606,5.6606,5.6606,5.6606,5.6606,5.6606,5.6606,5.6606,5.6606,5.6606,5.6606,5.6606,5.6606,5.6606,5.6606,5.6563,5.6502,5.6501,5.6502,5.6503,5.6492,5.6507,5.6507,5.6507,5.6507,5.6507,5.6507,5.6507,5.6507,0.0,0.0,0.0,0.0,0.0,0.0,0.0,0.0,0.0,0.0,0.0,0.0,0.0,0.0,0.0,0.0,0.0,0.0,4.5716,4.6523,4.7012,4.7012,4.703,4.7406,4.8194,4.8194,4.7819,4.703,4.7819,4.8645,4.9509,4.9509,4.9509,4.9509,4.9638,4.9692,4.9721,4.9978,5.0095,5.0108,5.0243,5.0302,5.0302,0.0,0.0,0.0,0.0,0.0,0.0,0.0,5.1202,5.1202,5.1202,5.1202,5.1358,5.2154,5.3009,5.3889,5.4757,5.5631,5.6097,0.0,0.0,0.0,5.4074,5.3199,0.0,0.0,0.0,5.6409,5.6409,0.0,0.0,5.6501,5.657,5.6606,5.6606,5.6606,5.6606,5.6606,5.6606,5.6606,5.6606,5.6606,5.6606,5.6606,5.6606,5.6606,5.6606,5.6606,5.6606,5.6606,5.6606,5.6606,5.6606,5.6606,5.6606,5.6606,5.6606,5.6606,5.6606,5.6606,5.6563,5.6502,5.6501,5.6502,5.6506,5.6492,5.6507,5.6507,5.6507,5.6507,5.6507,5.6507,5.6507,5.6507,0.0,0.0,0.0,0.0,0.0,0.0,0.0,0.0,0.0,0.0,0.0,0.0,0.0,0.0,0.0,0.0,0.0,0.0,0.0,4.7387,4.7838,4.7838,4.8438,4.887,4.9114,4.9114,4.9002,4.8758,4.9002,4.9246,4.9509,4.9509,4.9509,4.949,4.9536,4.9567,4.9582,4.975,4.9871,4.9978,5.0108,5.0219,5.0302,0.0,0.0,0.0,0.0,0.0,0.0,0.0,0.0,0.0,5.1202,5.1202,5.1358,5.2154,5.3009,5.3895,5.4816,5.5658,0.0,5.4597,0.0,0.0,0.0,5.4122,0.0,0.0,0.0,5.6461,5.6414,0.0,0.0,5.6508,5.657,5.6606,5.6606,5.6606,5.6606,5.6606,5.6606,5.6606,5.6606,5.6606,5.6606,5.6606,5.6606,5.6606,5.6606,5.6606,5.6606,5.6606,5.6606,5.6606,5.6606,5.6606,5.6606,5.6606,5.6606,5.6606,5.6606,5.6606,5.6591,5.6563,5.6523,5.6492,5.6501,5.6491,5.6507,5.6507,5.6507,5.6507,5.6507,5.6507,5.6507,5.6507,0.0,0.0,0.0,0.0,0.0,0.0,0.0,0.0,0.0,0.0,0.0,0.0,0.0,0.0,0.0,0.0,0.0,0.0,0.0,0.0,4.872,4.872,4.9227,4.9509,4.9509,4.9509,4.9509,4.9509,4.9509,4.9509,4.9509,4.9509,4.9509,4.9509,4.9509,4.9509,4.9524,4.9653,4.975,4.983,5.0031,5.0145,5.0231,0.0,0.0,0.0,0.0,0.0,0.0,0.0,0.0,0.0,5.1202,5.1202,5.1441,5.2611,5.3341,5.4014,5.5278,5.5974,0.0,5.4742,5.5046,5.5544,5.5073,0.0,0.0,0.0,0.0,5.6536,5.6498,5.6545,0.0,5.6545,5.6575,5.6606,5.6606,5.6606,5.6606,5.6606,5.6606,5.6606,5.6606,5.6606,5.6606,5.6606,5.6606,5.6606,5.6606,5.6606,5.6606,5.6606,5.6606,5.6606,5.6606,5.6606,5.6606,5.6606,5.6606,5.6606,5.6606,5.6606,5.6606,5.6608,5.6523,5.6506,5.6499,5.65,5.6507,5.6507,5.6507,5.6507,5.6507,5.6507,5.6507,5.6507,0.0,0.0,0.0,0.0,0.0,0.0,0.0,0.0,0.0,0.0,0.0,0.0,0.0,0.0,0.0,0.0,0.0,0.0,0.0,0.0,4.9509,4.9509,4.9509,4.9509,4.9509,4.9509,4.9509,4.9509,4.9509,4.9509,4.9509,4.9509,4.9509,4.9509,4.9509,4.9509,4.9524,4.9638,4.9678,4.9721,4.9965,5.0082,5.012,5.0243,0.0,0.0,0.0,0.0,0.0,0.0,0.0,0.0,5.1202,5.1202,5.1544,5.3296,5.3798,5.4183,5.5933,5.6414,0.0,5.5409,5.5805,0.0,5.656,5.6606,5.6606,5.6606,0.0,5.6606,5.6606,5.6606,5.6606,5.6606,5.6606,5.6606,5.6606,5.6665,5.6684,5.6606,5.6665,5.6684,5.6606,5.6606,5.6606,5.6606,5.6606,5.6606,5.6606,5.6606,5.6606,5.6606,5.6606,5.6606,5.6606,5.6606,5.6606,5.6606,5.6606,5.6606,5.6606,5.6606,5.6608,5.6598,5.6522,5.6502,5.6507,5.6507,5.6507,5.6507,5.6507,5.6507,5.6507,5.6507,5.6507,5.6507,0.0,0.0,0.0,0.0,0.0,0.0,0.0,0.0,0.0,0.0,0.0,0.0,0.0,0.0,0.0,0.0,0.0,0.0,0.0,0.0,4.9509,4.9509,4.9509,4.9509,4.9509,4.9509,4.9509,4.9509,4.9509,4.9509,4.9509,4.9509,4.9509,4.9509,0.0,4.9509,4.949,4.9521,4.9593,4.9707,4.9764,4.9912,5.0108,5.0133,5.0231,0.0,0.0,0.0,0.0,0.0,0.0,0.0,5.1202,5.1202,5.1544,5.3296,5.3798,5.4188,5.5985,5.6471,0.0,0.0,5.5428,5.574,5.6448,5.6606,5.6606,5.6606,5.6606,5.6606,5.6606,5.6606,5.6606,5.6606,5.6606,5.6606,5.6606,5.7133,5.7309,5.6684,5.7153,5.7289,5.6665,5.6606,5.6606,5.6606,5.6606,0.0,5.6606,5.6606,5.6606,5.6606,5.6606,5.6606,5.6606,5.6606,5.6606,0.0,5.6606,5.6606,5.6606,5.6606,5.6571,5.6522,5.6518,5.6491,5.6507,5.6507,5.6507,5.6507,5.6507,5.6507,5.6507,5.6507,5.6507,5.6507,0.0,0.0,0.0,0.0,0.0,0.0,0.0,0.0,0.0,0.0,0.0,0.0,0.0,0.0,0.0,0.0,0.0,0.0,0.0,0.0,0.0,4.9509,4.9509,4.9509,4.9509,4.9509,4.9509,4.9509,4.9509,0.0,0.0,0.0,0.0,4.9509,0.0,4.9509,4.9509,4.9509,4.9536,4.9608,4.9663,4.9774,4.9925,5.0057,5.0145,5.0236,5.0508,0.0,0.0,0.0,0.0,0.0,0.0,0.0,5.155,5.3332,5.3857,5.4249,5.6062,0.0,0.0,5.6038,0.0,5.604,5.6508,5.6606,5.6606,5.6606,5.6606,5.6606,5.6606,5.6606,5.6606,5.6606,5.6606,5.6723,5.7113,5.7543,5.7797,5.7797,5.7797,5.7641,5.7211,5.6821,5.6606,5.6606,0.0,5.6606,5.6606,5.6606,5.6606,5.6606,5.6606,5.6606,5.6606,5.6606,5.6606,5.6606,5.6606,5.6606,5.6606,5.6606,5.6555,5.6494,5.6502,5.6503,5.6507,5.6507,5.6507,5.6507,5.6507,5.6507,5.6507,5.6507,5.6507,5.6507,0.0,0.0,0.0,0.0,0.0,0.0,0.0,0.0,0.0,0.0,0.0,0.0,0.0,0.0,0.0,0.0,0.0,0.0,0.0,0.0,0.0,0.0,4.9509,4.9509,4.9509,4.9509,0.0,0.0,0.0,0.0,0.0,0.0,0.0,4.9509,0.0,4.9509,4.9509,4.9509,4.9509,4.9524,4.9623,4.9678,4.9721,4.9978,5.0082,5.0145,5.0402,5.0587,5.0722,5.0929,0.0,0.0,0.0,0.0,5.1517,5.318,5.3775,5.4262,5.5904,0.0,5.6606,5.6606,5.6606,0.0,5.6606,5.6606,5.6606,5.6606,5.6606,5.6606,5.6606,5.6606,5.6606,5.6606,5.6606,5.6879,5.7699,5.7933,5.8285,5.9005,5.8597,5.8128,5.7836,5.7192,5.6743,0.0,0.0,5.6606,5.6606,5.6606,5.6606,5.6606,5.6606,5.6606,5.6606,5.6606,5.6606,5.6606,5.6606,5.6606,5.6606,5.6593,5.6558,5.6494,5.6507,5.6492,5.6507,5.6507,5.6507,5.6507,5.6507,5.6507,5.6507,5.6507,5.6507,5.6507,0.0,0.0,0.0,0.0,0.0,0.0,0.0,0.0,0.0,0.0,0.0,0.0,0.0,0.0,0.0,0.0,0.0,0.0,0.0,0.0,0.0,0.0,4.9509,4.9509,4.9509,4.9509,4.9509,0.0,0.0,0.0,0.0,0.0,0.0,4.9509,0.0,0.0,4.9509,4.9509,4.9509,4.949,4.9521,4.9612,4.9721,4.9871,5.0005,5.0145,5.0402,5.0587,5.0722,5.0929,5.1101,0.0,0.0,0.0,5.1389,5.2397,5.3262,5.4122,5.512,0.0,5.6606,0.0,5.6606,5.6606,0.0,0.0,5.6606,0.0,5.6606,5.6606,5.6606,5.6606,5.6606,5.6606,5.6606,5.6879,5.7699,5.8441,5.8968,5.9083,5.9651,5.9456,5.7953,5.7699,5.7348,0.0,5.6606,5.6606,5.6606,5.6606,5.6606,5.6606,5.6606,5.6606,5.6606,5.6606,5.6606,5.6606,5.6606,5.6606,5.6606,5.6532,5.6504,5.6493,5.6494,5.6504,5.6507,5.6507,5.6507,5.6507,5.6507,5.6507,5.6507,5.6507,5.6507,5.6507,0.0,0.0,0.0,0.0,0.0,0.0,0.0,0.0,0.0,0.0,0.0,0.0,0.0,0.0,0.0,0.0,0.0,0.0,0.0,0.0,0.0,4.9509,4.9509,4.9509,4.9509,4.9509,4.9509,0.0,0.0,0.0,0.0,4.9509,4.9509,0.0,0.0,0.0,0.0,4.9509,4.9509,4.9509,4.9509,4.9536,0.0,0.0,0.0,0.0,0.0,0.0,5.0879,5.0971,5.1101,5.1105,5.0619,0.0,0.0,0.0,5.2771,5.4204,5.5603,5.6287,5.6606,0.0,5.6606,5.6606,5.6606,0.0,5.6606,5.6606,5.6606,5.6606,5.6606,5.6606,5.6606,5.6606,5.6977,5.7562,5.8402,5.928,6.0002,6.0508,6.0451,6.01,5.9339,5.8363,0.0,0.0,5.686,5.6606,5.6606,5.6606,5.6606,5.6606,5.6606,5.6606,5.6606,5.6606,5.6606,5.6606,5.6606,5.6606,5.6606,5.6522,5.6501,5.6493,5.6506,5.65,5.6507,5.6507,5.6507,5.6507,5.6507,5.6507,5.6507,5.6507,5.6507,5.6507,0.0,0.0,0.0,0.0,0.0,0.0,0.0,0.0,0.0,0.0,0.0,0.0,0.0,0.0,0.0,0.0,0.0,0.0,0.0,0.0,0.0,4.9509,4.9509,4.9509,4.9509,4.9509,0.0,0.0,0.0,0.0,4.9509,4.9509,4.9509,0.0,4.9509,4.9509,0.0,0.0,0.0,0.0,4.9509,4.9509,0.0,0.0,0.0,0.0,0.0,0.0,0.0,0.0,5.0617,5.0425,4.9765,5.0173,0.0,0.0,0.0,0.0,0.0,0.0,5.6606,5.6606,5.6606,5.6606,0.0,0.0,5.6606,0.0,5.6606,5.6606,5.6606,5.6606,5.6606,5.6606,5.7289,5.8109,5.8987,5.9846,6.0725,6.1601,6.1134,6.0646,6.0412,5.9222,0.0,0.0,5.7231,5.6821,5.6606,5.6606,5.6606,5.6606,5.6606,5.6606,5.6606,5.6606,5.6606,5.6606,5.6606,5.6591,5.6561,5.6523,5.6493,5.6506,5.6492,5.6507,5.6507,5.6507,5.6507,5.6507,5.6507,5.6507,5.6507,5.6507,5.6507,5.6507,0.0,0.0,0.0,0.0,0.0,0.0,0.0,0.0,0.0,0.0,0.0,0.0,0.0,0.0,4.9509,4.9509,0.0,0.0,0.0,0.0,0.0,4.9509,4.9509,0.0,4.9509,4.9509,0.0,0.0,0.0,0.0,4.9509,4.9509,4.9509,4.9509,4.9509,4.9509,4.9509,0.0,0.0,0.0,4.9509,4.9509,0.0,0.0,0.0,0.0,0.0,0.0,0.0,0.0,0.0,0.0,0.0,0.0,0.0,0.0,0.0,0.0,0.0,5.6548,0.0,5.6606,5.6606,0.0,0.0,0.0,0.0,5.6606,5.6606,5.6606,5.6606,5.6606,5.6606,5.6606,5.7289,5.8109,5.8987,5.9846,6.0725,6.1601,6.1659,6.131,6.0471,0.0,0.0,0.0,5.7758,5.7406,5.6645,5.6606,5.6606,5.6606,5.6606,5.6606,5.6606,5.6606,5.6606,5.6606,5.6606,5.6563,5.6501,5.6502,5.6502,5.6509,5.65,5.6511,5.6507,5.6507,5.6507,5.6507,5.6507,5.6507,5.6507,5.6507,5.6507,5.6507,0.0,0.0,0.0,0.0,0.0,0.0,0.0,0.0,0.0,0.0,0.0,0.0,0.0,4.9509,4.9509,4.9509,4.9509,0.0,0.0,0.0,0.0,4.9509,4.9509,4.9509,4.9509,4.9509,0.0,0.0,0.0,4.9509,4.9509,4.9509,4.9509,4.9509,4.9509,4.9509,4.9509,4.9509,0.0,0.0,4.9265,4.887,4.7991,0.0,0.0,0.0,0.0,0.0,0.0,0.0,0.0,0.0,0.0,0.0,0.0,0.0,0.0,0.0,0.0,0.0,0.0,5.6606,5.6606,5.6606,5.6606,5.6606,5.6606,5.6606,5.6606,5.6606,5.6606,5.6606,5.6606,5.6606,5.7738,5.8734,5.9063,6.0334,6.1349,6.1659,6.1698,6.1581,0.0,0.0,0.0,0.0,0.0,5.766,5.7387,5.6879,5.6606,5.6606,5.6606,5.6606,5.6606,5.6606,5.6606,5.6606,5.6566,5.6517,5.6502,5.649,5.6502,5.6506,5.6492,5.6507,5.6507,5.6507,5.6507,5.6507,5.6507,5.6507,5.6507,5.6507,5.6507,5.6507,0.0,0.0,0.0,0.0,0.0,0.0,0.0,0.0,0.0,0.0,0.0,0.0,0.0,0.0,4.9509,4.9509,4.9509,4.9509,4.9509,4.9509,4.9509,4.9509,4.9509,4.9509,4.9509,0.0,0.0,0.0,0.0,0.0,0.0,4.9509,4.9509,4.9509,4.9509,4.9509,0.0,0.0,0.0,4.8232,4.8532,4.8157,4.7502,0.0,0.0,0.0,0.0,0.0,0.0,0.0,0.0,0.0,0.0,0.0,0.0,0.0,0.0,0.0,5.6184,0.0,0.0,0.0,0.0,5.6606,5.6606,0.0,5.6606,5.6606,5.6606,5.6606,5.6606,5.6606,5.6606,5.6606,5.8011,5.9102,5.9102,6.0605,6.1698,6.1698,6.1698,6.1698,0.0,0.0,0.0,0.0,0.0,0.0,5.7816,5.7035,5.6606,5.6606,5.6606,5.6606,5.6606,5.6606,5.6606,5.6606,5.6548,5.6519,5.6504,5.6507,5.6494,5.6501,5.6504,5.6507,5.6507,5.6507,5.6507,5.6507,5.6507,5.6507,5.6507,5.6507,5.6507,5.6507,0.0,0.0,0.0,0.0,0.0,0.0,0.0,0.0,0.0,0.0,0.0,0.0,0.0,0.0,0.0,4.9509,4.9509,4.9509,4.9509,4.9509,4.9509,4.9509,0.0,0.0,0.0,0.0,0.0,0.0,0.0,0.0,0.0,0.0,4.9546,4.9546,4.9565,4.9565,4.9471,0.0,4.8157,4.8063,0.0,4.75,4.8202,0.0,0.0,0.0,5.1867,5.2152,0.0,5.2394,0.0,0.0,0.0,0.0,0.0,0.0,0.0,0.0,0.0,0.0,0.0,0.0,0.0,0.0,5.6606,0.0,5.6567,5.6586,5.6586,5.6567,5.6606,5.6606,5.6606,5.6606,5.7972,5.9063,5.9102,6.0586,6.1679,6.1698,6.1698,0.0,0.0,0.0,0.0,0.0,5.9631,5.8753,5.7875,5.7055,5.6606,5.6606,5.6606,5.6606,5.6606,5.6606,5.6606,5.6606,5.6608,5.6556,5.6495,5.6494,5.6504,5.6507,5.6507,5.6507,5.6507,5.6507,5.6507,5.6507,5.6507,5.6507,5.6507,5.6507,5.6507,5.6507,0.0,0.0,0.0,0.0,0.0,0.0,0.0,0.0,0.0,0.0,0.0,0.0,0.0,0.0,4.9509,4.9509,4.9509,4.9509,4.9509,4.9509,4.9509,4.9509,4.9509,4.9509,4.9509,0.0,0.0,0.0,0.0,0.0,0.0,0.0,0.0,0.0,5.0973,5.0917,5.026,4.8814,0.0,4.6486,4.7462,4.765,0.0,0.0,0.0,0.0,0.0,5.1564,5.1222,0.0,5.1858,5.1299,0.0,0.0,0.0,0.0,0.0,0.0,5.623,0.0,0.0,0.0,0.0,0.0,0.0,0.0,5.5845,5.6469,5.6098,5.5845,5.6489,5.6606,5.6606,5.6606,5.7484,5.8382,5.9005,6.0061,6.0998,6.162,6.1698,0.0,0.0,0.0,0.0,0.0,6.0529,5.9651,5.8792,5.7387,5.6606,5.6606,5.6606,5.6606,5.6606,5.6606,5.6606,5.6606,5.654,5.6522,5.6494,5.6509,5.65,5.6507,5.6507,5.6507,5.6507,5.6507,5.6507,5.6507,5.6507,5.6507,5.6507,5.6507,5.6507,5.6507,0.0,0.0,0.0,0.0,0.0,0.0,0.0,0.0,0.0,0.0,0.0,0.0,0.0,0.0,0.0,4.9509,4.9509,4.9509,4.9509,4.9509,4.9509,4.9509,4.9509,4.9509,4.9509,0.0,0.0,0.0,0.0,0.0,0.0,0.0,0.0,0.0,0.0,0.0,0.0,0.0,0.0,0.0,4.795,0.0,0.0,4.9761,5.0681,0.0,0.0,0.0,5.2857,5.3718,5.3709,0.0,0.0,0.0,0.0,0.0,0.0,0.0,0.0,0.0,0.0,0.0,0.0,0.0,5.6545,5.6189,5.5884,0.0,5.5942,5.5884,5.602,5.6352,5.6606,5.6606,5.6996,5.7582,5.8441,5.9612,6.0588,6.1095,0.0,0.0,0.0,6.1698,6.1698,6.1698,6.0881,5.9866,5.8616,5.7309,5.6606,5.6606,5.6606,5.6606,5.6606,5.6606,5.6606,5.6606,5.6522,5.65,5.6494,5.6503,5.6492,5.6507,5.6507,5.6507,5.6507,5.6507,5.6507,5.6507,5.6507,5.6507,5.6507,5.6507,5.6507,5.6507,0.0,0.0,0.0,4.8212,4.8402,4.8605,0.0,0.0,0.0,0.0,0.0,0.0,0.0,0.0,0.0,0.0,4.9509,4.9509,4.9509,4.9509,4.9509,4.9509,4.9509,4.9509,4.9509,4.9584,0.0,0.0,0.0,0.0,0.0,0.0,0.0,0.0,0.0,0.0,0.0,0.0,0.0,4.9828,4.8852,4.9415,0.0,0.0,5.2118,5.3736,5.4096,5.4839,5.573,5.6144,5.6291,0.0,0.0,0.0,0.0,0.0,5.6291,0.0,0.0,0.0,0.0,0.0,0.0,0.0,5.6494,5.6464,5.6211,0.0,5.5823,5.6098,5.5415,5.5923,5.6489,5.6586,5.6606,5.6879,5.7699,5.9222,6.0295,6.0393,0.0,0.0,6.1698,6.1698,6.1698,6.1698,6.0881,5.9671,5.8031,5.7172,5.6684,5.6606,5.6606,5.6606,5.6606,5.6606,5.6606,5.6606,5.6536,5.6504,5.6494,5.6502,5.6498,5.6507,5.6507,5.6507,5.6507,5.6507,5.6507,5.6507,5.6507,5.6507,5.6507,5.6507,5.6507,5.6507,0.0,0.0,0.0,4.8495,4.855,4.8605,4.8605,0.0,0.0,0.0,0.0,0.0,0.0,0.0,0.0,0.0,4.9509,4.9509,4.9509,4.9509,4.9509,4.9509,4.9509,4.9509,4.9509,5.0128,5.0538,0.0,0.0,0.0,0.0,0.0,0.0,0.0,0.0,0.0,0.0,0.0,0.0,5.236,5.082,0.0,5.1743,5.2454,5.3351,5.4307,5.4819,5.5157,5.5467,5.6094,5.6291,5.6291,0.0,0.0,0.0,5.6291,0.0,0.0,0.0,0.0,0.0,0.0,0.0,0.0,5.6414,5.5925,5.5421,0.0,5.4836,5.4674,5.5201,5.5435,5.5786,5.6489,5.6606,5.6879,5.7699,5.8695,5.9612,0.0,0.0,0.0,6.1698,6.1698,6.1698,6.1698,6.0881,5.9944,5.8909,5.8031,5.727,5.6626,5.6606,5.6606,5.6606,5.6606,5.6606,5.6606,5.6523,5.6498,5.6494,5.6491,5.65,5.6507,5.6507,5.6507,5.6507,5.6507,5.6507,5.6507,5.6507,5.6507,5.6507,5.6507,5.6507,5.6585,0.0,0.0,0.0,4.8819,4.8942,4.8976,4.8838,0.0,0.0,0.0,0.0,0.0,0.0,0.0,0.0,0.0,0.0,0.0,0.0,4.9509,4.9678,5.0072,5.0091,5.0278,5.0691,5.1086,5.1499,5.1947,0.0,0.0,0.0,0.0,0.0,0.0,0.0,0.0,0.0,0.0,5.3789,5.3677,5.2454,0.0,5.3151,5.3186,5.3449,5.3814,5.3949,5.4213,5.4561,5.4842,5.4984,0.0,0.0,5.565,5.5747,0.0,5.6291,5.6291,0.0,0.0,0.0,5.6296,0.0,0.0,0.0,5.6059,5.5567,5.4723,5.4585,5.4484,5.4088,5.4715,5.5435,5.5884,5.6313,5.6743,5.7133,5.7914,5.8616,0.0,0.0,0.0,6.1056,6.1444,6.1698,6.1698,6.0881,6.0022,5.9141,5.8265,5.7426,5.6626,5.6606,5.6606,5.6606,5.6606,5.6606,5.6606,5.6523,5.6495,5.6494,5.6501,5.6507,5.6507,5.6507,5.6507,5.6507,5.6507,5.6507,5.6507,5.6507,5.6507,5.6507,5.6507,5.676,5.7169,0.0,0.0,0.0,4.8802,4.8959,4.9062,0.0,0.0,0.0,0.0,0.0,0.0,0.0,0.0,0.0,0.0,0.0,0.0,0.0,4.9734,5.0091,5.0898,5.0917,5.1236,5.1893,5.2062,5.2494,5.3205,0.0,0.0,0.0,0.0,0.0,0.0,0.0,0.0,0.0,0.0,0.0,5.4366,0.0,5.3616,5.409,5.3449,5.3111,5.2946,5.2838,5.3176,5.3663,5.3642,5.365,5.3818,5.4531,5.4744,0.0,0.0,0.0,0.0,0.0,0.0,0.0,0.0,0.0,5.6292,0.0,0.0,0.0,5.4445,5.4577,0.0,0.0,0.0,0.0,0.0,0.0,0.0,0.0,5.7016,0.0,0.0,0.0,0.0,6.0373,6.1193,6.1698,6.1698,6.1056,6.0276,5.9397,5.8519,5.768,5.686,5.6684,5.6606,5.6606,5.6593,5.6575,5.6577,5.6522,5.6508,5.6507,5.6498,5.6507,5.6507,5.6507,5.6507,5.6507,5.6507,5.6507,5.6507,5.6507,5.6507,5.6507,5.6507,5.7013,5.7715,4.8421,4.8269,0.0,0.0,4.7868,0.0,0.0,0.0,0.0,0.0,0.0,0.0,0.0,0.0,0.0,0.0,0.0,0.0,5.0519,0.0,5.0917,5.1724,5.1762,5.1818,5.1912,5.2644,5.3111,5.3205,5.3902,0.0,0.0,0.0,0.0,0.0,5.4664,0.0,0.0,0.0,5.4581,0.0,5.3701,5.3357,0.0,5.3224,5.2719,5.2118,5.2621,5.3157,5.3608,0.0,5.3695,5.3721,0.0,5.3857,5.3864,5.3974,0.0,0.0,0.0,0.0,0.0,0.0,5.6298,0.0,0.0,0.0,5.6066,5.5151,0.0,0.0,0.0,0.0,0.0,0.0,0.0,0.0,5.6372,5.6001,5.6138,5.7621,5.8656,0.0,0.0,6.1193,6.1698,6.1698,6.1601,6.1174,6.0295,5.9436,5.8558,5.7699,5.6977,5.6606,5.6606,5.6532,5.6519,5.652,5.6507,5.6494,5.6494,5.65,5.6507,5.6507,5.6507,5.6507,5.6507,5.6507,5.6507,5.6507,5.6507,5.6507,5.6507,5.6507,5.7013,5.7812,4.8993,4.8925,0.0,0.0,0.0,0.0,0.0,0.0,0.0,0.0,0.0,0.0,0.0,0.0,0.0,0.0,0.0,5.1048,0.0,0.0,0.0,5.2606,5.2644,5.29,5.3449,5.3841,5.4078,5.4192,5.4532,0.0,0.0,0.0,0.0,0.0,5.4852,0.0,5.4889,0.0,5.4474,0.0,0.0,0.0,0.0,5.1986,5.1609,5.111,5.1376,5.1757,5.2143,0.0,5.2214,0.0,0.0,0.0,0.0,0.0,0.0,0.0,0.0,0.0,0.0,0.0,0.0,0.0,5.6175,0.0,5.5933,0.0,0.0,0.0,0.0,0.0,0.0,0.0,5.3884,0.0,0.0,0.0,5.5181,0.0,0.0,0.0,0.0,0.0,0.0,0.0,6.1698,6.133,6.0451,5.9573,5.8695,5.7836,5.7016,5.6606,5.6606,5.6534,5.6502,5.6502,5.6502,5.6506,5.6506,5.6496,5.6507,5.6507,5.6507,5.6507,5.6507,5.6507,5.6507,5.6507,5.6507,5.6507,5.6565,5.7013,5.7734,5.8587,4.9979,0.0,0.0,0.0,0.0,0.0,0.0,0.0,0.0,0.0,0.0,0.0,5.1029,5.1555,0.0,0.0,5.1912,5.2006,0.0,0.0,5.2658,0.0,5.3572,0.0,5.4676,5.4676,5.4742,5.4901,5.4901,0.0,0.0,0.0,0.0,0.0,0.0,5.5014,5.5075,0.0,5.4258,5.3651,5.3158,5.2129,5.0878,5.0833,5.0834,5.0844,5.0885,5.1294,5.1813,5.1813,5.1852,0.0,5.2569,0.0,0.0,0.0,0.0,0.0,5.3636,0.0,0.0,0.0,0.0,0.0,0.0,0.0,0.0,0.0,0.0,0.0,0.0,0.0,0.0,0.0,0.0,5.3457,0.0,0.0,0.0,0.0,0.0,0.0,0.0,0.0,0.0,6.131,6.1562,6.1425,6.0783,5.9924,5.9065,5.8187,5.7367,5.6805,5.6579,5.652,5.6504,5.6503,5.6506,5.6508,5.6508,5.6508,5.6507,5.6507,5.6507,5.6507,5.6507,5.6507,5.6507,5.6507,5.6507,5.6507,5.6604,5.7403,5.8256,5.9113,5.1189,4.9878,0.0,0.0,0.0,0.0,0.0,0.0,0.0,0.0,0.0,0.0,0.0,0.0,0.0,0.0,0.0,5.225,5.3111,0.0,5.3572,0.0,0.0,5.4657,0.0,5.4886,5.4886,5.4901,5.4901,0.0,0.0,0.0,0.0,0.0,0.0,5.5094,5.5037,5.4262,5.3919,5.3748,5.2055,5.0951,5.0317,0.0,5.0773,5.1681,5.1882,0.0,0.0,5.3618,5.3618,0.0,0.0,0.0,0.0,0.0,0.0,0.0,0.0,0.0,0.0,5.352,0.0,0.0,0.0,0.0,5.3772,0.0,0.0,0.0,0.0,0.0,0.0,0.0,0.0,0.0,0.0,0.0,0.0,0.0,0.0,0.0,0.0,0.0,6.0412,6.0432,6.1213,6.1698,6.1659,6.0822,5.9963,5.9083,5.8207,5.7363,5.6501,5.6502,5.6506,5.6492,5.65,5.6511,5.6511,5.6507,5.6507,5.6507,5.6507,5.6507,5.6507,5.6507,5.6507,5.6507,5.6507,5.6507,5.6604,5.7403,5.8256,5.9113,0.0,0.0,0.0,0.0,0.0,0.0,0.0,5.125,0.0,5.1554,5.2246,0.0,0.0,5.3245,5.3545,0.0,0.0,5.3677,5.3958,5.3977,0.0,0.0,0.0,5.4738,0.0,0.0,5.5104,5.5238,0.0,0.0,0.0,0.0,0.0,0.0,0.0,5.53,0.0,0.0,0.0,0.0,0.0,5.1679,5.19,0.0,5.1507,5.1981,5.2719,5.3303,0.0,5.3696,5.3696,5.3696,5.3696,5.3696,5.3696,5.3708,5.35,0.0,0.0,0.0,5.3326,5.3636,0.0,0.0,0.0,0.0,0.0,0.0,0.0,0.0,0.0,0.0,0.0,0.0,0.0,0.0,0.0,0.0,0.0,0.0,0.0,0.0,0.0,0.0,0.0,6.0315,6.0666,6.1095,6.1679,6.0861,5.9993,5.913,5.8253,5.738,5.6502,5.6504,5.6502,5.6506,5.6496,5.6507,5.6507,5.6507,5.6507,5.6507,5.6507,5.6507,5.6507,5.6507,5.6507,5.6507,5.6507,5.6507,5.6663,5.8046,5.8743,5.9211,5.174,0.0,0.0,0.0,5.1265,0.0,0.0,0.0,5.2466,5.2466,5.29,0.0,5.3599,0.0,5.3637,0.0,5.3729,5.3558,5.3672,5.3922,0.0,5.4353,5.4633,0.0,0.0,0.0,0.0,0.0,0.0,5.5403,0.0,0.0,0.0,0.0,0.0,5.5231,5.4887,5.4008,5.3301,0.0,0.0,5.2346,0.0,0.0,5.2839,5.3028,0.0,5.4297,5.4627,5.4627,5.4627,5.4627,5.4627,5.4627,5.4627,5.4627,5.4407,5.4155,5.4155,5.3947,0.0,5.3695,5.3695,0.0,5.3695,0.0,0.0,0.0,0.0,0.0,0.0,0.0,0.0,0.0,0.0,0.0,0.0,5.1406,0.0,0.0,0.0,0.0,0.0,0.0,5.8089,5.9807,6.0217,6.079,0.0,0.0,6.0323,5.914,5.8555,5.7693,5.6502,5.6502,5.65,5.6501,5.6504,5.6507,5.6507,5.6507,5.6507,5.6507,5.6507,5.6507,5.6507,5.6507,5.6507,5.6507,5.6507,5.6507,5.6702,5.8373,5.9386,6.0088,5.2898,5.2735,0.0,0.0,5.1821,5.2958,5.374,5.4144,5.4373,0.0,5.3731,5.3579,5.4349,5.2998,5.2425,5.3393,5.2607,5.2184,5.2504,5.3123,0.0,0.0,5.4637,5.5105,5.5256,0.0,0.0,0.0,0.0,0.0,0.0,0.0,0.0,0.0,5.5345,0.0,5.4046,5.3129,5.2747,5.2805,5.2843,5.2881,5.3063,5.4216,5.466,5.4697,5.4968,5.5592,5.6291,5.6291,5.6291,5.6291,5.6291,5.6291,5.6291,5.6291,5.5709,5.5068,5.5068,5.4465,5.3831,5.3772,0.0,0.0,0.0,0.0,5.3462,0.0,0.0,0.0,0.0,0.0,0.0,0.0,0.0,0.0,0.0,0.0,0.0,0.0,0.0,0.0,0.0,5.6001,5.7211,5.8853,5.9827,6.0721,0.0,0.0,6.0898,5.9151,5.9091,5.8261,5.6525,5.6503,5.6501,5.6507,5.6507,5.6507,5.6507,5.6507,5.6507,5.6507,5.6507,5.6507,5.6507,5.6507,5.6507,5.6507,5.6507,5.6546,5.6819,5.8412,6.0107,6.1607,5.3008,5.2934,5.2787,5.2501,5.2532,5.2752,5.3159,5.3643,0.0,0.0,5.4382,5.4534,5.4761,5.4401,5.4228,5.4485,5.4284,0.0,0.0,0.0,0.0,5.3919,5.409,5.3981,5.3473,5.3473,0.0,5.3473,0.0,0.0,5.4448,0.0,0.0,0.0,0.0,0.0,5.4008,5.2537,5.2251,5.2862,5.3511,5.4142,5.4791,0.0,5.549,5.5527,5.5848,5.6117,5.6291,5.6291,5.6291,5.6291,5.6291,5.6291,5.6291,5.6291,5.6136,5.5961,5.5961,5.5806,5.5476,5.4835,5.4679,5.4504,0.0,0.0,0.0,0.0,0.0,0.0,0.0,0.0,0.0,0.0,0.0,0.0,0.0,0.0,0.0,5.1394,0.0,0.0,5.327,5.4732,5.6069,5.7082,5.857,5.981,6.0681,0.0,0.0,5.9085,5.9024,5.8203,5.6512,5.6492,5.6504,5.6507,5.6507,5.6507,5.6507,5.6507,5.6507,5.6507,5.6507,5.6507,5.6507,5.6507,5.6507,5.6507,5.6507,5.7267,5.8412,5.8841,6.0107,6.1583,5.2846,5.2824,5.2853,5.2944,0.0,5.3122,5.3525,5.3979,0.0,5.4484,5.4405,0.0,5.4863,5.4257,5.3983,5.442,5.4073,0.0,5.3968,0.0,0.0,5.3994,5.4337,5.4167,5.3397,5.3359,0.0,5.2805,0.0,0.0,5.3531,0.0,0.0,0.0,0.0,5.3339,5.2977,5.2384,5.2614,5.3435,5.4314,5.4963,0.0,5.5707,5.5798,5.5836,5.6178,5.6291,5.6291,5.6291,5.6291,5.6291,5.6291,5.6291,5.6291,5.6291,5.6291,5.6291,5.6291,5.6291,5.6175,5.5689,5.5573,5.5437,5.4951,5.4841,5.4718,0.0,0.0,0.0,0.0,0.0,0.0,0.0,0.0,0.0,0.0,0.0,0.0,0.0,5.1394,0.0,5.2078,5.3717,5.5248,5.6453,5.8131,5.9489,0.0,0.0,0.0,5.9602,5.9209,5.8356,5.7033,5.6682,5.6507,5.6507,5.6507,5.6507,5.6507,5.6507,5.6507,5.6507,5.6507,5.6507,5.6507,5.6507,5.6507,5.6507,5.6507,5.7507,5.8968,5.8992,6.0073,6.1548,5.2595,5.2599,5.268,0.0,0.0,0.0,0.0,5.4661,0.0,5.4931,0.0,5.4121,5.4884,5.3666,5.3138,5.4022,0.0,5.2884,5.3136,5.3734,5.4103,5.4104,5.483,5.483,5.3951,5.3932,5.3511,0.0,0.0,5.2747,5.2652,0.0,0.0,0.0,0.0,0.0,0.0,5.2575,5.3416,5.418,5.5059,5.5403,5.5422,5.5707,5.5798,5.5836,5.6178,5.6291,5.6291,5.6291,5.6291,5.6291,5.6291,5.6291,5.6291,5.6291,5.6291,5.6291,5.6291,5.6291,5.6291,5.6291,5.6291,5.6291,5.6291,5.6291,5.6097,5.534,5.5165,5.4932,0.0,0.0,0.0,0.0,0.0,0.0,0.0,0.0,0.0,0.0,0.0,0.0,5.1394,5.2975,5.4637,5.6144,5.8019,5.9433,0.0,0.0,0.0,6.0326,5.9445,5.8587,5.7715,0.0,5.6507,5.6507,5.6507,5.6507,5.6507,5.6507,5.6507,5.6507,5.6507,5.6507,5.6507,5.6507,5.6507,5.6507,5.6479,5.74,5.874,5.8905,5.9955,6.1324,5.2757,5.2761,0.0,0.0,0.0,5.4171,5.4635,5.4761,5.4889,5.5038,5.5086,5.5134,5.5305,5.5038,5.4956,5.5116,5.4975,0.0,0.0,0.0,0.0,5.4123,5.4256,5.3913,5.3053,5.3034,5.2633,0.0,5.2461,5.2461,5.183,0.0,0.0,0.0,0.0,0.0,5.1704,5.3225,0.0,5.418,5.5059,5.5403,5.5422,5.5707,5.5798,5.5836,5.6178,5.6291,5.6291,5.6291,5.6291,5.6291,5.6291,5.6291,5.6291,5.6291,5.6291,5.6291,5.6291,5.6291,5.6291,5.6291,5.6291,5.6291,5.6291,5.6291,5.6253,5.6097,5.6078,5.6019,5.5864,0.0,0.0,0.0,0.0,0.0,0.0,0.0,0.0,0.0,0.0,5.1394,0.0,5.2975,5.4138,5.4429,5.7341,5.9139,0.0,0.0,0.0,0.0,5.9445,0.0,0.0,0.0,5.6507,5.6507,5.6507,5.6507,5.6507,5.6507,5.6507,5.6507,5.6507,5.6507,5.6507,5.6507,5.6507,5.6483,5.6383,5.6942,5.7898,5.8596,5.9431,6.0371,5.2872,0.0,0.0,0.0,0.0,0.0,0.0,5.4874,5.514,5.5227,5.5345,5.5403,5.5403,5.5403,5.5403,5.5403,5.5403,5.5403,5.5403,5.5403,5.5212,5.4791,5.4772,5.4371,5.3492,5.3473,5.3053,5.2212,5.2614,5.2384,5.1608,0.0,0.0,0.0,0.0,5.2066,0.0,0.0,0.0,5.4811,5.5231,5.5403,5.5479,5.6188,5.6474,5.657,5.7341,5.7593,5.7535,5.7107,5.7243,5.7593,5.7593,5.7593,5.7593,5.7593,5.7593,5.7593,5.7593,5.7593,5.7593,5.7593,5.7593,5.7593,5.7593,5.7593,5.7593,5.7593,5.7263,5.6842,5.6369,5.5617,0.0,0.0,0.0,0.0,0.0,0.0,0.0,0.0,0.0,0.0,0.0,0.0,0.0,0.0,0.0,5.9061,5.8989,0.0,0.0,0.0,0.0,0.0,0.0,0.0,0.0,5.6507,5.6507,5.6507,5.6507,5.6507,5.6507,5.6507,5.6507,5.6507,5.6507,5.6507,5.6507,5.6483,5.6354,5.6817,5.7657,5.85,5.9289,6.0085,5.3112,5.3367,0.0,0.0,5.4243,5.4731,5.4562,5.5028,5.5403,5.5403,5.5403,5.5403,5.5403,5.5403,5.5403,5.5403,5.5403,5.5403,5.5403,5.5403,5.5403,5.5403,5.5403,5.5078,5.439,5.4371,5.3951,5.3072,5.3072,5.2575,0.0,0.0,0.0,0.0,0.0,0.0,0.0,0.0,5.4868,5.567,5.567,5.5766,5.6034,5.6997,5.7381,5.7497,5.8467,5.8914,5.8972,5.8338,5.8428,5.8797,5.8797,5.8797,5.8797,5.8797,5.8797,5.8797,5.8797,5.8797,5.8797,5.8797,5.8797,5.8797,5.8797,5.8797,5.8797,5.8797,5.8292,5.7658,5.6952,5.6142,0.0,0.0,0.0,0.0,0.0,0.0,0.0,0.0,0.0,0.0,5.401,0.0,0.0,0.0,0.0,5.9078,5.9022,6.0659,6.1526,0.0,0.0,5.8899,5.8724,0.0,5.6507,5.6507,5.6507,5.6507,5.6507,5.6507,5.6507,5.6507,5.6507,5.6507,5.6507,5.6507,5.6479,5.6446,5.6333,5.6659,5.7313,5.8173,5.8975,5.9763,0.0,0.0,0.0,0.0,0.0,5.4899,5.5246,5.5364,5.5403,5.5403,5.5403,5.5403,5.5403,5.5403,5.5403,5.5403,5.5403,5.5403,5.5403,5.5403,5.5403,5.5403,5.5403,5.5365,5.5288,5.5288,5.4849,0.0,5.397,5.3168,0.0,0.0,0.0,0.0,0.0,0.0,0.0,5.4944,5.5747,5.6492,5.6492,5.695,5.771,5.8113,5.8287,5.8327,5.8672,5.9302,5.9963,5.9885,5.9399,5.8797,5.8797,5.8797,5.8797,5.8797,5.8797,5.8797,5.8797,5.8797,5.8797,5.8797,5.8797,5.8797,5.8797,5.8797,5.8797,5.8797,5.8739,5.8661,5.8583,5.7956,5.7439,0.0,0.0,0.0,0.0,0.0,0.0,0.0,0.0,0.0,0.0,5.4791,0.0,0.0,5.8038,5.909,5.9087,6.0682,6.1246,6.0458,0.0,5.8626,5.7832,5.6935,5.6507,5.6507,5.6507,5.6507,5.6507,5.6507,5.6507,5.6507,5.6507,5.6507,5.6507,5.6507,5.6422,5.6314,5.6232,5.6219,5.6335,5.7146,5.7983,5.8845,0.0,0.0,0.0,0.0,0.0,0.0,0.0,5.5227,5.5403,5.5403,5.5403,5.5403,5.5403,5.5403,5.5594,5.6071,5.611,5.6339,5.6874,5.6893,5.6893,5.6893,5.6893,5.6664,5.6129,5.611,5.5708,0.0,0.0,0.0,0.0,0.0,0.0,0.0,0.0,5.4658,5.5613,5.5976,5.6606,5.7371,5.7371,5.7581,5.7997,5.8806,5.9117,5.9234,6.0049,6.0584,6.0875,6.0875,6.0662,6.0363,6.0363,6.0363,6.0363,6.0363,6.0363,6.0363,6.0363,6.0363,6.0363,6.0363,6.0363,6.0363,6.0363,6.0363,6.0363,6.0363,5.9943,5.9419,5.8894,5.8581,5.8432,0.0,0.0,0.0,0.0,0.0,0.0,0.0,0.0,0.0,0.0,0.0,0.0,0.0,0.0,5.9307,5.9794,6.0951,6.1202,6.0326,0.0,5.8587,5.7715,5.6896,5.6507,5.6507,5.6507,5.6507,5.6507,5.6507,5.6507,5.6507,5.6507,5.6507,5.6507,5.6507,5.6417,5.6283,5.6219,5.6148,5.6203,5.7005,5.7849,5.8729,5.4264,0.0,5.4639,0.0,5.5042,5.53,5.5023,5.5214,5.5403,5.5403,5.5403,5.5403,5.5403,5.5403,5.5632,5.6205,5.6243,5.6606,5.7466,5.7523,5.7619,5.7886,5.7905,0.0,5.6988,5.6969,5.6568,5.5747,5.5747,0.0,0.0,0.0,0.0,0.0,5.483,5.5632,5.6969,5.6969,5.7466,5.8249,5.8249,5.8402,5.8723,5.9634,5.9985,6.0103,6.1058,6.1393,6.1393,6.1393,6.1393,6.1393,6.1393,6.1393,6.1393,6.1393,6.1393,6.1393,6.1393,6.1393,6.1393,6.1393,6.1393,6.1393,6.1393,6.1393,6.14,6.1421,6.0948,6.0313,5.971,5.9433,5.9328,5.9365,0.0,0.0,0.0,0.0,0.0,0.0,5.8558,5.8421,5.9044,5.8538,0.0,0.0,0.0,5.9716,6.0262,6.1134,6.1072,0.0,0.0,0.0,0.0,5.678,5.6507,5.6507,5.6507,5.6507,5.6507,5.6507,5.6507,5.6507,5.6507,5.6507,5.6507,5.645,5.6378,5.6261,5.6194,5.6139,5.6133,5.6706,5.7637,5.869,5.4159,5.4296,5.453,5.526,5.539,5.539,5.539,5.539,5.5403,5.5403,5.5403,5.5403,5.5403,5.5403,5.5403,5.5422,5.5422,5.5766,5.6549,5.6619,5.6988,0.0,0.0,5.7905,5.7886,5.7886,5.7466,5.6587,0.0,0.0,5.4104,0.0,5.4982,5.6581,5.6581,5.7065,5.7886,5.7886,5.8345,5.9076,5.9076,5.9606,6.0406,6.075,6.0892,6.0933,6.1271,6.1393,6.1393,6.1393,6.1393,6.1393,6.1393,6.1393,6.1393,6.1393,6.1393,6.1393,6.1393,6.1393,6.1393,6.1393,6.1393,6.1393,6.1393,6.1393,6.1414,6.1485,6.1484,6.1482,6.1481,6.0824,6.0285,6.0285,0.0,0.0,0.0,0.0,0.0,0.0,5.9083,5.9083,5.9102,5.9083,0.0,0.0,0.0,0.0,0.0,0.0,0.0,5.9079,5.9016,0.0,5.6526,5.6507,5.6507,5.6507,5.6507,5.6507,5.6507,5.6507,5.6507,5.6507,5.6507,5.6507,5.6483,5.6354,5.6255,5.6188,5.6132,5.6048,5.6012,5.6012,5.7114,5.8613,5.456,5.4639,5.4795,5.5319,5.5403,5.5403,5.5403,5.5403,5.5403,5.5403,5.5403,5.5403,5.5403,5.5403,5.5632,0.0,5.6224,5.6568,0.0,5.7485,5.7848,5.8689,5.8727,5.8727,5.8727,5.8727,5.8307,5.7485,0.0,0.0,0.0,5.6683,5.6969,5.7485,5.7485,5.7944,5.8727,5.8727,5.9205,5.9988,5.9988,6.0141,6.0431,6.0628,6.0784,6.0932,6.1113,6.1275,6.1393,6.1393,6.1393,6.1393,6.1393,6.1393,6.1393,6.1393,6.1393,6.1393,6.1393,6.1393,6.1393,6.1393,6.1393,6.1407,6.146,6.1464,6.1468,6.1509,6.1498,6.151,6.1505,6.1335,6.1185,6.1185,6.1019,0.0,0.0,0.0,0.0,6.0878,6.0354,6.0217,6.08,6.0334,0.0,0.0,0.0,0.0,0.0,0.0,0.0,0.0,5.8412,0.0,5.6507,5.6507,5.6507,5.6507,5.6507,5.6507,5.6507,5.6507,5.6507,5.6507,5.6507,5.6507,5.6483,5.6354,5.6255,5.6188,5.6132,5.6067,5.6012,5.6012,5.7095,5.8613,5.4528,5.4607,5.478,5.5305,5.5403,5.5403,5.5403,5.5403,5.5403,5.5403,5.5403,5.5403,5.5403,5.5403,0.0,5.611,5.6148,5.6511,5.7351,5.7409,5.7772,5.8612,5.8937,5.9095,5.9095,5.9415,0.0,5.8345,5.8058,5.7905,5.7905,5.7905,5.8058,5.8345,5.8345,5.8803,5.9587,5.9587,5.9892,6.0403,6.0403,6.0403,6.0412,6.0621,6.0795,6.0942,6.1141,6.1295,6.1393,6.1393,6.1414,6.1434,6.1434,6.1434,6.1428,6.1414,6.1414,6.1434,6.1434,6.1434,6.144,6.144,6.144,6.1446,6.1487,6.1505,6.1505,6.1534,6.1534,6.1541,6.1576,6.1618,6.1634,6.1634,6.1668,6.1698,6.1698,0.0,0.0,0.0,0.0,0.0,0.0,6.1213,6.1092,0.0,0.0,0.0,0.0,0.0,0.0,5.904,5.8139,0.0,5.6507,5.6507,5.6507,5.6507,5.6507,5.6507,5.6507,5.6507,5.6507,5.6507,5.6507,5.6474,5.6417,5.6303,5.6219,5.6167,5.6087,5.6043,5.6012,5.6012,5.7095,5.8613,5.4159,5.4332,5.4562,0.0,5.5403,5.5403,5.5403,5.5403,5.5403,5.5403,5.5403,5.5403,5.5403,5.5403,5.5403,5.5403,0.0,0.0,0.0,5.6511,5.6893,5.7772,5.8536,5.8994,5.9095,5.9892,5.9931,5.9205,5.844,5.8058,5.8058,5.8058,5.8479,5.9205,5.9205,5.9644,6.0403,6.0403,6.0403,6.0403,6.0403,6.0403,6.0453,6.0769,6.0882,6.0943,6.1263,6.1386,6.1393,6.14,6.1447,6.1503,6.1509,6.1509,6.149,6.1434,6.146,6.1509,6.1509,6.1489,6.149,6.149,6.1495,6.1514,6.149,6.1514,6.1532,6.1588,6.1598,6.1628,6.1696,6.1698,6.1698,6.1698,6.1698,6.1698,6.1698,0.0,0.0,0.0,0.0,0.0,0.0,6.1698,6.1661,0.0,0.0,0.0,0.0,0.0,5.9742,5.8942,5.8066,5.7267,5.6507,5.6507,5.6507,5.6507,5.6507,5.6507,5.6507,5.6507,5.6507,5.6507,5.6483,5.6417,5.6283,5.6219,5.6167,5.6094,5.6026,5.6012,5.6012,5.6012,5.7095,5.8613,0.0,0.0,5.4825,5.5319,5.5403,5.5403,5.5403,5.5403,5.5403,5.5403,5.5403,5.5403,5.5403,5.5403,5.5403,5.5403,5.5403,5.5479,5.567,5.5689,5.6052,5.6855,5.7084,5.7791,5.9057,5.93,5.9625,6.0083,5.9892,5.9797,5.9797,5.9797,5.9911,6.0083,6.0083,6.0198,6.0403,6.0403,6.0403,6.0403,6.0403,6.046,6.0559,6.0645,6.083,6.1058,6.1139,6.126,6.1407,6.146,6.1491,6.149,6.15,6.15,6.1505,6.148,6.148,6.149,6.149,6.15,6.149,6.149,6.1537,6.1553,6.1519,6.158,6.1634,6.1618,6.1634,6.1674,6.1698,6.1698,6.1698,6.1698,6.1698,6.1698,6.1698,6.1698,0.0,0.0,6.1698,6.1698,6.1698,6.1698,6.1419,0.0,0.0,0.0,0.0,5.8685,5.8219,5.8007,5.7208,5.6682,5.6507,5.6507,5.6507,5.6507,5.6507,5.6507,5.6507,5.6507,5.6507,5.6483,5.6388,5.6324,5.6283,5.6168,5.6117,5.6094,5.6026,5.6012,5.6012,5.6012,5.7095,5.8613,5.4463,5.4685,5.4933,5.5332,5.5403,5.5403,5.5403,5.5403,5.5403,5.5403,5.5403,5.5403,5.5403,5.5403,5.5403,5.5403,5.5403,5.5403,5.5403,5.5403,5.5594,5.6033,5.6396,5.7027,5.7944,5.8345,5.8956,5.9816,6.0198,6.0403,6.0403,6.0403,6.0403,6.0403,6.0403,6.0403,6.0403,6.046,6.0481,6.0481,6.0481,6.059,6.075,6.075,6.0894,6.1111,6.1209,6.1332,6.1454,6.1491,6.1518,6.1549,6.1556,6.1576,6.1588,6.1588,6.1576,6.1545,6.1545,6.1576,6.1588,6.1588,6.1625,6.1634,6.1595,6.1657,6.1696,6.164,6.1671,6.1698,6.1698,6.1698,6.1698,6.1698,6.1698,6.1698,6.1698,6.1698,0.0,6.1698,6.1349,6.1115,6.1115,6.0744,6.0321,5.9849,5.9433,0.0,5.8488,5.7625,5.7325,5.7695,5.6916,5.6507,5.6507,5.6507,5.6507,5.6507,5.6507,5.6507,5.6507,5.6507,5.6507,5.6483,5.6354,5.6278,5.6244,5.6134,5.6079,5.6059,5.601,5.6012,5.6012,5.6012,5.7095,5.8613,5.4746,5.4855,5.499,5.5332,5.5403,5.5403,5.5403,5.5403,5.5403,5.5403,5.5403,5.5403,5.5403,5.5403,5.5403,5.5403,5.5403,5.5403,5.5403,5.5403,5.5403,5.5403,5.6052,5.6473,5.6587,5.7447,5.8288,5.9095,5.9835,6.0255,6.0403,6.0403,6.0403,6.0403,6.0403,6.0403,6.0417,6.0553,6.0589,6.0601,6.0649,6.0765,6.0923,6.0943,6.1041,6.1164,6.1344,6.1441,6.1503,6.1495,6.1549,6.1598,6.1602,6.1643,6.1698,6.1698,6.1663,6.1625,6.1625,6.1565,6.1503,6.1503,6.1405,6.1308,6.1308,6.1308,6.1308,6.1308,6.1308,6.1308,6.1308,6.1308,6.1308,6.1308,6.1308,6.1308,6.1308,0.0,6.1308,6.1308,6.0646,6.0198,6.0198,5.9534,5.9044,5.8909,5.8222,5.7747,5.7609,5.6904,5.6819,5.7501,5.6858,5.6507,5.6507,5.6507,5.6507,5.6507,5.6507,5.6507,5.6507,5.6507,5.6507,5.6483,5.6344,5.625,5.6188,5.6124,5.6059,5.6012,5.6012,5.6012,5.6012,5.6012,5.7095,5.8613,5.4791,5.5066,5.5332,5.539,5.5403,5.5403,5.5403,5.5403,5.5403,5.5403,5.5403,5.5403,5.5403,5.5403,5.5403,5.5403,5.5403,5.5403,5.5403,5.5403,5.5403,5.5403,5.5517,5.5899,5.6587,5.7447,5.8288,5.9095,5.9243,5.9682,6.0403,6.0403,6.0403,6.0403,6.0403,6.0403,6.0417,6.0553,6.0589,6.0613,6.0853,6.0983,6.1076,6.1126,6.1248,6.1352,6.1386,6.1441,6.149,6.15,6.1537,6.1602,6.1666,6.1696,6.1698,6.1698,6.1696,6.1674,6.1674,6.1149,6.0607,6.0607,6.0041,5.9493,5.9493,5.9493,5.9493,5.9493,5.9493,5.9493,5.9493,5.9493,5.9493,5.9493,5.9493,5.9493,5.9493,0.0,5.9493,5.9493,5.9378,5.93,5.93,5.918,5.8792,5.805,5.7871,5.7473,5.6749,5.6569,5.6565,5.6682,5.6565,5.6507,5.6507,5.6507,5.6507,5.6507,5.6507,5.6507,5.6507,5.6507,5.6507,5.6483,5.63,5.6207,5.6188,5.6075,5.6001,5.6012,5.6012,5.6012,5.6012,5.6012,5.7095,5.8613,5.5127,5.5273,5.5403,5.5403,5.5403,5.5403,5.5403,5.5403,5.5403,5.5403,5.5403,5.5403,5.5403,5.5403,5.5403,5.5403,5.5403,5.5403,5.5403,5.5403,5.5403,5.5403,5.5403,5.5575,5.5957,5.6759,5.76,5.8459,5.8899,5.9548,6.0403,6.0403,6.0403,6.0403,6.0403,6.0403,6.0417,6.0664,6.0762,6.0776,6.1001,6.1186,6.1308,6.1264,6.1331,6.1451,6.1451,6.1509,6.1558,6.1541,6.1595,6.1663,6.1696,6.1698,6.1601,6.1134,6.0998,6.0998,6.0998,6.0354,5.971,5.971,5.9397,5.9102,5.9102,5.9102,5.9102,5.9102,5.9102,5.9102,5.9102,5.9102,5.9102,5.9102,5.9102,0.0,0.0,5.9102,5.9102,5.9102,5.8695,5.8402,5.8402,5.8011,5.7582,5.7172,5.7128,5.6925,5.6515,5.6491,5.6507,5.6507,5.6507,5.6507,5.6507,5.6507,5.6507,5.6507,5.6507,5.6507,5.6507,5.6507,5.6507,5.6483,5.6294,5.6194,5.6181,5.6067,5.6012,5.6012,5.6012,5.6012,5.607,5.6525,5.7501,5.8671,5.5403,5.5403,5.5403,5.5403,5.5403,5.5403,5.5403,5.5403,5.5403,5.5403,5.5403,5.5403,5.5403,5.5403,5.5403,5.5403,5.5403,5.5403,5.5403,5.5403,5.5403,5.5403,5.5403,5.5403,5.5403,5.6014,5.674,5.76,5.8421,5.9262,6.0102,6.0313,6.0403,6.0403,6.0403,6.0431,6.046,6.0781,6.0913,6.0973,6.1182,6.137,6.1484,6.1392,6.1426,6.149,6.149,6.1541,6.1595,6.1595,6.1637,6.1659,6.1464,6.1408,6.1232,6.0354,5.9944,5.9846,6.0041,5.9456,5.8792,5.8792,5.8656,5.8517,5.8517,5.8517,5.8517,5.8517,5.8517,5.8517,5.8517,5.8517,5.8517,5.8517,0.0,0.0,0.0,5.8517,5.8517,5.8517,5.7933,5.7523,5.7523,5.6957,5.6606,5.6606,5.6543,5.6495,5.6495,5.6491,5.6507,5.6507,5.6507,5.6507,5.6507,5.6507,5.6507,5.6507,5.6507,5.6507,5.6507,5.6507,5.6507,5.6483,5.6294,5.6194,5.6181,5.6067,5.6012,5.6012,5.6012,5.6119,5.6371,5.7048,5.7985,5.899,5.5403,5.5403,5.5403,5.5403,5.5403,5.5403,5.5403,5.5403,5.5403,5.5403,5.5403,5.5403,5.5403,5.5403,5.5403,5.5403,5.5403,5.5403,5.5403,5.5403,5.5403,5.5403,5.5403,5.5403,5.5403,5.546,5.588,5.6702,5.7562,5.8402,5.921,6.0007,6.0403,6.0403,6.0403,6.0474,6.0608,6.0806,6.0973,6.1111,6.1375,6.1489,6.1515,6.1556,6.1545,6.149,6.149,6.1541,6.1595,6.1595,6.1637,6.1562,6.0744,6.049,6.0315,5.9456,5.8616,5.8168,5.8987,5.8558,5.7894,5.7894,5.7348,5.6782,5.6782,5.6782,5.6782,5.6782,5.6782,5.6782,5.6782,5.6782,5.6782,5.6782,0.0,0.0,5.6782,5.6782,5.6782,5.6782,5.6723,5.6684,5.6684,5.6626,5.6606,5.6606,5.6543,5.6495,5.6495,5.6491,5.6507,5.6507,5.6507,5.6507,5.6507,5.6507,5.6507,5.6507,5.6507,5.6507,5.6507,5.6507,5.6507,5.6483,5.6294,5.6194,5.6181,5.6067,5.6012,5.6012,5.6012,5.6487,5.7202,5.728,5.8372,5.9803,5.5403,5.5403,5.5403,5.5403,5.5403,5.5403,5.5403,5.5403,5.5403,5.5403,5.5403,5.5403,5.5403,5.5403,5.5403,5.5403,5.5403,5.5403,5.5403,5.5403,5.5403,5.5403,5.5403,5.5403,5.5403,5.5403,5.5785,5.6587,5.6931,5.7772,5.9095,5.9434,5.9873,6.0403,6.0403,6.0455,6.0613,6.0817,6.1002,6.1182,6.1409,6.1519,6.1576,6.1648,6.1657,6.1625,6.1625,6.1634,6.1588,6.1041,6.0873,6.0744,5.9866,5.9592,5.9417,5.8558,5.7719,5.7133,5.7465,5.7309,5.7055,5.7055,5.6821,5.6606,5.6606,5.6606,5.6606,5.6606,5.6606,5.6606,5.6606,5.6606,5.6606,5.6606,0.0,5.6606,5.6606,5.6606,5.6606,5.6606,5.6606,5.6606,5.6606,5.6606,5.6606,5.6606,5.6543,5.6495,5.6495,5.6491,5.6507,5.6507,5.6507,5.6507,5.6507,5.6507,5.6507,5.6507,5.6507,5.6507,5.6507,5.6507,5.6507,5.6483,5.6294,5.6505,5.6997,5.6853,5.7114,5.7617,5.7617,5.7811,5.8178,5.872,5.9339,5.9977,5.546,5.5403,5.5403,5.5403,5.5403,5.5403,5.5403,5.5403,5.5403,5.5403,5.5403,5.5403,5.5403,5.5403,5.5403,5.5403,5.5403,5.5403,5.5403,5.5403,5.5403,5.5403,5.5403,5.5403,5.5403,5.5403,5.567,5.6224,5.6473,5.7179,5.8326,5.8612,5.9185,5.9988,5.9988,6.0245,6.0696,6.0839,6.1049,6.131,6.1445,6.1541,6.1602,6.1671,6.1522,6.1291,6.1291,6.1113,6.0781,6.0198,5.9983,5.9846,5.8968,5.8519,5.8207,5.7601,5.7035,5.6606,5.6606,5.6606,5.6606,5.6606,5.6606,5.6606,5.6606,5.6606,5.6606,5.6606,5.6606,5.6606,5.6606,5.6606,5.6606,5.6606,5.6606,5.6606,5.6606,5.6606,5.6606,5.6606,5.6606,5.6606,5.6606,5.6606,5.6606,5.6606,5.6543,5.6508,5.6493,5.6508,5.6508,5.6507,5.6504,5.6508,5.6507,5.6507,5.6507,5.6507,5.6507,5.6624,5.6877,5.6877,5.7033,5.7277,5.7086,5.736,5.791,5.7763,5.8062,5.8613,5.8613,5.8767,5.9068,5.9667,6.0054,6.0364,5.5575,5.5422,5.5422,5.5403,5.5403,5.5403,5.5403,5.5403,5.5403,5.5403,5.5403,5.5403,5.5403,5.5403,5.5403,5.5403,5.5403,5.5403,5.5403,5.5403,5.5403,5.5403,5.5403,5.5403,5.5403,5.5403,5.5403,5.5403,5.6205,5.6587,5.6619,5.7485,5.8326,5.9076,5.9095,5.9766,6.0892,6.0911,6.1122,6.1509,6.151,6.1541,6.1602,6.1652,6.1154,6.0393,6.0393,5.9827,5.9102,5.9083,5.9083,5.8948,5.807,5.7231,5.6606,5.6606,5.6606,5.6606,5.6606,5.6606,5.6606,5.6606,5.6606,5.6606,5.6606,5.6606,5.6606,5.6606,5.6606,5.6606,5.6606,5.6606,5.6606,5.6606,5.6606,5.6606,5.6606,5.6606,5.6606,5.6606,5.6606,5.6606,5.6606,5.6606,5.6606,5.6606,5.6543,5.6493,5.6496,5.6501,5.6508,5.6507,5.6504,5.6504,5.6507,5.6507,5.6507,5.6507,5.6507,5.6935,5.7715,5.7715,5.8178,5.8992,5.8855,5.8797,5.8803,5.8662,5.8613,5.8632,5.8632,5.9145,5.9899,5.9899,6.0402,6.1099,5.6415,5.6243,5.6052,5.5498,5.5403,5.5403,5.5403,5.5403,5.5403,5.5403,5.5403,5.5403,5.5403,5.5403,5.5403,5.5403,5.5403,5.5403,5.5403,5.5403,5.5403,5.5403,5.5403,5.5403,5.5403,5.5403,5.5403,5.5403,5.5651,5.6052,5.6619,5.6855,5.7447,5.8288,5.8861,5.944,6.0043,6.0641,6.1122,6.1509,6.151,6.1166,6.0701,6.0754,6.0256,5.9495,5.9495,5.9319,5.9005,5.8382,5.8187,5.8031,5.7211,5.6782,5.6606,5.6606,5.6606,5.6606,5.6606,5.6606,5.6606,5.6606,5.6606,5.6606,5.6606,5.6606,5.6606,5.6606,5.6606,5.6606,5.6606,5.6606,5.6606,5.6606,5.6606,5.6606,5.6606,5.6606,5.6606,5.6606,5.6606,5.6606,5.6606,5.6606,5.6606,5.6606,5.6543,5.6502,5.6491,5.65,5.65,5.6508,5.65,5.6504,5.6507,5.6507,5.678,5.7345,5.7345,5.7793,5.8607,5.8607,5.8743,5.8992,5.8855,5.914,5.9689,5.9573,5.9841,6.0344,6.0344,6.0518,6.0731,6.0731,6.0886,6.1099,5.7275,5.7103,5.695,5.6473,5.6396,5.6396,5.6396,5.6396,5.6396,5.6396,5.6396,5.6396,5.6396,5.6396,5.6243,5.5899,5.5575,5.5403,5.5403,5.5403,5.5403,5.5403,5.5403,5.5403,5.5403,5.5403,5.5403,5.5403,5.5403,5.5651,5.6129,5.6129,5.6568,5.7409,5.7886,5.8444,5.9081,5.9993,6.0399,6.043,6.0852,6.0543,5.9823,5.9876,5.9339,5.8597,5.8597,5.8382,5.8031,5.7504,5.7328,5.7231,5.6743,5.6606,5.6606,5.6606,5.6606,5.6606,5.6606,5.6606,5.6606,5.6606,5.6606,5.6606,5.6606,5.6606,5.6606,5.6606,5.6606,5.6606,5.6606,5.6606,5.6606,5.6606,5.6606,5.6606,5.6606,5.6606,5.6606,5.6606,5.6606,5.6606,5.6606,5.6606,5.6591,5.6564,5.6522,5.6497,5.6493,5.6502,5.6499,5.6509,5.6504,5.6642,5.6974,5.6974,5.7228,5.7695,5.8046,5.8665,5.9503,5.9503,5.9698,6.0024,5.9885,6.0137,6.0609,6.0444,6.0654,6.1099,6.1099,6.1099,6.1099,6.1099,6.1099,6.1099,5.8173,5.8001,5.7982,5.7905,5.7905,5.7905,5.7905,5.7905,5.7905,5.7905,5.7905,5.7905,5.7905,5.7905,5.7581,5.6778,5.6052,5.5632,5.5632,5.5632,5.5632,5.5632,5.5556,5.5517,5.5517,5.5441,5.5403,5.5403,5.5403,5.5403,5.5403,5.5403,5.5785,5.6492,5.6581,5.713,5.8081,5.9074,5.9184,5.8808,5.9799,5.9704,5.8985,5.8978,5.8441,5.7699,5.7699,5.7211,5.6606,5.6606,5.6606,5.6606,5.6606,5.6606,5.6606,5.6606,5.6606,5.6606,5.6606,5.6606,5.6606,5.6606,5.6606,5.6606,5.6606,5.6606,5.6606,5.6606,5.6606,5.6606,5.6606,5.6606,5.6606,5.6606,5.6606,5.6606,5.6606,5.6606,5.6606,5.6606,5.6606,5.6606,5.6606,5.6606,5.6579,5.6501,5.6502,5.6504,5.6498,5.6504,5.6542,5.6614,5.6621,5.6996,5.7812,5.789,5.7929,5.7949,5.8743,5.9561,6.0419,6.0419,6.0847,6.1583,6.1453,6.1414,6.1373,6.1189,6.1108,6.1099,6.1099,6.1099,6.1099,6.1099,6.1099,6.1099,5.9014,5.8842,5.8651,5.8001,5.7905,5.7905,5.7905,5.7905,5.7905,5.7905,5.7905,5.7905,5.7905,5.7905,5.781,5.7619,5.7466,5.7351,5.7351,5.7351,5.7351,5.7351,5.6702,5.6339,5.6339,5.5728,5.5403,5.5403,5.5403,5.5403,5.5403,5.5403,5.5498,5.5689,5.632,5.6877,5.7388,5.8287,5.8699,5.8817,5.9148,5.8767,5.8005,5.8053,5.7562,5.686,5.686,5.6743,5.6606,5.6606,5.6606,5.6606,5.6606,5.6606,5.6606,5.6606,5.6606,5.6606,5.6606,5.6606,5.6606,5.6606,5.6606,5.6606,5.6606,5.6606,5.6606,5.6606,5.6606,5.6606,5.6606,5.6606,5.6606,5.6606,5.6606,5.6606,5.6606,5.6606,5.6606,5.6606,5.6606,5.6606,5.6606,5.6606,5.6579,5.6501,5.6502,5.6502,5.6503,5.6503,5.6816,5.7503,5.7527,5.7894,5.8709,5.9406,5.9737,5.9737,5.9932,6.0477,6.1315,6.1315,6.1412,6.1602,6.1515,6.1454,6.14,6.1236,6.1152,6.1099,6.1099,6.1099,6.1099,6.1099,6.1099,6.1099,5.9816,5.972,5.9587,5.9166,5.909,5.909,5.909,5.909,5.909,5.909,5.909,5.909,5.909,5.909,5.8918,5.8517,5.8116,5.7905,5.7905,5.7905,5.7905,5.7905,5.7466,5.7218,5.7218,5.6816,5.6205,5.5403,5.5403,5.5403,5.5403,5.5403,5.5403,5.5422,5.5842,5.617,5.6459,5.7379,5.7657,5.7511,5.812,5.7866,5.7135,5.7621,5.7543,5.7231,5.7641,5.7797,5.7738,5.7309,5.7172,5.7113,5.6723,5.6606,5.6606,5.6606,5.6606,5.6606,5.6606,5.6606,5.6606,5.6606,5.6606,5.6606,5.6606,5.6606,5.6606,5.6606,5.6606,5.6606,5.6606,5.6606,5.6606,5.6606,5.6606,5.6606,5.6606,5.6606,5.6606,5.6606,5.6606,5.6606,5.6606,5.6606,5.6593,5.6549,5.6549,5.6725,5.7096,5.7115,5.7517,5.8389,5.8427,5.8812,5.9605,6.0068,6.0516,6.0925,6.0925,6.1159,6.1607,6.1607,6.1607,6.1607,6.1526,6.1467,6.14,6.126,6.1169,6.1099,6.1099,6.1099,6.1099,6.1099,6.1099,6.1099,6.0403,6.0403,6.0403,6.0403,6.0403,6.0403,6.0403,6.0403,6.0403,6.0403,6.0403,6.0403,6.0403,6.0403,6.0102,5.9396,5.8708,5.8326,5.8326,5.8326,5.8326,5.8326,5.8173,5.8116,5.8116,5.7963,5.7218,5.5842,5.5842,5.5842,5.5842,5.5842,5.5747,5.5613,5.5613,5.5624,5.569,5.653,5.6645,5.6366,5.7311,5.736,5.6924,5.7718,5.8011,5.8128,5.8831,5.9102,5.8987,5.8265,5.8011,5.7914,5.725,5.7035,5.7035,5.7035,5.7035,5.7035,5.7035,5.7035,5.7035,5.7035,5.7035,5.7035,5.7035,5.6918,5.6801,5.6801,5.6918,5.7035,5.7035,5.7035,5.7035,5.7035,5.7035,5.7035,5.7035,5.7035,5.7035,5.7035,5.7035,5.7035,5.7035,5.7035,5.7035,5.7035,5.7035,5.7328,5.7992,5.8011,5.8427,5.9289,5.9327,5.9712,6.0521,6.0516,6.0886,6.1607,6.1607,6.1607,6.1607,6.1607,6.1607,6.1607,6.1537,6.1479,6.1381,6.1275,6.1178,6.1099,6.1099,6.1099,6.1099,6.1099,6.1099,6.1099,6.0403,6.0403,6.0403,6.0403,6.0403,6.0403,6.0403,6.0403,6.0403,6.0403,6.0403,6.0403,6.0403,6.0403,6.0365,6.0217,6.0122,6.0059,6.0059,6.0059,6.0059,6.0059,5.9338,5.8937,5.8937,5.8268,5.7791,5.7562,5.7562,5.7562,5.7562,5.7562,5.716,5.6434,5.6434,5.6187,5.5779,5.5924,5.6513,5.7399,5.761,5.8081,5.8678,5.885,5.8929,5.8948,5.9063,5.9102,5.9083,5.8968,5.8929,5.8909,5.879,5.8751,5.8751,5.8751,5.8751,5.8751,5.8751,5.8751,5.8751,5.8751,5.8751,5.8751,5.8751,5.8187,5.7641,5.7641,5.8246,5.8751,5.8751,5.8751,5.8751,5.8751,5.8751,5.8751,5.8751,5.8751,5.8751,5.8751,5.8751,5.8751,5.8751,5.8751,5.8751,5.8751,5.8751,5.8809,5.8929,5.8929,5.9326,6.0206,6.0224,6.0607,6.1412,6.1412,6.1471,6.1607,6.1607,6.1607,6.1607,6.1607,6.1607,6.1607,6.1583,6.152,6.1407,6.1373,6.1275,6.1099,6.1099,6.1099,6.1099,6.1099,6.1099,6.1099,6.0403,6.0403,6.0403,6.0403,6.0403,6.0403,6.0403,6.0403,6.0403,6.0403,6.0403,6.0403,6.0403,6.0403,6.0403,6.0403,6.0403,6.0403,6.0403,6.0403,6.0403,6.0403,6.0026,5.9835,5.9835,5.9472,5.93,5.93,5.8364,5.7905,5.7905,5.7905,5.7695,5.7332,5.7332,5.7292,5.7245,5.7245,5.7643,5.8286,5.8337,5.8622,5.9064,5.957,5.9792,5.9885,6.0371,6.0547,6.0488,5.9983,5.9827,5.9749,5.9261,5.9102,5.9102,5.9102,5.9102,5.9102,5.9102,5.9102,5.9102,5.9102,5.9102,5.9102,5.9102,5.9183,5.9104,5.8636,5.8831,5.9102,5.9102,5.9102,5.9102,5.9102,5.9102,5.9102,5.9102,5.9102,5.9102,5.9102,5.9102,5.9102,5.9102,5.9102,5.9102,5.9102,5.9102,5.9319,5.9807,5.9827,6.0204,6.1046,6.1064,6.1232,6.1607,6.1607,6.1607,6.1607,6.1607,6.1607,6.1607,6.1607,6.1607,6.1607,6.1607,6.1542,6.146,6.1421,6.1295,6.1152,6.1117,6.1099,6.1099,6.1099,6.1099,6.1099]}]]